Date StartTime U_cm/s V_cm/s W_cm/s Ustd_cm/s Vstd_cm/s Wstd_cm/s Uvar_(cm/s)^2 Vvar_(cm/s)^2 Wvar_(cm/s)^2 KE_(m/s)^2 TurbulentKE_(m/s)^2 HorizWindSpeed_cm/s FrictionSpeec_cm/s DragCoef SpeedOfSound_m/s SonicTemperature_C Pressure_mb 
01/27/2015  00:00:00      -95.359      -45.148       -6.116       21.624       22.517       14.358      467.584      506.997      206.155        0.617        0.059      105.506       12.712        0.015      336.445        7.751      861.562
01/27/2015  00:01:00      -61.559      -32.631       -2.153       33.356       19.691       13.787     1112.640      387.719      190.090        0.327        0.085       69.673        8.962        0.017      336.501        7.846      861.559
01/27/2015  00:02:00      -30.733      -32.555        3.634       23.711       17.077       12.550      562.195      291.613      157.511        0.151        0.051       44.770        1.479        0.001      336.614        8.036      861.553
01/27/2015  00:03:00      -45.192      -53.225        2.101       26.524       19.575       17.995      703.512      383.193      323.828        0.314        0.071       69.823       14.214        0.041      336.677        8.140      861.540
01/27/2015  00:04:00      -98.102      -43.078       -1.654       28.454       24.928       14.125      809.628      621.399      199.528        0.656        0.082      107.143        7.705        0.005      336.595        8.004      861.526
01/27/2015  00:05:00      -88.771      -31.042        2.093       22.499       15.397       12.042      506.195      237.066      145.008        0.487        0.044       94.042       11.034        0.014      336.487        7.823      861.515
01/27/2015  00:06:00      -67.800      -41.557       -1.366       23.839       14.380       12.694      568.292      206.780      161.144        0.363        0.047       79.523       13.968        0.031      336.444        7.750      861.511
01/27/2015  00:07:00      -38.610      -32.814        3.983       25.413       15.667       15.012      645.817      245.450      225.364        0.185        0.056       50.670       11.248        0.049      336.550        7.927      861.508
01/27/2015  00:08:00      -18.170      -41.486       -0.857       20.182       17.507       15.767      407.300      306.507      248.587        0.151        0.048       45.291       13.163        0.084      336.627        8.056      861.513
01/27/2015  00:09:00      -21.591      -68.659       -3.224       18.358       18.730       10.514      337.014      350.814      110.550        0.299        0.040       71.974        9.747        0.018      336.629        8.060      861.511
01/27/2015  00:10:00       -3.041      -26.426        0.807       12.611       21.679       10.050      159.036      469.961      101.003        0.072        0.037       26.601       10.424        0.154      336.630        8.063      861.515
01/27/2015  00:11:00      -51.920      -25.260       -2.858       21.747       14.455        8.857      472.941      208.952       78.438        0.205        0.038       57.739        5.365        0.009      336.567        7.954      861.518
01/27/2015  00:12:00      -75.481      -49.456       -4.176       31.736       22.712       13.422     1007.174      515.830      180.162        0.493        0.085       90.240        9.135        0.010      336.439        7.742      861.523
01/27/2015  00:13:00      -86.442      -70.890        2.028       37.662       39.506       19.275     1418.426     1560.687      371.509        0.793        0.168      111.792       17.488        0.024      336.393        7.665      861.533
01/27/2015  00:14:00      -58.843      -72.091        6.478       35.435       40.961       20.239     1255.620     1677.815      409.619        0.602        0.167       93.057       18.432        0.039      336.349        7.590      861.541
01/27/2015  00:15:00      -60.851      -74.489        6.026       24.448       24.752       18.457      597.727      612.640      340.674        0.542        0.078       96.184       19.551        0.041      336.327        7.554      861.550
01/27/2015  00:16:00      -25.524      -21.371        1.481       23.724       26.663       17.247      562.841      710.928      297.466        0.134        0.079       33.290       16.284        0.239      336.412        7.697      861.546
01/27/2015  00:17:00      -33.823      -11.088       -8.290       15.472       15.367       14.232      239.374      236.133      202.536        0.101        0.034       35.594       11.837        0.111      336.425        7.717      861.541
01/27/2015  00:18:00      -10.116       -3.033       -1.530       26.887        9.625        9.497      722.934       92.650       90.195        0.051        0.045       10.561        5.599        0.281      336.429        7.723      861.535
01/27/2015  00:19:00       -6.744        1.097        8.199       17.418       15.888       15.762      303.398      252.431      248.434        0.046        0.040        6.833       13.477        3.890      336.426        7.720      861.527
01/27/2015  00:20:00       -3.549       -3.263        6.533       18.934       13.294       10.179      358.496      176.734      103.614        0.035        0.032        4.821       10.928        5.138      336.395        7.668      861.511
01/27/2015  00:21:00      -42.816        9.755       -0.205       25.124       12.157        9.649      631.200      147.796       93.099        0.140        0.044       43.913       12.677        0.083      336.365        7.616      861.496
01/27/2015  00:22:00      -59.115        7.526       -3.709       17.305       15.708        9.854      299.466      246.742       97.111        0.210        0.032       59.592        5.662        0.009      336.301        7.513      861.493
01/27/2015  00:23:00      -69.127      -25.300      -13.434        7.583        8.765        7.852       57.502       76.825       61.661        0.290        0.010       73.612        1.470        0.000      336.314        7.535      861.493
01/27/2015  00:24:00      -84.119      -38.875       -6.783       14.548       18.775       11.171      211.631      352.513      124.800        0.466        0.034       92.667        8.446        0.008      336.278        7.473      861.494
01/27/2015  00:25:00      -77.083      -26.546       -6.512       16.416       23.654       12.660      269.491      559.504      160.273        0.384        0.049       81.526        8.555        0.011      336.224        7.382      861.482
01/27/2015  00:26:00      -48.120      -10.909       -9.779       12.666       12.879        7.583      160.421      165.863       57.503        0.146        0.019       49.341        7.527        0.023      336.233        7.398      861.468
01/27/2015  00:27:00      -45.109        5.136       -2.694        7.497        7.029        6.631       56.212       49.414       43.967        0.111        0.007       45.401        4.797        0.011      336.392        7.664      861.444
01/27/2015  00:28:00      -23.199       -2.170        6.514        5.667        3.464        4.975       32.118       12.001       24.754        0.033        0.003       23.300        2.534        0.012      336.445        7.750      861.421
01/27/2015  00:29:00      -35.523       -8.351       -0.834        8.975        5.953        6.520       80.546       35.433       42.512        0.075        0.008       36.492        6.590        0.033      336.545        7.918      861.401
01/27/2015  00:30:00      -58.429      -14.990      -10.555        8.192        9.934        7.180       67.108       98.675       51.551        0.198        0.011       60.321        4.795        0.006      336.384        7.650      861.391
01/27/2015  00:31:00      -45.985      -28.775       -7.669       14.628        7.982       10.760      213.991       63.720      115.781        0.170        0.020       54.246        6.442        0.014      336.344        7.582      861.390
01/27/2015  00:32:00      -17.955      -23.014        4.256       14.107       11.636       14.235      199.004      135.406      202.633        0.070        0.027       29.189       10.180        0.122      336.398        7.673      861.375
01/27/2015  00:33:00      -14.529      -20.856        4.727       16.900       11.514        6.750      285.619      132.583       45.559        0.057        0.023       25.418        6.974        0.075      336.459        7.772      861.370
01/27/2015  00:34:00      -66.902      -43.792       -4.812       21.474       14.609       10.121      461.117      213.431      102.428        0.360        0.039       79.961        6.130        0.006      336.416        7.703      861.381
01/27/2015  00:35:00     -111.590      -52.597       -6.222       23.137       17.745       13.209      535.336      314.887      174.469        0.814        0.051      123.364       11.796        0.009      336.349        7.591      861.395
01/27/2015  00:36:00     -101.968      -38.978       -1.769       34.380       21.395       18.462     1181.961      457.753      340.833        0.695        0.099      109.164       18.189        0.028      336.333        7.564      861.409
01/27/2015  00:37:00      -82.396      -40.749        2.369       30.233       30.884       20.154      914.042      953.806      406.172        0.536        0.114       91.922       12.260        0.018      336.394        7.666      861.416
01/27/2015  00:38:00       -5.306      -18.879        6.090       21.345       16.482       12.142      455.629      271.660      147.430        0.065        0.044       19.610       11.324        0.333      336.444        7.752      861.396
01/27/2015  00:39:00      -35.745      -10.889        1.306       16.077       12.186       10.263      258.486      148.487      105.335        0.096        0.026       37.367        8.552        0.052      336.434        7.733      861.368
01/27/2015  00:40:00      -48.553      -12.648       -2.592       10.557       15.106        8.983      111.455      228.200       80.700        0.147        0.021       50.174        6.415        0.016      336.406        7.687      861.340
01/27/2015  00:41:00      -50.684       22.158       -7.070       13.018       19.626        9.465      169.465      385.181       89.582        0.188        0.032       55.316        7.596        0.019      336.307        7.519      861.323
01/27/2015  00:42:00      -54.804       42.676      -17.185       18.032       20.627       11.018      325.163      425.478      121.386        0.300        0.044       69.460        8.820        0.016      336.261        7.445      861.317
01/27/2015  00:43:00      -80.823       44.254      -14.206       22.212       17.841       11.493      493.353      318.309      132.089        0.482        0.047       92.146        6.397        0.005      336.277        7.470      861.320
01/27/2015  00:44:00      -93.709       36.193      -17.122       35.059       19.198       16.467     1229.147      368.550      271.164        0.613        0.093      100.455       19.091        0.036      336.250        7.426      861.322
01/27/2015  00:45:00     -121.108       32.778      -19.490       36.445       33.926       26.964     1328.252     1151.007      727.081        0.966        0.160      125.465       25.771        0.042      336.236        7.403      861.331
01/27/2015  00:46:00     -101.563       22.565      -14.976       26.674       44.633       23.340      711.520     1992.077      544.769        0.715        0.162      104.039       19.661        0.036      336.222        7.377      861.328
01/27/2015  00:47:00      -88.343      -30.214       -9.000       18.851       28.935       21.523      355.369      837.244      463.225        0.523        0.083       93.367       10.582        0.013      336.219        7.372      861.329
01/27/2015  00:48:00      -68.506       -3.592       -6.439       18.156       20.055       14.096      329.647      402.219      198.710        0.284        0.047       68.600        7.858        0.013      336.263        7.446      861.318
01/27/2015  00:49:00      -81.922        0.598      -10.250       15.923       22.947       16.156      253.546      526.553      261.017        0.393        0.052       81.924        9.993        0.015      336.474        7.800      861.313
01/27/2015  00:50:00      -58.226        5.700       -9.487       23.362       16.911       11.272      545.768      285.998      127.051        0.224        0.048       58.504        8.958        0.023      336.530        7.894      861.318
01/27/2015  00:51:00      -55.847      -11.307       -6.688       16.680       23.780       10.933      278.235      565.467      119.532        0.213        0.048       56.980        8.012        0.020      336.388        7.657      861.333
01/27/2015  00:52:00      -46.997       -0.411       -8.143       30.695       18.904       12.149      942.168      357.361      147.609        0.186        0.072       46.999       14.740        0.098      336.428        7.722      861.348
01/27/2015  00:53:00      -44.472       12.479      -11.743       18.726       19.746       11.321      350.652      389.924      128.170        0.157        0.043       46.189        5.435        0.014      336.611        8.030      861.358
01/27/2015  00:54:00      -41.257       14.175       -8.364       17.810       26.355       11.343      317.213      694.609      128.669        0.156        0.057       43.625        9.131        0.044      336.732        8.231      861.351
01/27/2015  00:55:00      -30.783        2.783       -1.040       15.742       11.303        9.325      247.825      127.760       86.949        0.071        0.023       30.909        8.680        0.079      336.679        8.144      861.350
01/27/2015  00:56:00       26.014       10.649        2.760       13.424        9.823        8.900      180.192       96.498       79.218        0.058        0.018       28.109        7.208        0.066      336.762        8.282      861.345
01/27/2015  00:57:00       49.525       15.817        7.106       14.463       12.209       11.734      209.181      149.069      137.679        0.162        0.025       51.990        8.793        0.029      336.769        8.293      861.348
01/27/2015  00:58:00       37.893       13.787       18.196       14.142       19.275       13.840      199.990      371.530      191.540        0.136        0.038       40.323       12.686        0.099      336.686        8.156      861.336
01/27/2015  00:59:00       29.083       29.388       21.879       26.903       19.686       17.568      723.797      387.537      308.620        0.180        0.071       41.345       17.801        0.185      336.586        7.988      861.316
01/27/2015  01:00:00        1.868       35.375       48.664       15.355       19.868        8.963      235.770      394.728       80.328        0.217        0.036       35.425        8.531        0.058      336.686        8.155      861.304
01/27/2015  01:01:00       -6.181       15.734       41.327       12.901       15.063       11.211      166.431      226.899      125.679        0.126        0.026       16.904        9.768        0.334      336.710        8.196      861.301
01/27/2015  01:02:00       -1.242       16.542       28.080       15.395       12.040        7.467      236.993      144.968       55.761        0.075        0.022       16.588        7.172        0.187      336.637        8.073      861.308
01/27/2015  01:03:00       12.148      -10.829        8.859       17.531       30.124       16.993      307.348      907.482      288.761        0.092        0.075       16.274        7.268        0.199      336.601        8.011      861.325
01/27/2015  01:04:00        1.178       -3.786       16.698       14.440       16.111       11.173      208.520      259.568      124.826        0.044        0.030        3.965        7.591        3.665      336.634        8.067      861.348
01/27/2015  01:05:00       -8.695      -20.156        6.572       10.492       10.390        9.057      110.092      107.945       82.028        0.041        0.015       21.952        3.063        0.019      336.596        8.006      861.377
01/27/2015  01:06:00       10.045        9.632        9.152       11.792       13.960        7.156      139.040      194.880       51.212        0.033        0.019       13.917        3.492        0.063      336.607        8.025      861.394
01/27/2015  01:07:00       51.097       35.721       20.608       27.711       15.639       16.497      767.901      244.583      272.139        0.280        0.064       62.345       15.465        0.062      336.473        7.799      861.408
01/27/2015  01:08:00       69.188       23.117       27.029       29.994       23.886       24.833      899.624      570.525      616.657        0.407        0.104       72.948       20.718        0.081      336.474        7.799      861.391
01/27/2015  01:09:00       26.195       70.397       62.893       28.088       27.643       21.226      788.960      764.139      450.559        0.580        0.100       75.113       16.153        0.046      336.451        7.760      861.364
01/27/2015  01:10:00        8.820       51.098       69.981       23.286       23.184       15.085      542.250      537.519      227.562        0.445        0.065       51.854       14.927        0.083      336.513        7.866      861.334
01/27/2015  01:11:00       19.852       -5.823       27.609       25.718       37.519       22.769      661.436     1407.684      518.425        0.189        0.129       20.689       23.595        1.301      336.505        7.852      861.320
01/27/2015  01:12:00        4.112      -26.647       14.281       26.735       26.605       19.272      714.742      707.803      371.428        0.136        0.090       26.962       18.342        0.463      336.557        7.939      861.317
01/27/2015  01:13:00      -26.271      -16.267        3.842       13.487        7.708       10.209      181.906       59.410      104.223        0.066        0.017       30.900       10.479        0.115      336.478        7.808      861.323
01/27/2015  01:14:00      -16.767      -14.937       -6.574       11.107        6.426        6.760      123.370       41.293       45.702        0.038        0.011       22.456        3.896        0.030      336.527        7.889      861.327
01/27/2015  01:15:00       -3.275       -9.236        7.297        7.522        6.376        5.357       56.574       40.656       28.697        0.014        0.006        9.799        3.314        0.114      336.590        7.996      861.334
01/27/2015  01:16:00      -31.588       -6.736       -1.331       23.474       10.248       10.225      551.028      105.030      104.543        0.090        0.038       32.298       11.133        0.119      336.495        7.836      861.332
01/27/2015  01:17:00      -55.713       15.550       -6.020       13.086       17.428        8.850      171.246      303.722       78.314        0.197        0.028       57.842        7.263        0.016      336.359        7.609      861.336
01/27/2015  01:18:00      -31.402       26.013       -6.341       10.716        8.247        6.881      114.837       68.006       47.353        0.097        0.012       40.777        7.171        0.031      336.406        7.686      861.333
01/27/2015  01:19:00       -1.532        6.043        7.365        3.787        7.225        5.535       14.339       52.197       30.631        0.010        0.005        6.234        3.649        0.343      336.486        7.819      861.320
01/27/2015  01:20:00      -16.854       -2.405       -5.756       13.735        4.061        4.901      188.640       16.490       24.024        0.028        0.011       17.025        6.382        0.141      336.429        7.726      861.341
01/27/2015  01:21:00      -67.746      -23.198       -5.115       12.481       14.771        6.758      155.763      218.175       45.669        0.279        0.021       71.608        6.496        0.008      336.284        7.483      861.362
01/27/2015  01:22:00       -3.510      -23.374        2.099       21.454       15.589       10.710      460.287      243.002      114.713        0.069        0.041       23.636       10.172        0.185      336.381        7.646      861.379
01/27/2015  01:23:00       20.369       -0.008       13.077       14.310       23.598       16.155      204.778      556.853      260.986        0.080        0.051       20.369        9.462        0.216      336.437        7.737      861.390
01/27/2015  01:24:00       55.926       33.992       11.535       26.413       19.822       23.633      697.664      392.917      558.516        0.303        0.082       65.446       14.783        0.051      336.402        7.679      861.389
01/27/2015  01:25:00       46.165       50.198       44.087       26.230       25.015       18.803      687.994      625.740      353.558        0.413        0.083       68.199       17.031        0.062      336.394        7.666      861.391
01/27/2015  01:26:00       33.011       63.627       69.996       30.126       31.234       17.321      907.604      975.559      300.016        0.611        0.109       71.681       13.541        0.036      336.439        7.741      861.390
01/27/2015  01:27:00        6.312       60.907       66.196       20.784       25.637       10.782      431.956      657.258      116.253        0.467        0.060       61.233        9.421        0.024      336.529        7.893      861.397
01/27/2015  01:28:00       32.849       24.750       15.008       26.337       22.103       28.347      693.662      488.553      803.546        0.195        0.099       41.129       23.809        0.335      336.397        7.671      861.422
01/27/2015  01:29:00        6.805        7.561       18.304       11.288       11.291        8.105      127.413      127.486       65.692        0.038        0.016       10.173        4.249        0.174      336.429        7.724      861.449
01/27/2015  01:30:00       24.045        0.434       10.196       16.280       12.499       12.143      265.040      156.234      147.461        0.063        0.028       24.049        8.512        0.125      336.468        7.790      861.477
01/27/2015  01:31:00       34.979       22.321       10.867       15.905       15.744       14.330      252.963      247.863      205.342        0.127        0.035       41.494       11.832        0.081      336.463        7.781      861.491
01/27/2015  01:32:00       76.566       35.503        6.835       25.834       14.761       17.566      667.400      217.878      308.567        0.418        0.060       84.397        9.354        0.012      336.436        7.736      861.481
01/27/2015  01:33:00      100.545       45.888       12.884       21.180       18.583       16.305      448.577      345.346      265.864        0.672        0.053      110.522       15.179        0.019      336.416        7.704      861.444
01/27/2015  01:34:00       35.315       19.908       17.811       22.846       14.490       15.485      521.945      209.961      239.796        0.147        0.049       40.540        9.944        0.060      336.388        7.656      861.440
01/27/2015  01:35:00      -12.631       43.664      -10.359       17.067       15.730       10.253      291.288      247.444      105.117        0.141        0.032       45.454       12.147        0.071      336.385        7.652      861.445
01/27/2015  01:36:00      -51.430       47.373      -17.342       12.170       13.339        7.734      148.100      177.916       59.819        0.279        0.019       69.924        4.271        0.004      336.299        7.507      861.447
01/27/2015  01:37:00       -5.694       42.995       -1.142       21.871       19.854       17.438      478.359      394.168      304.099        0.153        0.059       43.370       12.970        0.089      336.547        7.923      861.430
01/27/2015  01:38:00       30.353       24.898        5.262       12.390        9.110        9.062      153.502       82.987       82.124        0.094        0.016       39.258        3.314        0.007      336.598        8.008      861.417
01/27/2015  01:39:00       20.885       14.002        7.904       18.189        7.044        6.852      330.848       49.614       46.949        0.056        0.021       25.144        8.109        0.104      336.529        7.892      861.417
01/27/2015  01:40:00       10.468       24.806        7.973       10.211       18.119       11.175      104.261      328.307      124.881        0.067        0.028       26.924       12.416        0.213      336.501        7.846      861.418
01/27/2015  01:41:00       33.682       22.742        7.392       13.123        7.222       11.274      172.202       52.156      127.107        0.103        0.018       40.641        6.150        0.023      336.475        7.802      861.437
01/27/2015  01:42:00       24.678       14.645       14.478        9.449        5.902        8.547       89.276       34.830       73.050        0.062        0.010       28.696        6.782        0.056      336.438        7.740      861.456
01/27/2015  01:43:00       26.695        8.217       16.897       11.778        8.163        8.146      138.727       66.631       66.357        0.067        0.014       27.932        4.891        0.031      336.459        7.773      861.479
01/27/2015  01:44:00       48.691       26.833       11.629       17.325       12.304       11.188      300.147      151.383      125.172        0.190        0.029       55.595        9.314        0.028      336.474        7.799      861.494
01/27/2015  01:45:00       67.551       31.461        8.457       15.981       13.890       13.038      255.382      192.942      169.991        0.312        0.031       74.518        7.045        0.009      336.410        7.694      861.497
01/27/2015  01:46:00       34.937       28.367       31.589       18.107       23.079       22.361      327.877      532.658      500.009        0.219        0.068       45.003       16.554        0.135      336.375        7.635      861.505
01/27/2015  01:47:00       -3.117       15.454       20.615        9.135       12.882        6.128       83.449      165.941       37.547        0.048        0.014       15.765        1.634        0.011      336.438        7.740      861.514
01/27/2015  01:48:00        3.870       10.109        7.181        7.279        6.363        8.474       52.984       40.492       71.806        0.017        0.008       10.825        6.071        0.315      336.429        7.724      861.515
01/27/2015  01:49:00       19.562       22.950        1.333       17.196        9.013        9.654      295.687       81.243       93.208        0.069        0.024       30.156        6.251        0.043      336.422        7.714      861.505
01/27/2015  01:50:00       93.606       49.500       16.628       24.898       16.366       14.568      619.897      267.843      212.213        0.629        0.055      105.889        7.782        0.005      336.399        7.674      861.480
01/27/2015  01:51:00      109.578       58.771       15.585       37.826       22.089       26.030     1430.832      487.929      677.535        0.915        0.130      124.343       20.509        0.027      336.363        7.614      861.461
01/27/2015  01:52:00        3.795       24.234       21.323       31.157       26.084       23.429      970.751      680.376      548.939        0.163        0.110       24.529       24.056        0.962      336.377        7.637      861.484
01/27/2015  01:53:00     -107.308       23.825      -13.090       60.616       29.675       16.128     3674.321      880.605      260.101        0.853        0.241      109.921       19.760        0.032      336.256        7.436      861.525
01/27/2015  01:54:00     -105.438       17.016       -6.623       35.963       31.548       21.220     1293.352      995.266      450.305        0.709        0.137      106.802       16.206        0.023      336.224        7.383      861.544
01/27/2015  01:55:00      -57.670        1.117       -7.797       39.047       17.629       13.144     1524.694      310.796      172.753        0.270        0.100       57.681       14.832        0.066      336.225        7.384      861.545
01/27/2015  01:56:00        5.946       29.441        0.225       18.726       13.105        8.271      350.664      171.745       68.403        0.075        0.030       30.035        5.773        0.037      336.335        7.568      861.536
01/27/2015  01:57:00       11.786       28.413       -3.079       15.024       24.289        9.103      225.710      589.965       82.873        0.093        0.045       30.760       13.066        0.180      336.387        7.656      861.528
01/27/2015  01:58:00      -33.508       19.056       -7.041       20.101       28.353        9.321      404.065      803.880       86.887        0.141        0.065       38.548       10.700        0.077      336.455        7.768      861.533
01/27/2015  01:59:00      -88.650        7.382       -7.478       44.964       28.754       21.856     2021.717      826.780      477.698        0.565        0.166       88.957       19.942        0.050      336.262        7.446      861.533
01/27/2015  02:00:00     -119.507      -30.241      -11.481       30.539       25.694       15.115      932.606      660.178      228.464        0.857        0.091      123.274       14.873        0.015      336.160        7.275      861.528
01/27/2015  02:01:00      -80.973       -1.516       -6.471       35.073       22.375       17.714     1230.088      500.625      313.781        0.432        0.102       80.987       14.560        0.032      336.235        7.400      861.519
01/27/2015  02:02:00      -53.095        9.826       -6.422       32.541       25.745       14.118     1058.939      662.787      199.317        0.244        0.096       53.997       15.700        0.085      336.370        7.627      861.500
01/27/2015  02:03:00      -74.620       15.739       -6.980       24.560       22.656       17.621      603.178      513.286      310.482        0.365        0.071       76.262       12.831        0.028      336.395        7.668      861.481
01/27/2015  02:04:00      -63.434       -1.087       -3.351       22.474       19.746       12.538      505.073      389.917      157.210        0.254        0.053       63.443       12.478        0.039      336.432        7.728      861.463
01/27/2015  02:05:00      -78.766       -8.929       -8.171       18.358       15.304        9.383      337.001      234.202       88.044        0.350        0.033       79.271        4.639        0.003      336.443        7.747      861.435
01/27/2015  02:06:00      -75.365        9.629       -3.539       25.481       17.700       15.579      649.278      313.307      242.715        0.350        0.060       75.978       15.343        0.041      336.398        7.672      861.403
01/27/2015  02:07:00     -108.024        9.613      -13.109       25.517       19.307       13.703      651.111      372.763      187.765        0.657        0.061      108.450       12.403        0.013      336.233        7.398      861.377
01/27/2015  02:08:00     -125.408      -23.813      -11.811       44.338       33.118       19.216     1965.840     1096.823      369.274        0.993        0.172      127.648       23.579        0.034      336.084        7.147      861.365
01/27/2015  02:09:00      -91.047      -39.046        0.620       37.720       17.951       14.592     1422.825      322.253      212.934        0.589        0.098       99.066       18.131        0.033      336.082        7.145      861.369
01/27/2015  02:10:00      -55.491      -26.317       -0.370       20.480       23.994       12.105      419.411      575.715      146.527        0.246        0.057       61.415       11.020        0.032      336.127        7.220      861.369
01/27/2015  02:11:00      -85.698      -26.994       -8.691       12.572       12.704       11.560      158.045      161.391      133.624        0.430        0.023       89.849        8.687        0.009      336.162        7.278      861.369
01/27/2015  02:12:00      -76.519      -24.792      -10.062       18.245       18.268       10.674      332.863      333.708      113.941        0.368        0.039       80.435       11.189        0.019      336.135        7.233      861.378
01/27/2015  02:13:00      -70.770      -32.370       -5.430       16.882       17.117       10.566      285.013      292.977      111.648        0.339        0.034       77.822       10.076        0.017      336.182        7.312      861.374
01/27/2015  02:14:00      -65.662      -25.635       -5.258       18.216       13.346       10.537      331.826      178.117      111.023        0.281        0.031       70.489        8.935        0.016      336.204        7.347      861.369
01/27/2015  02:15:00      -94.492        3.903      -11.800       27.116       31.631       15.536      735.269     1000.515      241.368        0.553        0.099       94.573       12.886        0.019      336.149        7.256      861.344
01/27/2015  02:16:00     -111.506      -15.263      -12.123       27.497       31.465       20.524      756.104      990.027      421.225        0.749        0.108      112.546       17.431        0.024      336.172        7.294      861.333
01/27/2015  02:17:00     -133.731      -44.541       -6.527       24.237       31.288       19.141      587.442      978.967      366.373        1.092        0.097      140.954       11.738        0.007      336.154        7.265      861.342
01/27/2015  02:18:00     -124.163      -13.876       -7.864       29.120       24.412       17.140      848.001      595.925      293.787        0.870        0.087      124.936       14.873        0.014      336.136        7.236      861.335
01/27/2015  02:19:00     -126.668       17.610      -12.286       32.091       30.955       18.609     1029.809      958.229      346.307        0.942        0.117      127.886       17.913        0.020      336.171        7.293      861.304
01/27/2015  02:20:00     -144.915      -50.742      -11.883       54.741       31.550       19.485     2996.537      995.399      379.676        1.404        0.219      153.542       21.498        0.020      336.154        7.264      861.290
01/27/2015  02:21:00     -152.518      -63.952      -14.157       36.158       26.328       21.688     1307.391      693.179      470.349        1.501        0.124      165.383       20.343        0.015      336.031        7.060      861.294
01/27/2015  02:22:00      -59.017       12.253        1.421       33.331       25.391       16.075     1110.967      644.692      258.409        0.282        0.101       60.275       16.742        0.077      336.102        7.177      861.291
01/27/2015  02:23:00     -103.945       85.508      -18.345       40.512       29.495       22.369     1641.225      869.935      500.362        1.073        0.151      134.596       24.477        0.033      336.446        7.754      861.287
01/27/2015  02:24:00      -66.246        1.717       -9.672       44.298       48.275       23.455     1962.274     2330.503      550.137        0.466        0.242       66.269       22.857        0.119      336.345        7.585      861.312
01/27/2015  02:25:00      -97.592      -80.645        6.851       78.477       56.225       41.653     6158.659     3161.250     1735.006        1.356        0.553      126.600       34.091        0.073      336.241        7.409      861.358
01/27/2015  02:26:00     -119.257      -68.366        0.428       62.656       36.197       23.385     3925.821     1310.227      546.879        1.234        0.289      137.463       24.770        0.032      336.221        7.376      861.388
01/27/2015  02:27:00       73.780       23.774       20.155       58.066       57.036       29.725     3371.706     3253.068      883.587        0.696        0.375       77.516       30.324        0.153      336.401        7.680      861.339
01/27/2015  02:28:00       46.762      -15.699        0.103       65.284       40.275       28.347     4261.988     1622.111      803.550        0.456        0.334       49.327       23.046        0.218      336.428        7.723      861.308
01/27/2015  02:29:00     -194.225     -117.673       -7.797      107.674       76.171       38.182    11593.649     5802.028     1457.860        3.524        0.943      227.091       19.834        0.008      336.488        7.820      861.372
01/27/2015  02:30:00     -156.059     -135.019       -1.693       78.801       61.847       42.906     6209.572     3825.026     1840.914        2.723        0.594      206.360       39.950        0.037      336.433        7.728      861.417
01/27/2015  02:31:00      -87.119      -98.418        2.892       77.333       83.672       35.478     5980.405     7001.017     1258.690        1.576        0.712      131.438       42.263        0.103      337.159        8.943      861.413
01/27/2015  02:32:00       32.879       38.007        8.532       27.300       16.183       18.066      745.315      261.892      326.390        0.197        0.067       50.255       13.923        0.077      337.148        8.926      861.377
01/27/2015  02:33:00      -58.537        6.970      -12.521       39.379       36.083       17.127     1550.709     1302.013      293.326        0.339        0.157       58.950       12.350        0.044      337.092        8.832      861.387
01/27/2015  02:34:00     -151.818      -71.563       -8.720       43.565       40.979       25.836     1897.922     1679.278      667.499        1.624        0.212      167.839       13.597        0.007      336.725        8.219      861.414
01/27/2015  02:35:00      -54.325      -28.654        9.567       56.672       35.869       30.369     3211.748     1286.601      922.300        0.464        0.271       61.418       32.480        0.280      336.610        8.027      861.428
01/27/2015  02:36:00      -78.287      -18.698       -7.869       34.925       18.844       13.622     1219.732      355.084      185.567        0.415        0.088       80.489       14.665        0.033      336.673        8.132      861.431
01/27/2015  02:37:00      -48.466      -33.044        4.425       25.893       21.337       15.232      670.468      455.288      232.024        0.241        0.068       58.659       13.180        0.050      336.784        8.319      861.418
01/27/2015  02:38:00      -15.164      -52.430       -3.679       10.156       14.172        8.876      103.146      200.840       78.788        0.169        0.019       54.579        7.582        0.019      336.911        8.530      861.409
01/27/2015  02:39:00      -21.678      -38.131       -5.103       21.346       23.341       13.890      455.663      544.801      192.944        0.157        0.060       43.862       15.141        0.119      336.953        8.600      861.411
01/27/2015  02:40:00       -5.969      -50.762        7.959       38.228       47.364       27.409     1461.346     2243.345      751.236        0.357        0.223       51.112       21.826        0.182      336.850        8.429      861.418
01/27/2015  02:41:00      -87.222      -95.223      -15.614       28.096       38.049       21.397      789.404     1447.721      457.826        0.981        0.135      129.132       18.721        0.021      336.626        8.056      861.398
01/27/2015  02:42:00      -66.625       10.409        7.547       19.419       18.694       13.791      377.114      349.460      190.199        0.276        0.046       67.433       12.143        0.032      336.660        8.113      861.365
01/27/2015  02:43:00      -37.450        4.144       -5.725       16.430       12.363        8.165      269.954      152.847       66.666        0.097        0.024       37.678        5.800        0.024      336.630        8.061      861.363
01/27/2015  02:44:00      -37.225      -32.806       -1.347       32.448       11.487       10.641     1052.869      131.960      113.221        0.188        0.065       49.618       11.405        0.053      336.681        8.147      861.378
01/27/2015  02:45:00       -2.014      -31.959        7.634       21.351       18.395       17.252      455.846      338.366      297.627        0.109        0.055       32.022       12.949        0.164      336.677        8.140      861.391
01/27/2015  02:46:00      -20.537      -24.498       -3.788       16.468       16.459        7.664      271.198      270.912       58.736        0.082        0.030       31.967        6.544        0.042      336.678        8.141      861.391
01/27/2015  02:47:00        1.801        1.810       13.309        8.628        6.439        5.690       74.447       41.467       32.371        0.017        0.007        2.554        2.255        0.780      336.641        8.080      861.395
01/27/2015  02:48:00      -28.809      -16.621        1.570       19.750       12.194        8.623      390.066      148.692       74.358        0.086        0.031       33.260        9.322        0.079      336.581        7.978      861.408
01/27/2015  02:49:00      -28.197      -10.711        7.966       11.955       16.151       11.384      142.911      260.868      129.600        0.075        0.027       30.163        8.090        0.072      336.476        7.803      861.410
01/27/2015  02:50:00        5.581       19.288       19.814       18.865       11.685       10.929      355.875      136.538      119.441        0.070        0.031       20.079        5.634        0.079      336.476        7.802      861.381
01/27/2015  02:51:00       17.612       22.214       14.477       13.040       11.753       12.148      170.031      138.122      147.585        0.073        0.023       28.348        6.394        0.051      336.494        7.835      861.342
01/27/2015  02:52:00      -12.178       11.872       14.675       12.295       17.839       18.294      151.165      318.219      334.666        0.065        0.040       17.007       11.315        0.443      336.455        7.770      861.335
01/27/2015  02:53:00      -72.442       15.553       -9.440       18.584       14.136        9.283      345.377      199.834       86.182        0.311        0.032       74.093        4.170        0.003      336.378        7.640      861.337
01/27/2015  02:54:00      -39.336       47.210      -10.783       22.595       14.230       11.938      510.547      202.496      142.519        0.237        0.043       61.450       12.510        0.041      336.336        7.569      861.325
01/27/2015  02:55:00       14.762       81.375       -7.721       21.404       28.874       18.705      458.110      833.708      349.861        0.427        0.082       82.703       18.285        0.049      336.267        7.454      861.296
01/27/2015  02:56:00       -0.447      111.777      -21.305       14.374       11.006        8.792      206.619      121.130       77.305        0.668        0.020      111.778        7.484        0.004      336.279        7.475      861.304
01/27/2015  02:57:00        8.481      129.159      -14.066       10.667       16.755        7.036      113.781      280.732       49.505        0.870        0.022      129.437        3.549        0.001      336.197        7.336      861.322
01/27/2015  02:58:00       29.070      102.890      -16.484       19.466       25.818       13.933      378.944      666.568      194.124        0.647        0.062      106.918       10.348        0.009      336.122        7.209      861.333
01/27/2015  02:59:00        1.027       47.407       -6.105       15.320       31.480       13.124      234.698      990.985      172.228        0.184        0.070       47.418       13.983        0.087      336.060        7.109      861.376
01/27/2015  03:00:00       47.923       38.739        2.357       24.840       18.772       16.238      617.031      352.374      263.682        0.252        0.062       61.622       11.492        0.035      336.034        7.062      861.393
01/27/2015  03:01:00       34.709       30.616        4.820       18.808       21.251       14.762      353.729      451.595      217.917        0.159        0.051       46.282        9.112        0.039      336.050        7.090      861.408
01/27/2015  03:02:00       18.340       22.590       27.625       19.756       14.845       11.607      390.318      220.363      134.720        0.118        0.037       29.097       11.269        0.150      336.060        7.106      861.434
01/27/2015  03:03:00       97.718       48.627        9.227       22.293       20.336       18.485      496.995      413.567      341.679        0.663        0.063      109.148       10.932        0.010      336.026        7.050      861.428
01/27/2015  03:04:00       57.162       36.256       14.649       16.455       16.131       20.505      270.751      260.211      420.442        0.287        0.048       67.690        8.842        0.017      336.019        7.038      861.443
01/27/2015  03:05:00       29.684       18.838        1.962       10.270       11.136       10.823      105.483      124.020      117.130        0.079        0.017       35.157        8.437        0.058      336.029        7.055      861.481
01/27/2015  03:06:00       72.156       43.358        7.319       22.493       11.138       11.634      505.954      124.048      135.355        0.395        0.038       84.181        7.129        0.007      336.010        7.025      861.484
01/27/2015  03:07:00       91.356       46.686       18.855       27.838       21.538       20.625      774.937      463.888      425.377        0.627        0.083      102.594       16.494        0.026      336.024        7.048      861.463
01/27/2015  03:08:00       59.564       30.324       15.190       13.875       12.494       11.012      192.525      156.111      121.271        0.258        0.023       66.839        4.903        0.005      336.027        7.052      861.478
01/27/2015  03:09:00       67.603       39.005       24.154       12.060        9.182        7.714      145.451       84.315       59.505        0.348        0.014       78.048        3.000        0.001      336.123        7.212      861.489
01/27/2015  03:10:00       79.720       37.407        8.158       26.946       19.143       16.948      726.091      366.446      287.222        0.460        0.069       88.060        8.189        0.009      336.076        7.135      861.506
01/27/2015  03:11:00      113.627       69.056       31.970       41.725       36.559       31.796     1740.942     1336.533     1010.977        1.139        0.204      132.965       19.792        0.022      336.029        7.056      861.505
01/27/2015  03:12:00       33.835      102.004       97.017       50.134       46.057       35.006     2513.438     2121.266     1225.389        1.341        0.293      107.469       27.415        0.065      335.947        6.920      861.482
01/27/2015  03:13:00       34.386       60.944       66.501       47.413       43.628       35.265     2248.033     1903.406     1243.611        0.736        0.270       69.976       31.139        0.198      335.887        6.820      861.470
01/27/2015  03:14:00       65.554       51.651       37.548       32.310       29.671       30.027     1043.911      880.342      901.607        0.560        0.141       83.458       20.796        0.062      335.811        6.694      861.478
01/27/2015  03:15:00       40.533       29.138        8.170       30.857       26.825       14.944      952.142      719.565      223.325        0.223        0.095       49.919       10.969        0.048      335.785        6.650      861.465
01/27/2015  03:16:00       31.548       40.650        6.928       33.285       28.147       19.831     1107.879      792.269      393.287        0.249        0.115       51.456       15.883        0.095      335.763        6.613      861.443
01/27/2015  03:17:00       85.778       71.877        2.213       33.558       26.488       26.709     1126.116      701.635      713.354        0.753        0.127      111.912       15.666        0.020      335.754        6.599      861.417
01/27/2015  03:18:00      113.839       64.841        0.356       27.002       22.137       26.170      729.123      490.053      684.859        0.953        0.095      131.011       13.032        0.010      335.742        6.580      861.389
01/27/2015  03:19:00       92.095       41.847        4.291       36.118       34.987       22.417     1304.544     1224.060      502.524        0.664        0.152      101.157       20.982        0.043      335.723        6.546      861.373
01/27/2015  03:20:00       23.285       24.929        4.184       44.823       24.952       18.979     2009.068      622.610      360.194        0.209        0.150       34.112       12.672        0.138      335.696        6.503      861.352
01/27/2015  03:21:00       10.384       50.571       -9.410       20.416       26.983       12.198      416.832      728.057      148.783        0.202        0.065       51.626       15.348        0.088      335.697        6.506      861.349
01/27/2015  03:22:00        9.350       67.947        4.052       18.919       32.848       20.122      357.925     1078.977      404.879        0.328        0.092       68.587       22.406        0.107      335.801        6.678      861.354
01/27/2015  03:23:00        7.346       40.700        2.166       21.712       33.199       20.290      471.403     1102.141      411.683        0.185        0.099       41.357       17.401        0.177      335.801        6.678      861.340
01/27/2015  03:24:00       11.906       43.724        0.725       30.472       41.382       20.971      928.557     1712.454      439.779        0.257        0.154       45.316       19.371        0.183      335.737        6.570      861.327
01/27/2015  03:25:00       15.382       81.401       -9.935       28.240       42.105       15.762      797.497     1772.831      248.444        0.489        0.141       82.841       18.702        0.051      335.718        6.540      861.337
01/27/2015  03:26:00       16.590      101.409      -11.856       16.766       37.022       15.884      281.098     1370.648      252.292        0.630        0.095      102.757       19.721        0.037      335.714        6.535      861.338
01/27/2015  03:27:00       16.945       62.784       -6.225       16.831       34.112       16.856      283.295     1163.615      284.140        0.300        0.087       65.030       11.397        0.031      335.724        6.551      861.335
01/27/2015  03:28:00       11.076       58.671       -8.446       15.034       20.608       13.955      226.006      424.696      194.730        0.224        0.042       59.708       12.187        0.042      335.744        6.581      861.343
01/27/2015  03:29:00      -22.585       71.179       -5.742       17.355       16.464        9.689      301.205      271.065       93.878        0.314        0.033       74.676        4.176        0.003      335.817        6.704      861.359
01/27/2015  03:30:00      -13.809       92.201      -10.561       20.706       18.743        9.206      428.757      351.287       84.756        0.483        0.043       93.229        8.233        0.008      335.780        6.643      861.359
01/27/2015  03:31:00       12.926       65.191       -5.806       14.080       36.356       16.758      198.249     1321.772      280.836        0.313        0.090       66.460       18.098        0.074      335.830        6.724      861.333
01/27/2015  03:32:00       27.823       39.014       -3.129       20.569       28.276       18.447      423.104      799.557      340.279        0.193        0.078       47.919       18.722        0.153      335.899        6.840      861.321
01/27/2015  03:33:00       18.227       30.993       -1.838       13.908       27.502       14.402      193.423      756.384      207.419        0.123        0.058       35.955       15.205        0.179      335.906        6.851      861.329
01/27/2015  03:34:00        2.798       51.252      -10.309       10.783        7.205        5.038      116.266       51.912       25.380        0.147        0.010       51.328        4.073        0.006      335.925        6.883      861.351
01/27/2015  03:35:00      -10.495       32.601        0.591       11.393       16.474        8.169      129.807      271.396       66.738        0.082        0.023       34.248        6.046        0.031      335.911        6.860      861.351
01/27/2015  03:36:00        0.896       20.087        3.688        8.369       11.110        7.440       70.046      123.429       55.357        0.033        0.012       20.107        5.743        0.082      335.958        6.937      861.348
01/27/2015  03:37:00      -15.006      -12.593       -1.090       12.759       12.397        7.062      162.792      153.675       49.868        0.038        0.018       19.590        7.066        0.130      335.991        6.992      861.362
01/27/2015  03:38:00      -18.290      -19.550        1.940       12.072        6.688       10.043      145.734       44.727      100.857        0.051        0.015       26.772        8.598        0.103      336.028        7.053      861.382
01/27/2015  03:39:00      -19.427      -18.541        1.487       14.835        7.333       10.837      220.068       53.775      117.443        0.056        0.020       26.855        9.317        0.120      336.082        7.145      861.388
01/27/2015  03:40:00      -34.554       -9.101       -0.287       10.407        6.599        6.103      108.295       43.544       37.242        0.073        0.009       35.732        4.585        0.016      335.987        6.987      861.403
01/27/2015  03:41:00      -31.296       -4.495       -3.875        6.710        5.602        5.489       45.030       31.379       30.132        0.056        0.005       31.617        3.331        0.011      336.017        7.036      861.415
01/27/2015  03:42:00      -20.103       -4.219       -3.831        6.340        3.385        3.580       40.202       11.458       12.816        0.025        0.003       20.541        1.740        0.007      336.043        7.081      861.428
01/27/2015  03:43:00      -12.980       -1.601       -2.038        5.334        2.887        3.138       28.446        8.332        9.847        0.011        0.002       13.079        2.116        0.026      336.096        7.166      861.429
01/27/2015  03:44:00      -17.769        4.458       -1.791        6.836        4.550        4.019       46.728       20.703       16.149        0.021        0.004       18.320        2.882        0.025      336.124        7.212      861.428
01/27/2015  03:45:00      -11.521        8.519        1.024        7.125        7.666        5.328       50.771       58.764       28.391        0.017        0.007       14.329        5.936        0.172      336.170        7.289      861.429
01/27/2015  03:46:00      -18.544       12.670       -1.742       13.003        7.207        5.712      169.080       51.946       32.622        0.038        0.013       22.459        6.950        0.096      336.163        7.279      861.429
01/27/2015  03:47:00      -10.217        9.319        1.130        9.386        9.572        6.842       88.097       91.621       46.807        0.021        0.011       13.829        4.926        0.127      336.177        7.304      861.432
01/27/2015  03:48:00        9.398        9.110       -1.623        9.795        7.010        6.285       95.950       49.144       39.499        0.018        0.009       13.089        6.775        0.268      336.277        7.469      861.451
01/27/2015  03:49:00        2.745        6.719       -1.099        3.305        4.523        3.037       10.926       20.455        9.221        0.005        0.002        7.258        1.032        0.020      336.309        7.523      861.451
01/27/2015  03:50:00      -19.536        1.414       -2.933       15.790        9.621        4.929      249.312       92.562       24.295        0.038        0.018       19.587        5.489        0.079      336.341        7.577      861.450
01/27/2015  03:51:00      -62.130      -15.246       -9.194       14.804       16.243        9.552      219.164      263.850       91.244        0.238        0.029       63.973        7.356        0.013      335.995        6.999      861.460
01/27/2015  03:52:00      -86.209       -9.343       -5.064       28.582       32.079       18.135      816.906     1029.080      328.867        0.486        0.109       86.713       13.521        0.024      335.875        6.799      861.448
01/27/2015  03:53:00      -62.638        4.750       -8.213       28.737       19.909       15.453      825.818      396.362      238.803        0.274        0.073       62.818       14.622        0.054      335.850        6.758      861.426
01/27/2015  03:54:00      -29.871       -6.205      -16.982       19.449       12.319       11.342      378.266      151.764      128.641        0.094        0.033       30.509        3.451        0.013      335.928        6.888      861.405
01/27/2015  03:55:00        2.323      -10.636        2.685        6.742       11.026        8.842       45.460      121.579       78.180        0.019        0.012       10.887        6.842        0.395      336.146        7.251      861.392
01/27/2015  03:56:00       -5.246      -40.073      -21.151       25.839       22.241       13.395      667.632      494.646      179.436        0.171        0.067       40.415       12.539        0.096      336.117        7.204      861.403
01/27/2015  03:57:00      -84.197      -30.871       -1.100       48.515       16.864       14.658     2353.670      284.390      214.867        0.545        0.143       89.678       22.658        0.064      336.005        7.016      861.414
01/27/2015  03:58:00      -92.419       -6.525      -11.071       22.245       12.366        9.798      494.841      152.926       96.009        0.472        0.037       92.649        6.798        0.005      335.943        6.914      861.429
01/27/2015  03:59:00      -25.515       13.712       -2.956       26.955       10.721       12.495      726.557      114.951      156.120        0.092        0.050       28.966       14.266        0.243      335.975        6.965      861.422
01/27/2015  04:00:00       25.017       25.734        7.295       12.972       10.453       10.066      168.272      109.264      101.331        0.086        0.019       35.890        5.815        0.026      336.118        7.204      861.391
01/27/2015  04:01:00       15.831       20.817        8.272       10.966       10.144        8.475      120.264      102.893       71.832        0.052        0.015       26.153        5.114        0.038      336.103        7.179      861.399
01/27/2015  04:02:00        0.514       24.841       -0.247        7.588        7.261        6.483       57.573       52.727       42.031        0.038        0.008       24.846        3.332        0.018      336.119        7.206      861.430
01/27/2015  04:03:00      -35.009       -3.114       -8.769       20.733       22.060        7.096      429.852      486.653       50.351        0.114        0.048       35.147        6.252        0.032      336.073        7.131      861.466
01/27/2015  04:04:00      -49.870      -26.173       -7.322       18.722        9.744        7.460      350.499       94.953       55.654        0.186        0.025       56.320        6.953        0.015      335.952        6.928      861.488
01/27/2015  04:05:00      -56.273      -23.902       -1.207       25.362       13.642       10.605      643.226      186.104      112.457        0.234        0.047       61.139       10.607        0.030      335.953        6.927      861.491
01/27/2015  04:06:00      -69.877       -4.793       -2.852        9.828       10.960        4.889       96.580      120.125       23.905        0.258        0.012       70.041        3.721        0.003      336.021        7.044      861.488
01/27/2015  04:07:00      -39.985       33.987       -3.344       20.074       21.486       13.562      402.957      461.669      183.928        0.191        0.052       52.478        7.419        0.020      335.986        6.984      861.490
01/27/2015  04:08:00      -31.683       33.295      -12.003       14.900       18.074       11.530      221.999      326.682      132.941        0.147        0.034       45.961        4.812        0.011      336.016        7.032      861.494
01/27/2015  04:09:00      -26.366       -5.063       -3.523       12.538       19.284       10.714      157.211      371.884      114.795        0.069        0.032       26.847        7.204        0.072      335.971        6.959      861.511
01/27/2015  04:10:00      -40.231      -23.777       -1.910       24.619       17.645        8.571      606.119      311.343       73.456        0.159        0.050       46.732        7.572        0.026      335.905        6.850      861.521
01/27/2015  04:11:00       16.940        4.459       15.683        7.849       11.755        9.115       61.608      138.169       83.090        0.042        0.014       17.517        4.938        0.079      335.996        6.999      861.514
01/27/2015  04:12:00       16.089       40.422       37.545       19.135       17.282       13.431      366.164      298.674      180.400        0.207        0.042       43.506        6.664        0.023      336.059        7.107      861.504
01/27/2015  04:13:00        6.326       50.250       54.643       13.064       23.080       15.496      170.680      532.680      240.124        0.325        0.047       50.646       16.160        0.102      336.067        7.120      861.519
01/27/2015  04:14:00       25.937       69.243       58.685       20.997       20.504       19.432      440.859      420.423      377.620        0.507        0.062       73.941       16.767        0.051      336.056        7.100      861.529
01/27/2015  04:15:00        8.454        8.816       24.658       21.345       29.053       20.343      455.624      844.105      413.824        0.124        0.086       12.214       16.910        1.917      336.076        7.135      861.542
01/27/2015  04:16:00       28.650       33.711        9.878       17.893       20.097       10.990      320.169      403.872      120.771        0.145        0.042       44.240       12.639        0.082      336.002        7.012      861.543
01/27/2015  04:17:00       80.271       61.494       18.067       29.905       17.284       14.056      894.320      298.740      197.584        0.597        0.070      101.119        9.128        0.008      335.980        6.975      861.520
01/27/2015  04:18:00       74.797       86.223       60.742       36.471       25.626       37.131     1330.113      656.715     1378.716        1.004        0.168      114.144       24.501        0.046      336.043        7.078      861.452
01/27/2015  04:19:00       -5.949       45.754       70.923       19.542       48.605       33.124      381.872     2362.428     1097.192        0.550        0.192       46.140       36.194        0.615      336.053        7.095      861.426
01/27/2015  04:20:00      -23.774       23.454        9.375       19.817       26.091       16.390      392.711      680.753      268.618        0.127        0.067       33.396       14.322        0.184      336.021        7.041      861.459
01/27/2015  04:21:00      -89.461       33.933      -15.783       42.433       33.823       20.289     1800.599     1144.016      411.628        0.638        0.168       95.681       17.332        0.033      335.912        6.862      861.495
01/27/2015  04:22:00        0.334       42.778      -10.011       64.571       20.463       15.708     4169.445      418.752      246.743        0.338        0.242       42.780       24.077        0.317      336.072        7.127      861.480
01/27/2015  04:23:00       94.642      125.338       66.224       40.156       41.905       46.595     1612.467     1755.996     2171.139        1.729        0.277      157.056       37.088        0.056      335.996        7.001      861.423
01/27/2015  04:24:00       98.441      113.329       81.036       48.415       29.508       26.456     2344.036      870.708      699.902        1.651        0.196      150.114       19.237        0.016      336.063        7.114      861.402
01/27/2015  04:25:00       10.919       55.790       57.726       30.856       26.500       27.266      952.098      702.250      743.413        0.448        0.120       56.849       24.375        0.184      336.066        7.118      861.434
01/27/2015  04:26:00       18.905       23.158       32.619       20.357       18.855       11.308      414.402      355.516      127.863        0.143        0.045       29.895        6.313        0.045      336.082        7.143      861.462
01/27/2015  04:27:00       29.488       32.667        2.527       22.977       21.418       16.490      527.955      458.726      271.904        0.160        0.063       44.007       10.330        0.055      336.068        7.120      861.480
01/27/2015  04:28:00        2.690       -2.752       -2.817        6.716        4.554        7.600       45.111       20.740       57.762        0.007        0.006        3.849        2.286        0.353      336.158        7.270      861.499
01/27/2015  04:29:00       23.988       16.824       17.746       14.763       12.197        8.648      217.944      148.770       74.781        0.081        0.022       29.300        9.598        0.107      336.200        7.343      861.499
01/27/2015  04:30:00       61.555       42.094       17.579       16.032       12.679       15.641      257.032      160.759      244.630        0.327        0.033       74.571        9.318        0.016      336.113        7.197      861.475
01/27/2015  04:31:00       69.102       46.893        8.894       18.867       16.585       16.177      355.976      275.058      261.708        0.397        0.045       83.511       12.009        0.021      336.026        7.050      861.468
01/27/2015  04:32:00       47.295       49.314       38.574       17.103       12.640       16.149      292.502      159.760      260.786        0.343        0.036       68.328        9.384        0.019      336.037        7.070      861.475
01/27/2015  04:33:00       20.154       17.588       17.790       22.014       20.684       12.747      484.596      427.810      162.492        0.105        0.054       26.749        9.873        0.136      336.062        7.111      861.495
01/27/2015  04:34:00       20.241       15.106       13.494       12.074       11.794       12.694      145.782      139.088      161.140        0.063        0.022       25.257        8.405        0.111      336.041        7.075      861.492
01/27/2015  04:35:00       55.041       41.332        5.411       21.973       26.116       15.507      482.818      682.065      240.475        0.309        0.070       68.832        7.942        0.013      335.987        6.984      861.488
01/27/2015  04:36:00      126.297       84.473        3.047       26.010       16.993       17.131      676.508      288.771      293.466        1.218        0.063      151.943       10.829        0.005      335.954        6.928      861.487
01/27/2015  04:37:00      115.038       74.002       22.672       46.945       33.602       33.632     2203.808     1129.081     1131.102        1.184        0.223      136.784       25.467        0.035      336.024        7.046      861.477
01/27/2015  04:38:00       34.273       22.654       26.700       26.535       26.227       17.514      704.086      687.851      306.747        0.205        0.085       41.083       14.174        0.119      335.996        7.002      861.522
01/27/2015  04:39:00        4.066       20.096        6.950        9.926       24.309       13.733       98.528      590.908      188.592        0.067        0.044       20.503       15.443        0.567      336.024        7.047      861.546
01/27/2015  04:40:00        5.331      104.720       -5.845       23.722       32.813       19.343      562.748     1076.708      374.155        0.652        0.101      104.856       18.863        0.032      335.874        6.798      861.528
01/27/2015  04:41:00       70.228       88.374        0.454       42.122       35.179       30.311     1774.245     1237.570      918.783        0.834        0.197      112.881       19.599        0.030      335.834        6.731      861.483
01/27/2015  04:42:00       64.897       33.741       18.105       48.960       28.251       24.201     2397.055      798.134      585.678        0.473        0.189       73.144       14.259        0.038      335.887        6.820      861.456
01/27/2015  04:43:00      -11.555       -4.093        6.149       11.348        8.118       13.351      128.781       65.909      178.257        0.028        0.019       12.258        9.228        0.567      335.976        6.966      861.470
01/27/2015  04:44:00       22.191       10.769       13.605       13.782        8.632        9.992      189.951       74.515       99.831        0.058        0.018       24.666        8.635        0.123      335.928        6.890      861.468
01/27/2015  04:45:00       21.243       40.448        4.644       11.204       13.320        6.610      125.526      177.421       43.697        0.123        0.017       45.687        5.742        0.016      335.922        6.877      861.481
01/27/2015  04:46:00       31.177       62.892       -4.623       18.868       27.130       18.766      355.986      736.028      352.150        0.320        0.072       70.195       11.423        0.026      335.873        6.796      861.455
01/27/2015  04:47:00       21.870       42.886       -3.130       28.727       34.965       17.417      825.269     1222.575      303.356        0.234        0.118       48.141       14.130        0.086      335.865        6.784      861.444
01/27/2015  04:48:00      111.450       53.154        2.985       56.356       26.896       25.881     3176.055      723.392      669.815        0.991        0.228      123.476       16.910        0.019      335.912        6.861      861.425
01/27/2015  04:49:00       -9.439       -5.738       11.116       42.625       41.704       29.022     1816.855     1739.235      842.249        0.232        0.220       11.046       19.533        3.127      336.001        7.008      861.408
01/27/2015  04:50:00      -56.829       38.371       -3.721       29.843       31.816       21.925      890.594     1012.286      480.706        0.355        0.119       68.570       18.232        0.071      335.930        6.891      861.447
01/27/2015  04:51:00       13.837       -0.660        5.882       36.704       20.731       15.760     1347.206      429.762      248.382        0.113        0.101       13.853       13.645        0.970      335.928        6.890      861.430
01/27/2015  04:52:00       31.244       44.802       64.818       44.363       31.257       24.893     1968.113      977.028      619.660        0.537        0.178       54.620       26.528        0.236      336.007        7.019      861.388
01/27/2015  04:53:00       -1.023       23.044       18.186       10.305       15.398       19.779      106.199      237.097      391.200        0.080        0.037       23.067        7.925        0.118      336.022        7.043      861.416
01/27/2015  04:54:00       -0.670       35.294       -4.699       15.197       20.847       12.342      230.952      434.618      152.324        0.104        0.041       35.300       11.601        0.108      335.963        6.946      861.441
01/27/2015  04:55:00      -20.881       32.958       -2.177       25.654       16.287       14.202      658.138      265.269      201.702        0.133        0.056       39.016       12.560        0.104      335.977        6.970      861.449
01/27/2015  04:56:00      -15.605       20.932       -3.176       20.739       24.856       15.226      430.120      617.822      231.824        0.099        0.064       26.108        6.495        0.062      335.996        7.002      861.441
01/27/2015  04:57:00      -28.788      -11.482       -3.219       24.361       13.147        9.932      593.450      172.847       98.652        0.092        0.043       30.993        3.927        0.016      336.010        7.025      861.456
01/27/2015  04:58:00       70.423       51.281       18.771       25.147       19.210       19.471      632.386      369.010      379.107        0.466        0.069       87.115       16.006        0.034      336.058        7.105      861.445
01/27/2015  04:59:00       32.259       54.010       32.973       51.564       32.763       24.751     2658.847     1073.426      612.628        0.469        0.217       62.910       32.775        0.271      336.067        7.120      861.441
01/27/2015  05:00:00        3.463       16.088       26.062       14.356       14.618       10.573      206.100      213.688      111.786        0.074        0.027       16.456        6.862        0.174      336.078        7.138      861.450
01/27/2015  05:01:00       21.196       -5.422       12.512       18.608       31.348       10.286      346.272      982.690      105.810        0.103        0.072       21.878        6.776        0.096      336.089        7.157      861.430
01/27/2015  05:02:00       40.089       -8.459       10.718       20.885       30.976       13.652      436.196      959.521      186.379        0.169        0.079       40.972       10.914        0.071      336.228        7.390      861.416
01/27/2015  05:03:00        4.659       51.555       62.203       19.822       28.302       22.796      392.920      801.022      519.671        0.413        0.086       51.765       20.017        0.150      336.227        7.387      861.379
01/27/2015  05:04:00       31.792       45.470       48.016       51.232       30.998       25.535     2624.720      960.888      652.059        0.481        0.212       55.482       29.059        0.274      336.139        7.241      861.372
01/27/2015  05:05:00       19.565       55.879       57.749       47.091       37.007       22.340     2217.585     1369.521      499.078        0.546        0.204       59.206       20.687        0.122      336.184        7.315      861.353
01/27/2015  05:06:00       -4.861       -6.770       14.158       29.171       22.588       17.382      850.957      510.207      302.151        0.097        0.083        8.334       18.438        4.895      336.285        7.485      861.373
01/27/2015  05:07:00      -92.294       -4.675       -8.223       41.273       33.008       23.107     1703.493     1089.511      533.933        0.597        0.166       92.413       16.239        0.031      336.246        7.419      861.410
01/27/2015  05:08:00        4.882       17.257        9.840       38.993       25.502       25.969     1520.459      650.336      674.410        0.163        0.142       17.935       24.536        1.872      336.338        7.573      861.373
01/27/2015  05:09:00        8.445       -3.518        9.438       11.320       15.227       13.690      128.134      231.855      187.413        0.036        0.027        9.149        7.154        0.611      336.280        7.474      861.348
01/27/2015  05:10:00      -21.508       13.386       12.696       20.890       17.387       17.615      436.385      302.300      310.296        0.093        0.052       25.333       11.244        0.197      336.289        7.492      861.353
01/27/2015  05:11:00      -19.668       -5.848       -1.112       34.644       19.914       16.007     1200.198      396.550      256.213        0.114        0.093       20.519       17.919        0.763      336.316        7.536      861.350
01/27/2015  05:12:00      -14.102      -26.290        5.760       46.103       24.888       19.717     2125.488      619.401      388.768        0.203        0.157       29.833        9.241        0.096      336.368        7.622      861.329
01/27/2015  05:13:00      -82.943      -17.320       -3.071       27.003       29.644       17.803      729.143      878.778      316.954        0.456        0.096       84.732       13.285        0.025      336.335        7.567      861.343
01/27/2015  05:14:00      -55.345      -32.655        2.689       27.569       28.479       15.785      760.049      811.043      249.164        0.298        0.091       64.260       12.463        0.038      336.282        7.479      861.344
01/27/2015  05:15:00      -64.757      -63.701       -8.747       20.428       18.994       13.247      417.295      360.780      175.487        0.464        0.048       90.836       13.989        0.024      336.219        7.376      861.343
01/27/2015  05:16:00      -67.256      -59.237       -5.523       30.638       20.616       17.948      938.716      425.025      322.121        0.487        0.084       89.624       16.074        0.032      336.262        7.445      861.336
01/27/2015  05:17:00      -49.460      -51.859        1.349       45.529       38.987       22.447     2072.932     1520.005      503.878        0.462        0.205       71.663       15.550        0.047      336.240        7.407      861.357
01/27/2015  05:18:00     -116.342       -8.804       -8.036       55.627       27.888       21.214     3094.383      777.716      450.041        0.900        0.216      116.674       23.949        0.042      336.084        7.148      861.373
01/27/2015  05:19:00     -100.051      -19.897       -4.673       38.585       34.227       18.510     1488.769     1171.516      342.637        0.671        0.150      102.010       18.664        0.033      336.016        7.034      861.356
01/27/2015  05:20:00      -92.386      -15.225        4.784       48.340       20.723       18.810     2336.708      429.433      353.799        0.595        0.156       93.633       20.922        0.050      335.992        6.995      861.339
01/27/2015  05:21:00      -79.427      -28.284       -2.834       69.692       28.625       18.885     4856.952      819.365      356.627        0.657        0.302       84.313       26.470        0.099      336.041        7.076      861.356
01/27/2015  05:22:00      -60.727       -9.138        0.379       30.453       24.286       17.432      927.409      589.810      303.864        0.280        0.091       61.410       18.474        0.091      336.053        7.098      861.353
01/27/2015  05:23:00      -57.945        8.225      -11.272       27.934       29.739       13.211      780.327      884.379      174.542        0.270        0.092       58.526       11.011        0.035      336.035        7.064      861.361
01/27/2015  05:24:00      -32.191      -17.302        1.934       32.055       18.754       11.299     1027.530      351.724      127.659        0.142        0.075       36.546        7.522        0.042      336.055        7.100      861.354
01/27/2015  05:25:00       11.056      -15.191        6.739       29.301       33.291       20.197      858.552     1108.293      407.923        0.139        0.119       18.788       18.065        0.924      336.158        7.273      861.349
01/27/2015  05:26:00      -11.345       -0.918        4.926       19.661       11.056       16.425      386.563      122.228      269.765        0.047        0.039       11.382        9.575        0.708      336.159        7.271      861.386
01/27/2015  05:27:00      -37.285      -25.976      -11.008       20.302       21.729       11.717      412.186      472.160      137.284        0.160        0.051       45.441        9.697        0.046      336.193        7.331      861.421
01/27/2015  05:28:00      -10.926      -16.271       20.495       26.530       53.748       27.760      703.855     2888.837      770.633        0.258        0.218       19.599       31.408        2.568      336.302        7.511      861.428
01/27/2015  05:29:00       11.998       22.521       55.989       39.357       41.826       29.127     1548.948     1749.377      848.398        0.397        0.207       25.518       27.783        1.185      336.243        7.413      861.456
01/27/2015  05:30:00       32.166      -28.923       37.289       50.905       48.478       43.479     2591.318     2350.103     1890.451        0.505        0.342       43.257       45.220        1.093      336.245        7.418      861.486
01/27/2015  05:31:00       -2.803       37.319       72.980       29.686       47.831       33.652      881.235     2287.807     1132.454        0.551        0.215       37.424       25.454        0.463      336.212        7.362      861.500
01/27/2015  05:32:00       99.911      -94.060       13.157       74.989       92.489       52.717     5623.371     8554.170     2779.075        1.798        0.848      137.220       65.686        0.229      336.209        7.357      861.523
01/27/2015  05:33:00      133.480      -77.349       15.461       60.482       55.311       42.747     3658.076     3059.330     1827.298        1.629        0.427      154.272       38.369        0.062      336.143        7.247      861.574
01/27/2015  05:34:00       90.570       35.230       69.058       67.194       59.855       50.860     4515.091     3582.607     2586.729        1.245        0.534       97.180       54.893        0.319      336.102        7.178      861.597
01/27/2015  05:35:00       58.971       18.993       63.808       54.209       53.784       43.750     2938.561     2892.706     1914.024        0.783        0.387       61.954       41.423        0.447      336.081        7.142      861.624
01/27/2015  05:36:00       10.862       37.467       85.380       36.399       66.490       36.112     1324.903     4420.855     1304.101        0.793        0.352       39.010       41.235        1.117      336.071        7.128      861.670
01/27/2015  05:37:00       85.944      -62.484       25.049       66.742       65.280       51.096     4454.429     4261.460     2610.764        1.162        0.566      106.257       40.104        0.142      336.024        7.047      861.714
01/27/2015  05:38:00       97.143     -109.706       18.188       63.849       73.509       45.411     4076.678     5403.548     2062.168        1.667        0.577      146.534       44.022        0.090      335.977        6.969      861.751
01/27/2015  05:39:00       94.453      -89.867       -0.827       79.505       55.435       39.296     6321.060     3073.092     1544.186        1.397        0.547      130.374       27.071        0.043      335.937        6.901      861.770
01/27/2015  05:40:00       48.206      -65.541       17.749       41.537       56.059       36.812     1725.299     3142.575     1355.157        0.658        0.311       81.360       36.444        0.201      335.966        6.950      861.768
01/27/2015  05:41:00       52.874       -7.681       16.596       63.749       38.777       33.933     4063.962     1503.654     1151.477        0.492        0.336       53.429       26.635        0.249      335.952        6.928      861.773
01/27/2015  05:42:00       44.075       21.636       23.141       32.426       32.818       27.673     1051.463     1077.036      765.816        0.292        0.145       49.099       20.146        0.168      335.954        6.932      861.773
01/27/2015  05:43:00       77.090       49.174       53.615       51.924       58.134       37.901     2696.061     3379.540     1436.456        0.937        0.376       91.438       33.965        0.138      335.915        6.867      861.762
01/27/2015  05:44:00       77.808       59.109        3.820       39.435       37.606       25.965     1555.117     1414.208      674.193        0.660        0.182       97.714       19.161        0.038      335.842        6.744      861.753
01/27/2015  05:45:00      -21.229       21.316       11.895       80.051       46.730       26.585     6408.176     2183.674      706.757        0.517        0.465       30.084       23.184        0.594      335.915        6.865      861.785
01/27/2015  05:46:00       10.990       29.868       23.040       54.098       23.148       27.669     2926.598      535.820      765.590        0.289        0.211       31.825       30.789        0.936      335.943        6.913      861.810
01/27/2015  05:47:00       99.903      106.395       79.996       58.419       32.078       37.684     3412.820     1028.999     1420.087        1.678        0.293      145.947       19.313        0.018      335.985        6.982      861.739
01/27/2015  05:48:00       -7.304       32.223       63.226       16.563       28.563       28.681      274.348      815.820      822.594        0.350        0.096       33.041       24.209        0.537      336.000        7.008      861.741
01/27/2015  05:49:00       40.167      117.321       -3.835       36.689       42.803       30.007     1346.076     1832.091      900.437        0.973        0.204      124.006       29.394        0.056      335.911        6.860      861.743
01/27/2015  05:50:00      134.914       97.570        2.381       52.756       40.534       37.560     2783.160     1642.998     1410.720        1.678        0.292      166.498       29.294        0.031      335.888        6.820      861.658
01/27/2015  05:51:00      139.350       75.521       24.491       62.522       41.389       41.164     3908.939     1713.088     1694.464        1.652        0.366      158.499       22.559        0.020      335.907        6.853      861.636
01/27/2015  05:52:00       -8.491       33.604       -4.257       25.501       34.213       21.002      650.311     1170.544      441.072        0.174        0.113       34.660       20.906        0.364      335.899        6.839      861.690
01/27/2015  05:53:00       44.256       90.873       -4.914       88.719       35.477       21.989     7871.110     1258.587      483.508        0.993        0.481      101.076       25.027        0.061      335.865        6.783      861.706
01/27/2015  05:54:00      120.278       72.751       42.692       49.761       51.416       42.379     2476.150     2643.648     1795.955        1.425        0.346      140.568       34.071        0.059      335.851        6.760      861.635
01/27/2015  05:55:00       89.959       30.213       21.073       38.690       29.350       24.316     1496.914      861.417      591.265        0.620        0.147       94.897       15.109        0.025      335.853        6.763      861.673
01/27/2015  05:56:00        9.748       13.734        6.170       62.536       18.931       20.932     3910.726      358.398      438.163        0.251        0.235       16.842       23.127        1.886      335.986        6.984      861.713
01/27/2015  05:57:00      -75.523       12.049       -7.585       41.273       37.759       18.823     1703.453     1425.747      354.312        0.469        0.174       76.478       18.305        0.057      336.046        7.085      861.766
01/27/2015  05:58:00       75.342       63.835        5.146       36.641       24.477       30.706     1342.542      599.116      942.870        0.633        0.144       98.749       13.328        0.018      335.986        6.986      861.710
01/27/2015  05:59:00       26.172       -8.582        7.553       67.017       62.747       28.353     4491.225     3937.232      803.908        0.502        0.462       27.543       26.391        0.918      336.032        7.061      861.718
01/27/2015  06:00:00        7.370      -18.059       16.147       38.005       60.282       35.625     1444.392     3633.905     1269.115        0.349        0.317       19.504       41.263        4.476      336.084        7.147      861.790
01/27/2015  06:01:00       61.397       98.185       73.568       58.772       42.859       38.072     3454.198     1836.908     1449.487        1.278        0.337      115.801       23.488        0.041      336.013        7.029      861.742
01/27/2015  06:02:00       33.728       38.614       39.954       48.924       52.214       35.536     2393.605     2726.316     1262.842        0.530        0.319       51.270       13.470        0.069      335.986        6.984      861.739
01/27/2015  06:03:00      111.714       62.654       36.913       67.842       45.225       46.984     4602.527     2045.276     2207.481        1.331        0.443      128.084       32.526        0.064      335.920        6.875      861.753
01/27/2015  06:04:00       35.704       19.214       55.867       55.098       56.434       29.319     3035.823     3184.842      859.617        0.592        0.354       40.545       34.426        0.721      335.958        6.939      861.790
01/27/2015  06:05:00       31.515      -38.861       11.640       35.710       42.978       24.974     1275.207     1847.146      623.702        0.319        0.187       50.034       28.558        0.326      336.085        7.149      861.830
01/27/2015  06:06:00       25.031      -66.836        4.758       55.861       49.536       28.567     3120.493     2453.807      816.071        0.575        0.320       71.369       26.340        0.136      336.185        7.317      861.858
01/27/2015  06:07:00       33.814        3.650       40.392       44.567       40.926       33.709     1986.230     1674.937     1136.296        0.379        0.240       34.010       20.551        0.365      336.058        7.103      861.875
01/27/2015  06:08:00       18.570       21.687       47.379       41.635       67.329       40.792     1733.484     4533.190     1663.947        0.549        0.397       28.551       46.321        2.632      336.036        7.068      861.882
01/27/2015  06:09:00       20.882        2.785       49.779       43.443       65.031       53.575     1887.326     4229.094     2870.274        0.595        0.449       21.067       54.812        6.769      336.009        7.022      861.903
01/27/2015  06:10:00       72.067      -51.754       10.507       60.197       62.987       41.320     3623.719     3967.336     1707.368        0.864        0.465       88.725       50.449        0.323      336.026        7.052      861.907
01/27/2015  06:11:00        2.073        9.785       59.150       28.309       57.053       30.883      801.415     3254.990      953.747        0.430        0.251       10.002       25.364        6.430      336.020        7.041      861.900
01/27/2015  06:12:00       52.512      -52.815       35.212       55.047       89.752       60.091     3030.211     8055.443     3610.895        1.074        0.735       74.478       68.711        0.851      335.962        6.945      861.904
01/27/2015  06:13:00       32.982      -46.512        7.167       42.089       38.811       41.770     1771.481     1506.306     1744.753        0.416        0.251       57.019       35.226        0.382      335.983        6.978      861.938
01/27/2015  06:14:00       -6.377      -17.828        4.661       22.874       25.578       13.003      523.202      654.251      169.089        0.086        0.067       18.934       11.609        0.376      336.142        7.243      861.978
01/27/2015  06:15:00       17.771       57.285       61.906       27.925       37.140       45.417      779.797     1379.351     2062.711        0.583        0.211       59.978       38.045        0.402      336.063        7.113      861.969
01/27/2015  06:16:00       18.217      -87.596        6.167       47.454       68.863       38.976     2251.929     4742.114     1519.113        0.828        0.426       89.470       41.951        0.220      336.117        7.201      861.986
01/27/2015  06:17:00       -7.160      -50.628       -4.852       48.504       36.598       35.432     2352.682     1339.421     1255.436        0.379        0.247       51.132       20.982        0.168      336.188        7.322      861.992
01/27/2015  06:18:00       42.758      -67.502        3.586       42.161       58.776       36.946     1777.555     3454.588     1365.002        0.650        0.330       79.905       44.699        0.313      336.183        7.313      861.980
01/27/2015  06:19:00       14.765      -47.266       -4.290       17.801       25.980       17.287      316.887      674.978      298.846        0.188        0.065       49.519       10.104        0.042      336.154        7.264      861.981
01/27/2015  06:20:00      -54.791      -34.533        3.081       43.081       33.754       19.817     1856.007     1139.331      392.720        0.380        0.169       64.766       17.593        0.074      336.131        7.226      862.004
01/27/2015  06:21:00      -75.574      -58.590        0.838       35.536       49.269       26.599     1262.828     2427.465      707.501        0.677        0.220       95.625       27.711        0.084      336.027        7.053      862.000
01/27/2015  06:22:00      -17.914      -27.573        3.439       37.971       24.969       20.485     1441.805      623.442      419.621        0.179        0.124       32.882       12.633        0.148      336.080        7.140      862.014
01/27/2015  06:23:00        5.915      -19.118        4.370       27.580       41.787       26.515      760.651     1746.132      703.045        0.181        0.160       20.012       25.789        1.661      336.110        7.191      862.026
01/27/2015  06:24:00       25.062     -103.565       -9.834       67.109       47.527       28.093     4503.655     2258.803      789.218        0.950        0.378      106.554       16.476        0.024      336.274        7.466      862.049
01/27/2015  06:25:00      -28.268      -34.390       -3.601       25.731       24.087       14.268      662.107      580.205      203.568        0.172        0.072       44.517        8.687        0.038      336.207        7.352      862.077
01/27/2015  06:26:00      -18.739        5.540       10.556       20.455       18.799       18.518      418.424      353.391      342.931        0.080        0.056       19.541       11.952        0.374      336.191        7.325      862.078
01/27/2015  06:27:00      -42.787      -17.076       -1.156       30.556       27.803       15.757      933.656      772.981      248.294        0.204        0.098       46.068       10.201        0.049      336.241        7.411      862.108
01/27/2015  06:28:00        9.278       -6.143        7.072       21.941       17.229       11.950      481.421      296.825      142.803        0.055        0.046       11.127       13.081        1.382      336.210        7.359      862.122
01/27/2015  06:29:00      -50.725      -55.429       -5.215       43.935       35.135       25.305     1930.243     1234.496      640.318        0.474        0.190       75.136       17.557        0.055      336.287        7.488      862.146
01/27/2015  06:30:00      -74.140      -57.863       -0.831       55.312       32.640       20.472     3059.463     1065.343      419.090        0.669        0.227       94.047       22.653        0.058      336.190        7.325      862.164
01/27/2015  06:31:00      -63.915      -77.399       -1.819       47.208       34.383       25.544     2228.613     1182.192      652.512        0.707        0.203      100.378       24.904        0.062      336.121        7.210      862.168
01/27/2015  06:32:00     -103.715      -31.978       -3.028       19.021       25.235       15.077      361.794      636.792      227.319        0.651        0.061      108.533       10.972        0.010      336.101        7.177      862.180
01/27/2015  06:33:00      -86.838      -30.811       -1.994       45.021       49.961       20.874     2026.853     2496.059      435.721        0.673        0.248       92.142       19.997        0.047      336.075        7.134      862.196
01/27/2015  06:34:00     -116.741      -13.786        3.480       46.232       46.978       24.782     2137.395     2206.929      614.160        0.939        0.248      117.552       27.665        0.055      335.999        7.006      862.202
01/27/2015  06:35:00     -125.571        2.672      -10.213       36.641       23.523       18.773     1342.578      553.345      352.426        0.906        0.112      125.599       18.250        0.021      335.989        6.990      862.206
01/27/2015  06:36:00     -100.944       19.427      -12.268       15.060       17.323       11.971      226.794      300.080      143.294        0.569        0.034      102.796       10.154        0.010      335.998        7.005      862.186
01/27/2015  06:37:00     -123.844       24.374      -12.352       39.440       24.893       18.018     1555.486      619.654      324.649        0.929        0.125      126.220       15.545        0.015      335.959        6.939      862.207
01/27/2015  06:38:00      -55.649       -6.075        0.486       41.631       21.815       16.519     1733.100      475.915      272.866        0.281        0.124       55.979       19.419        0.120      335.890        6.826      862.202
01/27/2015  06:39:00      -28.655       -7.207        4.178       37.187       14.755       14.610     1382.853      217.702      213.442        0.135        0.091       29.548       20.668        0.489      335.951        6.926      862.196
01/27/2015  06:40:00      -97.291       -4.734       -4.710       35.588       27.014       21.649     1266.532      729.747      468.662        0.599        0.123       97.406       19.568        0.040      335.882        6.811      862.225
01/27/2015  06:41:00      -42.766      -39.744       16.922       56.222       28.198       25.240     3160.923      795.152      637.069        0.414        0.230       58.382       24.446        0.175      335.999        7.006      862.256
01/27/2015  06:42:00      -30.091      -24.806       12.817       34.517       24.239       21.670     1191.404      587.535      469.574        0.197        0.112       38.997       24.235        0.386      336.006        7.019      862.249
01/27/2015  06:43:00      -80.275      -58.944        1.561       35.049       29.905       19.761     1228.410      894.339      390.512        0.622        0.126       99.592       18.361        0.034      335.973        6.962      862.268
01/27/2015  06:44:00      -37.781      -66.631        9.502       39.027       39.088       23.879     1523.106     1527.839      570.228        0.479        0.181       76.597       27.004        0.124      335.983        6.979      862.296
01/27/2015  06:45:00       10.080       13.438       44.751       27.095       37.137       20.142      734.148     1379.171      405.685        0.240        0.126       16.798       20.379        1.472      336.123        7.212      862.309
01/27/2015  06:46:00      -33.986      -33.217      -16.353       28.484       23.533       26.254      811.343      553.817      689.271        0.229        0.103       47.523       17.966        0.143      336.155        7.266      862.351
01/27/2015  06:47:00      -60.169      -25.745        2.961       31.544       26.811       17.543      995.034      718.839      307.745        0.316        0.101       65.446       15.605        0.057      336.158        7.271      862.401
01/27/2015  06:48:00      -42.454      -33.568        5.560       29.126       32.761       18.598      848.322     1073.296      345.886        0.261        0.113       54.122       16.766        0.096      336.134        7.231      862.428
01/27/2015  06:49:00      -43.827      -30.639       -3.179       15.434       20.165       11.582      238.223      406.632      134.148        0.182        0.039       53.475        7.948        0.022      336.057        7.100      862.433
01/27/2015  06:50:00      -65.391       -0.663       -2.015       31.766       26.457       14.811     1009.096      699.975      219.375        0.310        0.096       65.394       13.491        0.043      336.063        7.112      862.435
01/27/2015  06:51:00      -86.945        5.133       -3.578       37.294       23.186       14.933     1390.807      537.593      222.991        0.487        0.108       87.097       15.672        0.032      336.025        7.048      862.434
01/27/2015  06:52:00     -104.579       27.149       -6.952       39.712       18.547       14.101     1577.038      344.000      198.850        0.692        0.106      108.045       16.831        0.024      336.007        7.020      862.431
01/27/2015  06:53:00      -62.776       60.197       -7.100       23.702       33.875       18.254      561.806     1147.527      333.206        0.483        0.102       86.974       15.275        0.031      335.975        6.966      862.447
01/27/2015  06:54:00     -104.596       37.140      -10.636       57.351       27.124       18.261     3289.083      735.725      333.479        0.839        0.218      110.995       18.736        0.028      335.911        6.860      862.466
01/27/2015  06:55:00      -96.661       32.980      -15.722       28.340       29.238       19.450      803.152      854.857      378.305        0.636        0.102      102.132       10.278        0.010      335.915        6.865      862.485
01/27/2015  06:56:00      -86.548      -12.969      -15.148       29.991       37.048       16.878      899.490     1372.570      284.866        0.522        0.128       87.514       12.114        0.019      335.922        6.878      862.507
01/27/2015  06:57:00      -60.643      -10.957       -3.387       27.642       34.206       15.575      764.104     1170.017      242.576        0.299        0.109       61.625       12.872        0.044      335.959        6.939      862.522
01/27/2015  06:58:00      -44.082      -30.866        4.428       28.868       24.115       20.408      833.385      581.543      416.473        0.237        0.092       53.814        8.814        0.027      335.953        6.928      862.524
01/27/2015  06:59:00      -79.816      -34.372       -8.608       23.505       24.771       11.373      552.498      613.593      129.355        0.446        0.065       86.903        7.871        0.008      336.000        7.007      862.515
01/27/2015  07:00:00      -44.655      -25.352        0.732       22.016       21.764       11.341      484.724      473.655      128.608        0.186        0.054       51.350        9.091        0.031      336.039        7.074      862.516
01/27/2015  07:01:00      -42.910      -13.867        2.642       16.126       11.396        9.582      260.044      129.870       91.817        0.126        0.024       45.095        9.282        0.042      336.114        7.199      862.508
01/27/2015  07:02:00       -6.376      -23.408       10.466       28.546       10.633       13.276      814.864      113.053      176.254        0.090        0.055       24.261       11.600        0.229      336.198        7.339      862.507
01/27/2015  07:03:00      -65.290      -29.109        1.532       49.750       29.515       18.321     2475.026      871.140      335.653        0.440        0.184       71.485       20.632        0.083      336.096        7.168      862.527
01/27/2015  07:04:00     -152.131      -61.212       -2.538       74.508       40.840       26.195     5551.451     1667.878      686.172        1.740        0.395      163.984       34.761        0.045      336.046        7.083      862.551
01/27/2015  07:05:00     -120.571      -13.707      -10.477       34.680       23.715       19.776     1202.731      562.385      391.087        0.850        0.108      121.348        7.608        0.004      336.067        7.119      862.573
01/27/2015  07:06:00      -69.972      -44.179       -0.472       43.095       29.737       22.742     1857.187      884.270      517.201        0.505        0.163       82.751       21.926        0.070      336.123        7.212      862.578
01/27/2015  07:07:00      -68.677      -37.822       -2.876       39.199       30.070       19.739     1536.526      904.234      389.637        0.449        0.142       78.402       14.495        0.034      336.184        7.315      862.589
01/27/2015  07:08:00      -59.451      -22.940       -1.681       47.634       25.318       22.542     2269.032      641.012      508.152        0.374        0.171       63.723       18.087        0.081      336.152        7.261      862.595
01/27/2015  07:09:00      -83.212      -58.221        5.228       50.226       46.122       24.694     2522.698     2127.231      609.773        0.780        0.263      101.557       26.312        0.067      336.208        7.355      862.626
01/27/2015  07:10:00     -154.563      -41.295       -7.289       45.105       37.195       21.622     2034.443     1383.433      467.492        1.477        0.194      159.984       21.903        0.019      336.155        7.268      862.656
01/27/2015  07:11:00     -165.853      -10.427      -10.482       47.034       41.780       34.072     2212.170     1745.562     1160.883        1.642        0.256      166.181       27.323        0.027      336.120        7.208      862.698
01/27/2015  07:12:00     -126.144      -30.967       -0.519       55.722       50.695       28.191     3104.955     2569.978      794.747        1.167        0.323      129.889       31.187        0.058      336.125        7.216      862.726
01/27/2015  07:13:00     -109.670      -37.837        3.786       51.267       34.195       22.927     2628.343     1169.299      525.669        0.890        0.216      116.013       26.618        0.053      336.180        7.309      862.735
01/27/2015  07:14:00      -82.466      -38.517       -0.570       39.131       30.792       14.393     1531.203      948.157      207.161        0.549        0.134       91.018       15.051        0.027      336.209        7.357      862.725
01/27/2015  07:15:00      -72.443      -38.450        0.634       31.837       17.933       14.095     1013.622      321.588      198.669        0.413        0.077       82.014       14.731        0.032      336.242        7.410      862.703
01/27/2015  07:16:00     -157.488      -81.008      -11.512       46.668       29.522       21.650     2177.863      871.527      468.716        1.751        0.176      177.101       18.267        0.011      336.106        7.184      862.702
01/27/2015  07:17:00     -126.660      -14.044        1.888       65.360       36.694       31.765     4271.971     1346.440     1009.001        1.143        0.331      127.437       37.729        0.088      335.979        6.973      862.711
01/27/2015  07:18:00     -120.288      -44.880        2.026       55.950       38.642       25.679     3130.405     1493.214      659.436        1.088        0.264      128.388       19.778        0.024      336.256        7.436      862.720
01/27/2015  07:19:00      -64.617      -74.232        0.597       35.108       34.576       22.503     1232.586     1195.474      506.392        0.631        0.147       98.416       19.752        0.040      336.571        7.963      862.743
01/27/2015  07:20:00      -89.851     -135.029       -5.194       20.113       29.401       19.772      404.531      864.410      390.936        1.400        0.083      162.191       13.315        0.007      337.239        9.078      862.770
01/27/2015  07:21:00     -108.018      -62.527        1.442       40.143       41.638       19.754     1611.451     1733.713      390.236        0.966        0.187      124.810       21.414        0.029      337.127        8.892      862.815
01/27/2015  07:22:00      -75.211      -57.597       -2.939       37.547       26.932       17.576     1409.781      725.311      308.903        0.571        0.122       94.732       15.292        0.026      337.219        9.047      862.849
01/27/2015  07:23:00     -128.011      -63.215       -4.027       36.595       29.154       17.469     1339.191      849.971      305.175        1.145        0.125      142.769       14.213        0.010      337.066        8.790      862.897
01/27/2015  07:24:00     -106.168      -23.308        1.679       47.797       30.465       21.089     2284.524      928.096      444.751        0.774        0.183      108.696       23.339        0.046      336.619        8.042      862.950
01/27/2015  07:25:00      -57.264      -12.344        6.794       29.510       23.600       16.024      870.819      556.938      256.776        0.258        0.084       58.580       13.608        0.054      336.501        7.845      862.979
01/27/2015  07:26:00      -56.423      -33.788       -1.944       19.764       11.472        8.349      390.603      131.603       69.714        0.246        0.030       65.766        7.245        0.012      336.743        8.252      862.997
01/27/2015  07:27:00      -78.871      -51.502       -0.285       14.997       18.650       12.929      224.913      347.827      167.163        0.481        0.037       94.197        6.036        0.004      336.765        8.286      863.019
01/27/2015  07:28:00      -57.436      -48.607        2.084       39.603       37.912       14.436     1568.425     1437.328      208.412        0.444        0.161       75.243       16.499        0.048      336.954        8.604      863.039
01/27/2015  07:29:00      -84.539      -94.947       -1.541       56.112       43.844       22.637     3148.511     1922.259      512.429        1.087        0.279      127.129       26.210        0.043      337.434        9.404      863.059
01/27/2015  07:30:00     -123.408      -37.341       -4.613       49.358       30.386       15.643     2436.233      923.304      244.710        1.012        0.180      128.933       14.257        0.012      336.877        8.474      863.108
01/27/2015  07:31:00      -80.600       -8.160       -0.238       38.313       41.203       14.709     1467.866     1697.697      216.364        0.497        0.169       81.012       20.032        0.061      336.739        8.243      863.129
01/27/2015  07:32:00     -119.176       40.968      -22.306       29.227       71.601       20.213      854.233     5126.702      408.551        1.138        0.319      126.021       27.953        0.049      337.148        8.928      863.156
01/27/2015  07:33:00     -151.680      -25.343        0.476       48.418       42.764       30.754     2344.256     1828.786      945.838        1.438        0.256      153.783       24.055        0.024      337.183        8.985      863.167
01/27/2015  07:34:00     -105.927      -97.121        1.287       42.615       48.110       25.771     1815.998     2314.611      664.157        1.272        0.240      143.711       23.364        0.026      337.072        8.798      863.211
01/27/2015  07:35:00     -126.931      -81.188        3.271       58.131       44.794       32.899     3379.253     2006.481     1082.342        1.459        0.323      150.675       34.753        0.053      337.429        9.397      863.231
01/27/2015  07:36:00     -120.719       10.559       -1.173       50.994       65.937       26.211     2600.343     4347.726      687.010        1.116        0.382      121.180       22.021        0.033      337.279        9.146      863.253
01/27/2015  07:37:00      -84.697       75.649      -14.903       40.187       32.160       22.010     1614.975     1034.273      484.444        0.813        0.157      113.562       11.307        0.010      337.188        8.993      863.287
01/27/2015  07:38:00      -62.116        0.150      -13.325       38.656       40.566       19.178     1494.273     1645.597      367.779        0.377        0.175       62.116       18.593        0.090      337.150        8.930      863.298
01/27/2015  07:39:00      -99.287      -29.167       -6.586       44.459       38.464       22.517     1976.566     1479.457      507.031        0.736        0.198      103.483       25.660        0.061      337.384        9.322      863.309
01/27/2015  07:40:00     -131.714      -16.708       -6.059       54.731       26.993       23.061     2995.521      728.616      531.802        1.096        0.213      132.769       23.335        0.031      337.421        9.383      863.317
01/27/2015  07:41:00     -134.894      -43.166       -7.913       47.779       39.047       24.381     2282.792     1524.692      594.434        1.226        0.220      141.632       21.315        0.023      337.460        9.447      863.332
01/27/2015  07:42:00     -134.818      -49.084       -3.859       74.018       51.882       26.837     5478.707     2691.786      720.205        1.474        0.445      143.476       33.055        0.053      337.493        9.502      863.344
01/27/2015  07:43:00     -204.146      -62.542       -6.997       71.055       61.572       35.758     5048.750     3791.064     1278.655        2.788        0.506      213.512       25.737        0.015      337.759        9.948      863.362
01/27/2015  07:44:00     -215.384      -50.955       -3.177       71.713       64.592       41.289     5142.760     4172.126     1704.816        3.001        0.551      221.329       37.344        0.028      337.628        9.727      863.409
01/27/2015  07:45:00     -211.867      -67.348       -5.706      106.444       85.960       48.756    11330.247     7389.160     2377.119        3.527        1.055      222.314       45.040        0.041      337.757        9.944      863.439
01/27/2015  07:46:00     -178.421      -41.288      -11.727       81.805       75.649       47.099     6692.104     5722.846     2218.297        2.415        0.732      183.136       48.148        0.069      337.798       10.013      863.472
01/27/2015  07:47:00     -313.375     -112.171       -1.761      101.584      102.730       54.032    10319.315    10553.503     2919.433        6.729        1.190      332.846       54.512        0.027      337.927       10.227      863.512
01/27/2015  07:48:00     -315.109     -108.939       -7.075      204.067      128.573       84.406    41643.464    16530.938     7124.326        8.824        3.265      333.408       99.953        0.090      337.863       10.123      863.543
01/27/2015  07:49:00     -392.579       13.785      -17.713      138.856      132.589       64.170    19281.008    17579.887     4117.789        9.779        2.049      392.821       61.736        0.025      337.921       10.218      863.557
01/27/2015  07:50:00     -403.462      -59.969      -31.425      154.506      127.567       63.190    23872.072    16273.369     3992.940       10.574        2.207      407.894       68.195        0.028      337.926       10.226      863.566
01/27/2015  07:51:00     -457.575      -30.173      -17.545      220.451      167.356       90.935    48598.710    28008.004     8269.179       14.772        4.244      458.569      102.041        0.050      337.720        9.881      863.583
01/27/2015  07:52:00     -410.168     -112.641      -14.209      175.304      145.366       77.109    30731.437    21131.378     5945.804       11.946        2.890      425.353       87.427        0.042      337.638        9.745      863.622
01/27/2015  07:53:00     -319.375      -81.631      -13.321      146.413      128.771       70.235    21436.740    16582.039     4932.949        7.589        2.148      329.642       68.491        0.043      337.681        9.816      863.624
01/27/2015  07:54:00     -414.314     -107.744       -6.734      163.255      140.780       76.326    26652.097    19818.946     5825.585       11.779        2.615      428.095       76.704        0.032      337.667        9.793      863.633
01/27/2015  07:55:00     -336.651     -119.152      -10.453      135.200      117.529       66.751    18278.936    13813.100     4455.684        8.209        1.827      357.115       53.271        0.022      337.608        9.693      863.687
01/27/2015  07:56:00     -378.459     -114.038      -26.937      163.740       91.514       55.904    26810.792     8374.806     3125.292        9.763        1.916      395.267       62.326        0.025      337.505        9.521      863.724
01/27/2015  07:57:00     -437.969      -92.698      -23.160      179.467      142.476       74.449    32208.437    20299.383     5542.684       12.949        2.903      447.671       80.379        0.032      337.480        9.478      863.760
01/27/2015  07:58:00     -344.198     -128.165       -8.654      139.402      112.987       72.176    19432.805    12765.961     5209.434        8.618        1.870      367.286       73.162        0.040      337.432        9.399      863.811
01/27/2015  07:59:00     -320.074     -129.870       -7.131      169.053      121.551       67.555    28578.938    14774.602     4563.686        8.363        2.396      345.418       80.484        0.054      337.393        9.334      863.836
01/27/2015  08:00:00     -182.458      -69.573       13.024      147.147      144.501       70.176    21652.362    20880.558     4924.621        4.287        2.373      195.272       71.343        0.133      337.351        9.264      863.830
01/27/2015  08:01:00     -196.594      -26.260        3.693       85.026       87.816       52.125     7229.398     7711.616     2716.979        2.850        0.883      198.340       54.535        0.076      337.255        9.104      863.847
01/27/2015  08:02:00     -120.206      -42.723       -2.777       76.535       63.833       31.273     5857.604     4074.663      977.979        1.359        0.546      127.573       34.138        0.072      337.191        8.999      863.847
01/27/2015  08:03:00     -183.540     -184.875       -4.970      133.951      104.393       69.223    17942.977    10898.003     4791.857        5.076        1.682      260.511       79.291        0.093      337.272        9.132      863.852
01/27/2015  08:04:00     -119.176      -92.171       12.764      153.601      123.154       71.741    23593.127    15166.985     5146.735        3.338        2.195      150.660       79.902        0.281      337.275        9.138      863.844
01/27/2015  08:05:00       22.321      -30.564       63.921       80.784       84.883       51.273     6526.057     7205.203     2628.936        1.094        0.818       37.847       43.118        1.298      337.174        8.970      863.815
01/27/2015  08:06:00     -233.009       -6.091       -1.970      124.840      102.111       61.787    15585.131    10426.738     3817.692        4.208        1.491      233.088       63.246        0.074      337.171        8.962      863.840
01/27/2015  08:07:00     -142.683      -67.132       13.379      163.938       90.671       51.073    26875.505     8221.289     2608.454        3.137        1.885      157.686       68.759        0.190      337.170        8.962      863.859
01/27/2015  08:08:00     -360.564     -194.812       -1.353      163.502      127.235       70.297    26732.889    16188.843     4941.714       10.790        2.393      409.827       79.996        0.038      337.305        9.187      863.863
01/27/2015  08:09:00     -228.007     -236.698        9.352      180.374      152.953       96.884    32534.770    23394.622     9386.428        8.670        3.266      328.654      110.776        0.114      337.421        9.381      863.859
01/27/2015  08:10:00     -263.935      -79.863       -8.002      118.948       93.369       51.867    14148.569     8717.747     2690.191        5.083        1.278      275.753       54.601        0.039      337.329        9.226      863.874
01/27/2015  08:11:00     -238.606     -133.303       -3.136      110.886      123.394       63.781    12295.621    15226.092     4067.980        5.315        1.579      273.318       69.824        0.065      337.272        9.131      863.917
01/27/2015  08:12:00     -186.731      -47.367       -1.765      121.851      101.821       49.984    14847.772    10367.436     2498.374        3.241        1.386      192.645       52.629        0.075      337.136        8.903      863.964
01/27/2015  08:13:00     -202.012     -143.985       -5.825      112.277       97.567       49.591    12606.187     9519.318     2459.246        4.308        1.229      248.074       55.184        0.049      337.089        8.823      863.982
01/27/2015  08:14:00     -149.247      -24.472      -10.432       89.927       52.844       35.592     8086.823     2792.485     1266.804        1.756        0.607      151.240       43.859        0.084      336.944        8.585      864.017
01/27/2015  08:15:00     -172.223      -29.523        0.070       85.249       76.710       40.169     7267.438     5884.491     1613.562        2.265        0.738      174.735       33.830        0.037      336.831        8.395      864.028
01/27/2015  08:16:00     -157.708      -61.419       -1.592       74.628       69.092       39.950     5569.367     4773.732     1596.037        2.029        0.597      169.245       40.374        0.057      336.885        8.486      864.043
01/27/2015  08:17:00     -241.375        4.888      -19.493       82.249      111.436       41.120     6764.862    12418.003     1690.890        3.977        1.044      241.424       16.466        0.005      336.916        8.534      864.033
01/27/2015  08:18:00     -187.475      -88.589        1.669      106.115       99.179       49.744    11260.469     9836.467     2474.483        3.328        1.179      207.352       37.097        0.032      336.982        8.645      864.047
01/27/2015  08:19:00     -279.830      -54.048      -11.539      120.057       74.687       46.994    14413.732     5578.084     2208.421        5.178        1.110      285.002       58.985        0.043      336.929        8.556      864.029
01/27/2015  08:20:00     -191.587      -36.818        2.028       94.586       61.372       46.447     8946.585     3766.508     2157.288        2.647        0.744      195.092       43.858        0.051      336.922        8.547      864.009
01/27/2015  08:21:00     -213.309      -51.531       -4.074       83.248       72.375       46.097     6930.196     5238.195     2124.969        3.123        0.715      219.445       39.925        0.033      336.920        8.540      864.002
01/27/2015  08:22:00     -153.706      -45.422       -2.366       73.312       45.745       32.282     5374.581     2092.646     1042.108        1.710        0.425      160.277       35.156        0.048      336.866        8.455      864.007
01/27/2015  08:23:00     -199.729      -13.164      -16.497       81.590       49.693       35.299     6656.895     2469.347     1246.043        2.535        0.519      200.162       40.651        0.041      336.877        8.471      864.002
01/27/2015  08:24:00     -159.386      -41.739       -2.948       64.588       51.722       32.622     4171.585     2675.153     1064.225        1.753        0.396      164.760       35.792        0.047      336.853        8.432      863.988
01/27/2015  08:25:00     -166.365      -62.265       -8.586       56.457       59.280       29.537     3187.348     3514.152      872.436        1.960        0.379      177.636       28.444        0.026      336.856        8.437      864.003
01/27/2015  08:26:00     -104.547      -61.439       10.158       78.968       53.654       31.716     6235.891     2878.761     1005.883        1.246        0.506      121.263       43.850        0.131      336.860        8.444      864.013
01/27/2015  08:27:00     -160.572      -75.505       -6.258       67.716       62.867       28.458     4585.425     3952.282      809.849        2.043        0.467      177.439       33.320        0.035      336.858        8.440      864.017
01/27/2015  08:28:00     -219.561      -76.665      -17.790       47.424       33.613       26.848     2249.040     1129.830      720.817        2.925        0.205      232.561       23.977        0.011      336.838        8.405      864.039
01/27/2015  08:29:00     -160.783     -119.615       -3.576      108.094       72.998       55.404    11684.402     5328.658     3069.562        3.012        1.004      200.397       49.516        0.061      336.860        8.442      864.038
01/27/2015  08:30:00     -141.411      -91.719       -6.532       91.772       66.787       48.645     8422.167     4460.488     2366.341        2.185        0.762      168.551       57.326        0.116      336.836        8.403      864.041
01/27/2015  08:31:00     -250.685      -82.089       -5.176      123.995       69.908       48.868    15374.676     4887.194     2388.088        4.613        1.132      263.783       56.598        0.046      336.832        8.395      864.031
01/27/2015  08:32:00     -190.257      -50.484       -4.172      113.009       91.773       45.369    12771.017     8422.300     2058.383        3.100        1.163      196.841       51.277        0.068      336.800        8.343      864.027
01/27/2015  08:33:00     -290.820      -61.180      -14.865      123.161       98.373       66.376    15168.732     9677.311     4405.713        5.889        1.463      297.186       67.614        0.052      336.798        8.339      864.036
01/27/2015  08:34:00     -225.124      -77.035        1.688      147.533       81.636       46.932    21765.973     6664.430     2202.648        4.362        1.532      237.940       54.917        0.053      336.824        8.382      864.038
01/27/2015  08:35:00     -275.966      -62.215       -9.564       98.549       77.596       42.699     9711.915     6021.140     1823.164        4.883        0.878      282.892       46.668        0.027      336.806        8.351      864.041
01/27/2015  08:36:00     -146.425      -13.325      -10.727       76.452       59.674       35.717     5844.905     3561.044     1275.712        1.621        0.534      147.031       32.726        0.050      336.766        8.288      864.050
01/27/2015  08:37:00     -278.690       12.217      -14.869      101.375       93.593       47.323    10276.889     8759.570     2239.429        4.965        1.064      278.957       47.650        0.029      336.791        8.327      864.048
01/27/2015  08:38:00      -78.818        7.034       23.111       80.081       53.846       40.683     6412.920     2899.348     1655.127        0.888        0.548       79.131       44.176        0.312      336.801        8.347      864.034
01/27/2015  08:39:00     -166.672        6.510       -3.259      138.167       61.339       45.308    19090.014     3762.436     2052.827        2.636        1.245      166.799       57.383        0.118      336.800        8.345      864.036
01/27/2015  08:40:00     -142.070      -10.346        4.900      123.678       76.103       47.409    15296.167     5791.667     2247.626        2.182        1.167      142.447       55.320        0.151      336.825        8.384      864.042
01/27/2015  08:41:00      -60.676       27.916       10.867       66.357       42.099       44.971     4403.196     1772.321     2022.409        0.639        0.410       66.790       25.501        0.146      336.803        8.350      864.042
01/27/2015  08:42:00     -149.372        0.829       -2.405       83.253       69.248       44.094     6931.071     4795.343     1944.268        1.799        0.684      149.374       40.015        0.072      336.814        8.366      864.036
01/27/2015  08:43:00     -246.790      -40.377      -13.793       83.869       82.631       51.516     7033.983     6827.834     2653.933        3.962        0.826      250.071       49.752        0.040      336.802        8.343      864.049
01/27/2015  08:44:00     -185.172      -64.674        2.200      104.271       87.904       51.171    10872.530     7727.110     2618.455        2.984        1.061      196.141       52.265        0.071      336.789        8.324      864.049
01/27/2015  08:45:00     -275.400      -22.294       -9.579      113.997       73.700       49.831    12995.258     5431.756     2483.139        4.867        1.046      276.301       57.866        0.044      336.775        8.299      864.047
01/27/2015  08:46:00     -194.531      -54.161       -4.072      119.904       86.063       52.129    14376.958     7406.780     2717.390        3.264        1.225      201.930       60.013        0.088      336.775        8.302      864.039
01/27/2015  08:47:00     -332.539      -42.532      -10.442       95.886       98.868       65.516     9194.209     9774.843     4292.341        6.788        1.163      335.248       57.687        0.030      336.775        8.300      864.031
01/27/2015  08:48:00     -147.159       -9.056       10.759      132.104      107.339       68.987    17451.407    11521.603     4759.222        2.779        1.687      147.437       78.916        0.286      336.784        8.317      864.012
01/27/2015  08:49:00     -350.269      -75.174       -9.294      184.891       99.280       66.193    34184.522     9856.460     4381.540        8.842        2.421      358.245       81.911        0.052      336.773        8.297      864.016
01/27/2015  08:50:00     -454.393      -42.656      -35.764      145.288       89.568       63.360    21108.486     8022.352     4014.485       12.135        1.657      456.391       69.032        0.023      336.799        8.339      864.001
01/27/2015  08:51:00     -168.905        9.505       -7.991      108.260       82.457       55.506    11720.267     6799.107     3080.971        2.514        1.080      169.172       56.871        0.113      336.790        8.325      864.013
01/27/2015  08:52:00     -350.510      -40.355      -15.664      208.138      122.748       76.145    43321.615    15067.065     5798.006        9.445        3.209      352.825       89.712        0.065      336.833        8.397      864.016
01/27/2015  08:53:00     -437.153      -85.009      -15.201      176.668      145.510       81.308    31211.468    21173.126     6611.048       12.877        2.950      445.342       91.913        0.043      336.827        8.387      864.016
01/27/2015  08:54:00     -437.587      -95.599      -12.617      157.334      152.450       81.066    24754.017    23240.853     6571.750       12.766        2.728      447.908       84.609        0.036      336.841        8.409      864.026
01/27/2015  08:55:00     -273.268      -27.564       -1.189      150.815      134.739       68.753    22745.176    18154.718     4726.967        6.052        2.281      274.655       75.959        0.076      336.843        8.413      864.027
01/27/2015  08:56:00     -295.554      -13.526      -14.598      140.902      120.869       61.283    19853.408    14609.226     3755.648        6.298        1.911      295.864       67.987        0.053      336.835        8.401      864.043
01/27/2015  08:57:00     -339.048     -103.461       -9.246      135.624      141.538       61.621    18393.736    20032.962     3797.176        8.398        2.111      354.482       55.782        0.025      336.857        8.437      864.044
01/27/2015  08:58:00     -463.019      -25.308      -26.021      138.447      136.255       82.615    19167.640    18565.429     6825.276       13.012        2.228      463.710       69.147        0.022      336.865        8.450      864.068
01/27/2015  08:59:00     -272.963     -123.942        4.327      212.350      131.442       87.552    45092.493    17276.911     7665.388        7.995        3.502      299.784      100.688        0.113      336.872        8.463      864.059
01/27/2015  09:00:00     -387.711      -98.564      -19.519      124.554      111.197       70.508    15513.637    12364.695     4971.337        9.663        1.642      400.043       53.513        0.018      336.855        8.433      864.067
01/27/2015  09:01:00     -389.811      -81.785      -18.393      198.316      137.081       72.040    39329.138    18791.258     5189.828       11.113        3.166      398.299       87.812        0.049      336.880        8.476      864.070
01/27/2015  09:02:00     -387.929     -155.414       -7.096      169.123      137.528       72.197    28602.549    18913.881     5212.437       11.370        2.636      417.902       83.769        0.040      336.890        8.492      864.077
01/27/2015  09:03:00     -387.142      -87.112      -11.361      197.632      128.907       87.486    39058.507    16617.079     7653.790       11.045        3.166      396.821       97.989        0.061      336.924        8.549      864.073
01/27/2015  09:04:00     -370.905       -8.597      -18.403      196.375      162.881       70.236    38562.959    26530.107     4933.156       10.399        3.501      371.005       88.326        0.057      336.989        8.657      864.072
01/27/2015  09:05:00     -312.627      -68.454       -1.338      145.806      142.870       82.440    21259.355    20411.695     6796.428        7.544        2.423      320.034       77.476        0.059      336.992        8.663      864.079
01/27/2015  09:06:00     -263.549      -11.310       18.154      201.558      125.571       87.320    40625.546    15768.150     7624.808        6.696        3.201      263.792      105.527        0.160      337.013        8.699      864.087
01/27/2015  09:07:00     -411.061      -79.281      -28.524      146.843      123.410       71.556    21562.993    15230.117     5120.268       10.898        2.096      418.637       62.482        0.022      337.028        8.721      864.096
01/27/2015  09:08:00     -343.017      -31.133      -27.799      166.024      132.707       68.648    27564.073    17611.143     4712.545        8.464        2.494      344.427       68.940        0.040      337.021        8.710      864.110
01/27/2015  09:09:00     -557.688     -198.759      -34.833      229.901      178.622       93.475    52854.283    31905.772     8737.531       22.260        4.675      592.048       82.980        0.020      337.054        8.765      864.081
01/27/2015  09:10:00     -258.462      -68.182        4.971      128.611      119.752       69.125    16540.683    14340.545     4778.243        5.356        1.783      267.304       74.439        0.078      337.023        8.714      864.088
01/27/2015  09:11:00     -556.387      -26.149      -34.237      274.566      209.947      110.683    75386.260    44077.536    12250.733       22.155        6.586      557.001      140.211        0.063      337.041        8.742      864.086
01/27/2015  09:12:00     -513.717     -141.177      -20.493      219.023      153.425       89.439    47971.195    23539.167     7999.271       18.187        3.975      532.763      100.374        0.035      337.042        8.745      864.081
01/27/2015  09:13:00     -487.888     -155.916        9.254      250.000      177.987       86.697    62499.832    31679.218     7516.445       18.205        5.085      512.196       90.342        0.031      337.053        8.764      864.078
01/27/2015  09:14:00     -472.011     -137.653       -5.579      206.957      164.623       91.419    42831.362    27100.649     8357.461       16.002        3.914      491.673      107.633        0.048      337.057        8.770      864.098
01/27/2015  09:15:00     -295.815      -67.008       -7.795      185.207      129.102       80.325    34301.637    16667.432     6452.141        7.473        2.871      303.309       91.900        0.092      337.028        8.722      864.143
01/27/2015  09:16:00     -503.488       70.042      -42.559      208.077      150.132       84.437    43296.172    22539.540     7129.688       16.658        3.648      508.336       92.224        0.033      337.043        8.747      864.178
01/27/2015  09:17:00     -475.103     -160.788        4.337      230.162      165.512       89.050    52974.406    27394.266     7929.904       16.993        4.415      501.574      105.190        0.044      337.038        8.738      864.173
01/27/2015  09:18:00     -439.963     -186.883      -23.415      201.733      162.754       89.760    40696.352    26488.758     8056.886       15.213        3.762      478.009       91.118        0.036      337.059        8.775      864.193
01/27/2015  09:19:00     -582.361      -36.293      -54.572      239.754      154.410       95.435    57482.099    23842.440     9107.871       21.692        4.522      583.490      108.856        0.035      337.068        8.790      864.227
01/27/2015  09:20:00     -447.193     -146.453      -31.129      195.697      157.971       91.531    38297.161    24954.797     8377.851       14.700        3.581      470.563      105.214        0.050      337.060        8.776      864.226
01/27/2015  09:21:00     -379.843     -161.781      -21.329      170.689      175.781       72.771    29134.603    30899.053     5295.688       11.811        3.266      412.860       53.280        0.017      337.052        8.762      864.256
01/27/2015  09:22:00     -337.573      -65.190       -8.190      183.750      133.270       80.993    33763.894    17760.869     6559.837        8.817        2.904      343.810       82.243        0.057      337.043        8.748      864.289
01/27/2015  09:23:00     -391.360      -87.914      -15.892      255.967      200.569      126.870    65518.954    40227.816    16095.921       14.147        6.092      401.112      132.295        0.109      337.058        8.772      864.305
01/27/2015  09:24:00     -504.630      -75.215      -14.512      240.402      157.832       87.515    57793.231    24911.061     7658.864       17.543        4.518      510.205      109.688        0.046      337.049        8.758      864.323
01/27/2015  09:25:00     -434.359      -79.736       -9.173      242.803      228.329      112.776    58953.266    52133.939    12718.441       15.944        6.190      441.617      136.398        0.095      337.063        8.780      864.338
01/27/2015  09:26:00     -202.863      -59.379        2.789      237.605      181.750       86.921    56456.113    33033.005     7555.317        7.085        4.852      211.375       63.018        0.089      337.084        8.815      864.315
01/27/2015  09:27:00     -390.160      -93.594      -14.995      246.281      174.991       92.472    60654.459    30621.897     8551.125       13.050        4.991      401.229      100.538        0.063      337.065        8.785      864.364
01/27/2015  09:28:00     -344.855     -179.526        0.323      241.692      184.779      101.632    58414.984    34143.446    10329.072       12.700        5.144      388.786      116.765        0.090      337.035        8.734      864.393
01/27/2015  09:29:00     -393.055      -69.392      -26.757      188.023      154.198       86.792    35352.722    23777.068     7532.806       11.333        3.333      399.133       97.606        0.060      337.037        8.737      864.417
01/27/2015  09:30:00     -290.640     -123.459        1.393      191.528      138.871       80.639    36682.825    19285.127     6502.628        8.108        3.124      315.774       80.169        0.064      337.023        8.713      864.466
01/27/2015  09:31:00     -417.503      -90.728      -25.564      201.570      147.426      102.654    40630.360    21734.476    10537.814       12.804        3.645      427.247      103.245        0.058      337.008        8.688      864.468
01/27/2015  09:32:00     -290.943      -92.710       -0.979      223.696      209.703       94.186    50039.679    43975.278     8870.994        9.805        5.144      305.357       98.332        0.104      336.998        8.671      864.496
01/27/2015  09:33:00     -427.459     -158.201      -19.648      188.106      228.845       94.262    35384.027    52369.909     8885.398       15.237        4.832      455.795       98.286        0.046      336.972        8.628      864.480
01/27/2015  09:34:00     -436.787      -60.342      -12.173      236.587      184.061      102.458    55973.308    33878.411    10497.672       14.744        5.017      440.935      117.632        0.071      336.952        8.594      864.518
01/27/2015  09:35:00     -590.755     -100.442      -18.064      242.086      194.262      103.136    58605.791    37737.774    10637.100       23.318        5.349      599.233      117.117        0.038      336.938        8.572      864.523
01/27/2015  09:36:00     -471.602      -82.566      -11.279      211.687      170.065       95.737    44811.196    28922.270     9165.510       15.611        4.145      478.775       86.375        0.033      336.969        8.622      864.553
01/27/2015  09:37:00     -306.449     -107.952       -7.953      209.782      133.834       94.280    44008.447    17911.557     8888.694        8.821        3.540      324.907       97.056        0.089      336.966        8.617      864.582
01/27/2015  09:38:00     -410.535     -255.837      -13.793      270.310      203.108      119.226    73067.635    41253.046    14214.869       18.134        6.427      483.727      132.073        0.075      336.930        8.558      864.583
01/27/2015  09:39:00     -323.060     -189.206       -9.074      220.111      151.552       78.378    48448.792    22968.152     6143.134       10.889        3.878      374.388       97.509        0.068      336.902        8.511      864.620
01/27/2015  09:40:00     -468.458     -218.498      -14.606      237.613      155.334       80.234    56459.707    24128.563     6437.478       17.720        4.351      516.909      100.750        0.038      336.895        8.499      864.654
01/27/2015  09:41:00     -350.318     -292.522       -3.461      200.515      123.249       74.719    40206.460    15190.365     5582.906       13.463        3.049      456.390       76.339        0.028      336.893        8.498      864.724
01/27/2015  09:42:00     -319.149     -229.972        6.077      222.982      144.701       96.418    49721.010    20938.412     9296.414       11.735        3.998      393.374      113.885        0.084      336.899        8.507      864.768
01/27/2015  09:43:00     -240.161     -171.521       -4.140      157.977      117.556       79.912    24956.862    13819.388     6385.852        6.613        2.258      295.122       86.574        0.086      336.892        8.496      864.800
01/27/2015  09:44:00     -269.748     -257.403       -7.097      171.261      143.489       86.395    29330.290    20589.181     7464.154        9.822        2.869      372.855       97.500        0.068      336.892        8.495      864.830
01/27/2015  09:45:00     -274.247     -238.756      -10.117      150.352      137.775       67.542    22605.770    18981.825     4561.888        8.923        2.307      363.615       83.180        0.052      336.900        8.510      864.852
01/27/2015  09:46:00     -249.262     -115.434        4.984      128.081       97.627       61.541    16404.822     9531.001     3787.325        5.260        1.486      274.693       69.520        0.064      336.867        8.453      864.880
01/27/2015  09:47:00      -73.658      -68.138       36.282      129.162       74.096       44.905    16682.840     5490.268     2016.469        1.778        1.209      100.341       53.811        0.288      336.887        8.488      864.898
01/27/2015  09:48:00     -239.646     -118.407      -11.928      111.715      108.155       51.312    12480.328    11697.426     2632.905        4.920        1.341      267.302       48.642        0.033      336.853        8.431      864.889
01/27/2015  09:49:00     -283.071     -219.531      -11.232      135.512      123.407       69.583    18363.532    15229.308     4841.753        8.344        1.922      358.222       60.818        0.029      336.837        8.403      864.873
01/27/2015  09:50:00     -294.727     -170.530      -14.273      167.940      138.996       76.464    28203.777    19319.831     5846.721        8.475        2.669      340.506       68.347        0.040      336.811        8.360      864.874
01/27/2015  09:51:00     -167.676     -144.410        3.709      127.751       93.367       60.571    16320.340     8717.460     3668.791        3.884        1.435      221.291       70.289        0.101      336.851        8.426      864.898
01/27/2015  09:52:00     -121.146     -210.169       -4.275      105.400      141.909       58.098    11109.216    20138.135     3375.434        4.674        1.731      242.585       44.979        0.034      336.878        8.473      864.926
01/27/2015  09:53:00     -187.774     -119.655        3.468       88.595       89.792       52.141     7849.095     8062.540     2718.648        3.411        0.932      222.658       47.472        0.045      336.742        8.245      864.967
01/27/2015  09:54:00     -223.360     -107.437      -14.393       50.055       40.418       23.324     2505.464     1633.595      544.004        3.316        0.234      247.856       21.641        0.008      336.675        8.134      865.008
01/27/2015  09:55:00      -43.595      -32.540       14.569       69.246       46.430       27.792     4794.939     2155.740      772.405        0.545        0.386       54.400       41.816        0.591      336.717        8.207      864.989
01/27/2015  09:56:00      -24.125       27.079       27.852       28.523       40.146       22.811      813.538     1611.678      520.358        0.252        0.147       36.267       13.706        0.143      336.818        8.376      864.988
01/27/2015  09:57:00       14.958      -82.231       -5.334       67.362       65.158       36.124     4537.574     4245.568     1304.946        0.855        0.504       83.581       30.942        0.137      336.729        8.227      865.032
01/27/2015  09:58:00     -139.820     -106.092        4.940       89.166       55.540       49.343     7950.626     3084.657     2434.712        2.215        0.673      175.514       48.810        0.077      336.693        8.166      865.075
01/27/2015  09:59:00     -126.388      -91.173        9.412       86.427       63.242       33.709     7469.576     3999.513     1136.323        1.849        0.630      155.841       44.921        0.083      336.699        8.177      865.092
01/27/2015  10:00:00      -93.573      -98.417        2.017       58.915       48.751       28.691     3470.924     2376.660      823.179        1.256        0.334      135.801       28.399        0.044      336.640        8.078      865.092
01/27/2015  10:01:00      -71.486     -119.744       -6.521       38.387       32.054       19.248     1473.533     1027.428      370.489        1.118        0.144      139.459       13.824        0.010      336.652        8.097      865.093
01/27/2015  10:02:00      -32.598      -24.905        2.721       42.033       29.551       18.430     1766.762      873.275      339.679        0.233        0.149       41.023       17.066        0.173      336.711        8.197      865.088
01/27/2015  10:03:00      -62.668      -66.261        1.844       79.699       65.045       32.101     6352.007     4230.905     1030.470        0.997        0.581       91.202       42.092        0.213      336.720        8.210      865.098
01/27/2015  10:04:00     -223.713     -189.517       -7.192       91.768       86.011       62.883     8421.347     7397.877     3954.319        5.289        0.989      293.196       61.006        0.043      336.565        7.949      865.171
01/27/2015  10:05:00     -226.547     -162.186       -5.966      106.506       66.387       44.103    11343.432     4407.221     1945.040        4.768        0.885      278.618       53.196        0.036      336.509        7.856      865.200
01/27/2015  10:06:00      -86.781     -111.230        7.413       81.329       69.527       37.689     6614.395     4834.043     1420.434        1.641        0.643      141.079       27.575        0.038      336.559        7.943      865.213
01/27/2015  10:07:00       -9.751     -101.399       10.496      106.583       76.293       40.885    11359.949     5820.599     1671.597        1.467        0.943      101.867       36.457        0.128      336.753        8.267      865.172
01/27/2015  10:08:00       38.825        0.318       74.664       55.889       88.678       65.748     3123.607     7863.834     4322.811        1.119        0.766       38.826       60.526        2.430      336.599        8.010      865.101
01/27/2015  10:09:00       23.742      -32.551       39.940       37.571       92.109       55.437     1411.603     8484.027     3073.220        0.809        0.648       40.290       61.694        2.345      336.604        8.019      865.110
01/27/2015  10:10:00       44.286      -58.476       13.304       65.980       46.244       33.355     4353.351     2138.474     1112.554        0.658        0.380       73.353       19.046        0.067      336.682        8.149      865.179
01/27/2015  10:11:00     -123.760      -53.105       -1.138       38.167       55.083       25.716     1456.756     3034.096      661.318        1.164        0.258      134.672       14.519        0.012      336.666        8.123      865.225
01/27/2015  10:12:00      -41.929       -9.348       12.950       51.661       36.315       19.606     2668.885     1318.809      384.395        0.319        0.219       42.958       21.256        0.245      336.661        8.114      865.215
01/27/2015  10:13:00       11.350       21.698       24.370       17.249       18.225       12.321      297.533      332.134      151.804        0.099        0.039       24.487        9.637        0.155      336.724        8.217      865.202
01/27/2015  10:14:00        6.541       24.464       21.781       32.371       22.253       19.924     1047.902      495.204      396.984        0.153        0.097       25.323       21.454        0.718      336.744        8.251      865.210
01/27/2015  10:15:00      -10.247      -17.138        8.672       32.398       19.737       18.237     1049.598      389.539      332.584        0.112        0.089       19.968       14.268        0.511      336.821        8.380      865.216
01/27/2015  10:16:00      -53.253      -47.383       -1.712       30.097       27.196       22.827      905.805      739.642      521.050        0.362        0.108       71.281       14.440        0.041      336.789        8.327      865.215
01/27/2015  10:17:00      -23.707      -57.977        1.132       37.124       40.656       32.585     1378.177     1652.893     1061.755        0.401        0.205       62.637       23.544        0.141      336.824        8.386      865.228
01/27/2015  10:18:00     -120.533      -91.700       -4.243       64.651       57.371       33.926     4179.785     3291.391     1150.995        1.579        0.431      151.450       31.368        0.043      336.629        8.058      865.250
01/27/2015  10:19:00     -175.745     -144.592      -13.747       47.656       51.344       33.421     2271.123     2636.236     1116.936        2.900        0.301      227.581       25.635        0.013      336.552        7.929      865.253
01/27/2015  10:20:00     -141.227      -87.066        2.100       55.706       56.474       32.171     3103.156     3189.367     1034.966        1.743        0.366      165.909       33.359        0.040      336.549        7.924      865.257
01/27/2015  10:21:00     -124.190      -92.533        2.252       66.815       62.310       32.590     4464.293     3882.548     1062.096        1.670        0.470      154.873       28.106        0.033      336.570        7.961      865.290
01/27/2015  10:22:00     -115.460     -147.237       -6.360       68.119       47.836       40.298     4640.139     2288.275     1623.894        2.180        0.428      187.108       33.649        0.032      336.595        8.001      865.281
01/27/2015  10:23:00      -33.067      -55.592        6.341       40.734       38.490       29.213     1659.251     1481.449      853.409        0.411        0.200       64.683       23.188        0.129      336.653        8.101      865.224
01/27/2015  10:24:00      -62.210      -64.208        6.597       58.636       40.940       32.572     3438.127     1676.104     1060.920        0.710        0.309       89.402       29.530        0.109      336.743        8.250      865.218
01/27/2015  10:25:00      -16.524      -33.859       20.740       46.134       37.687       29.112     2128.355     1420.322      847.494        0.312        0.220       37.676       30.165        0.641      336.755        8.270      865.219
01/27/2015  10:26:00      -85.826      -59.075        6.774       53.301       40.033       26.775     2840.980     1602.610      716.878        0.803        0.258      104.192       25.943        0.062      336.670        8.129      865.241
01/27/2015  10:27:00      -93.420     -131.566       -5.066       52.016       41.669       25.159     2705.660     1736.315      632.978        1.557        0.254      161.360       14.567        0.008      336.593        8.000      865.235
01/27/2015  10:28:00      -67.946     -153.170        1.451       38.368       70.672       25.913     1472.098     4994.560      671.488        1.761        0.357      167.564       35.654        0.045      336.610        8.027      865.223
01/27/2015  10:29:00      -95.571      -96.761       -8.428       61.610       48.352       31.794     3795.792     2337.887     1010.882        1.285        0.357      136.002       23.954        0.031      336.678        8.141      865.243
01/27/2015  10:30:00     -122.876      -37.372       13.693       69.114       41.500       27.786     4776.715     1722.277      772.034        1.198        0.364      128.433       21.765        0.029      336.648        8.091      865.287
01/27/2015  10:31:00      -80.870     -145.770        3.576       59.030       69.271       32.763     3484.553     4798.428     1073.417        1.858        0.468      166.700       20.839        0.016      336.779        8.309      865.266
01/27/2015  10:32:00      -20.281      -70.075       -2.403       34.137       55.204       30.629     1165.313     3047.449      938.145        0.524        0.258       72.951       29.200        0.160      336.877        8.473      865.224
01/27/2015  10:33:00       -8.204       -6.181       34.002       31.678       35.733       20.682     1003.473     1276.858      427.755        0.198        0.135       10.272       16.658        2.630      336.840        8.411      865.191
01/27/2015  10:34:00      -93.262       -7.064       13.129       62.034       58.031       37.017     3848.213     3367.586     1370.283        0.875        0.429       93.529       31.179        0.111      336.741        8.248      865.192
01/27/2015  10:35:00     -179.571     -107.731        2.413       69.069       61.417       35.785     4770.515     3772.099     1280.550        2.684        0.491      209.408       30.974        0.022      336.661        8.111      865.249
01/27/2015  10:36:00      -49.416      -75.395        0.210       63.437       61.400       34.650     4024.190     3769.944     1200.589        0.856        0.450       90.146       29.145        0.105      336.683        8.150      865.250
01/27/2015  10:37:00      -52.426     -123.243       -5.464       32.970       38.890       23.531     1087.050     1512.414      553.729        1.056        0.158      133.930       18.188        0.018      336.683        8.151      865.230
01/27/2015  10:38:00      -76.376      -96.817       -8.287       40.997       35.391       25.490     1680.725     1252.533      649.717        0.943        0.179      123.317       19.146        0.024      336.692        8.164      865.200
01/27/2015  10:39:00     -141.979      -88.393      -13.351       53.609       42.909       29.861     2873.930     1841.219      891.664        1.688        0.280      167.246       22.799        0.019      336.683        8.150      865.231
01/27/2015  10:40:00     -110.776      -60.022        4.785       78.635       46.687       30.460     6183.418     2179.636      927.830        1.259        0.465      125.992       33.458        0.071      336.726        8.221      865.249
01/27/2015  10:41:00      -43.784     -119.674        4.592       52.400       69.515       24.213     2745.724     4832.338      586.256        1.221        0.408      127.431       21.825        0.029      336.740        8.245      865.248
01/27/2015  10:42:00     -137.920      -58.032      -14.889       74.869       43.465       36.163     5605.371     1889.182     1307.729        1.571        0.440      149.632       32.785        0.048      336.679        8.144      865.182
01/27/2015  10:43:00        9.868       -5.469        5.746       35.117       55.776       22.944     1233.191     3110.910      526.426        0.251        0.244       11.282       23.329        4.276      336.826        8.388      865.169
01/27/2015  10:44:00      -30.006      -13.339        2.481       32.646       30.015       19.609     1065.764      900.893      384.525        0.172        0.118       32.837       15.739        0.230      336.877        8.474      865.182
01/27/2015  10:45:00     -112.744      -51.291       -1.603       95.073       55.164       42.570     9038.873     3043.080     1812.206        1.462        0.695      123.862       46.552        0.141      336.836        8.404      865.187
01/27/2015  10:46:00     -336.529      -75.979      -28.000       88.629      140.249       50.409     7855.042    19669.850     2541.113        7.493        1.503      344.999       37.140        0.012      336.823        8.380      865.225
01/27/2015  10:47:00     -215.595     -147.394       -1.277      150.157      121.947       77.124    22547.213    14871.028     5948.153        5.578        2.168      261.163       84.076        0.104      336.933        8.564      865.187
01/27/2015  10:48:00     -320.492     -123.141       -7.915      166.869      132.823       77.352    27845.429    17642.047     5983.348        8.470        2.574      343.335       85.608        0.062      336.953        8.597      865.155
01/27/2015  10:49:00     -259.500      -80.256        6.371      167.177      139.209       78.893    27948.093    19379.176     6224.048        6.368        2.678      271.627       94.022        0.120      336.997        8.671      865.156
01/27/2015  10:50:00     -291.215      -93.305      -12.195      144.251      123.256       72.602    20808.270    15192.145     5270.982        6.746        2.064      305.798       80.239        0.069      336.988        8.654      865.176
01/27/2015  10:51:00     -326.914     -178.057       -9.492      144.915      128.454       72.265    21000.420    16500.535     5222.194        9.069        2.136      372.259       84.905        0.052      336.967        8.622      865.179
01/27/2015  10:52:00     -269.334      -77.122       -7.451      181.352      110.596       61.120    32888.490    12231.396     3735.673        6.369        2.443      280.159       77.838        0.077      336.987        8.653      865.198
01/27/2015  10:53:00     -218.628     -113.971        3.204      172.476      149.395       60.305    29748.080    22318.946     3636.681        5.824        2.785      246.552       72.843        0.087      337.002        8.678      865.181
01/27/2015  10:54:00     -150.030      -59.151        7.484      102.459      105.616       52.881    10497.928    11154.768     2796.396        2.525        1.222      161.269       58.858        0.133      337.014        8.699      865.175
01/27/2015  10:55:00     -252.174     -123.736      -17.397      144.419       94.133       58.114    20856.861     8860.957     3377.294        5.614        1.655      280.895       71.330        0.064      337.028        8.722      865.169
01/27/2015  10:56:00     -267.063     -179.177       -8.354      130.909       93.175       60.976    17137.166     8681.491     3718.091        6.651        1.477      321.601       59.010        0.034      337.031        8.727      865.197
01/27/2015  10:57:00     -144.571     -146.571       -7.733       96.136      107.301       46.264     9242.105    11513.440     2140.327        3.267        1.145      205.873       47.779        0.054      337.047        8.755      865.174
01/27/2015  10:58:00     -101.826     -106.466       11.674       87.721       65.650       54.087     7695.054     4309.922     2925.365        1.838        0.747      147.322       48.887        0.110      337.108        8.858      865.142
01/27/2015  10:59:00     -182.372     -120.434        6.355       86.557       72.451       46.422     7492.073     5249.090     2155.037        3.135        0.745      218.550       52.367        0.057      336.983        8.647      865.143
01/27/2015  11:00:00     -180.411     -156.233       -9.335      103.247       81.715       49.094    10659.924     6677.373     2410.227        3.839        0.987      238.656       46.220        0.038      336.925        8.550      865.157
01/27/2015  11:01:00      -92.378     -151.989        9.618      118.723       93.702       55.542    14095.168     8779.975     3084.947        2.884        1.298      177.860       42.289        0.057      337.016        8.703      865.158
01/27/2015  11:02:00     -136.897     -135.553       17.914      154.468       94.194       58.709    23860.439     8872.541     3446.742        3.680        1.809      192.654       59.316        0.095      336.983        8.649      865.144
01/27/2015  11:03:00     -178.158      -98.280        0.021       81.513       59.032       40.216     6644.327     3484.823     1617.321        2.657        0.587      203.468       44.893        0.049      336.986        8.651      865.139
01/27/2015  11:04:00     -233.985     -176.804       -6.409      205.605      172.324       59.439    42273.246    29695.616     3533.046        8.076        3.775      293.272       60.750        0.043      337.018        8.705      865.094
01/27/2015  11:05:00     -454.037     -239.208      -25.762      192.368      167.418       86.441    37005.381    28028.676     7471.962       16.826        3.625      513.196       93.255        0.033      337.025        8.717      865.075
01/27/2015  11:06:00     -339.087      -84.773       -1.928      213.059      156.937       74.096    45393.995    24629.098     5490.175        9.883        3.776      349.523       83.981        0.058      337.064        8.782      865.065
01/27/2015  11:07:00     -312.896     -194.149        2.029      167.650       88.610       64.811    28106.430     7851.741     4200.495        8.787        2.008      368.236       75.171        0.042      337.089        8.823      865.043
01/27/2015  11:08:00     -323.569     -137.281       -7.444      106.215      138.456       64.259    11281.616    19169.947     4129.223        7.908        1.729      351.487       56.574        0.026      337.070        8.792      865.010
01/27/2015  11:09:00     -159.636      -40.303       -3.466      105.789      114.109       44.151    11191.389    13020.832     1949.307        2.664        1.308      164.645       44.938        0.074      337.103        8.848      864.984
01/27/2015  11:10:00     -178.663     -132.641       -4.316      208.174      104.655       62.807    43336.230    10952.645     3944.725        5.387        2.912      222.517       29.808        0.018      337.106        8.853      864.943
01/27/2015  11:11:00     -279.599     -167.959       -4.510      169.784      145.472       76.122    28826.751    21162.165     5794.600        8.109        2.789      326.169       90.256        0.077      337.102        8.845      864.950
01/27/2015  11:12:00     -458.468     -135.822      -40.482      262.278      140.983       82.709    68789.656    19876.268     6840.832       16.288        4.775      478.164       89.588        0.035      337.076        8.802      864.943
01/27/2015  11:13:00     -355.265      -97.898      -12.472      173.935      109.915       72.589    30253.334    12081.272     5269.234        9.177        2.380      368.507       67.155        0.033      337.114        8.866      864.915
01/27/2015  11:14:00     -229.899     -109.905        0.582      186.315      157.456       85.804    34713.418    24792.237     7362.345        6.589        3.343      254.819       95.457        0.140      337.135        8.902      864.898
01/27/2015  11:15:00     -169.088     -105.084       10.488      194.158      120.800       68.725    37697.372    14592.663     4723.145        4.837        2.851      199.081       78.580        0.156      337.157        8.939      864.883
01/27/2015  11:16:00     -246.495     -195.297       -5.654      174.774      109.311       77.491    30545.997    11948.944     6004.785        7.371        2.425      314.485       84.215        0.072      337.116        8.869      864.860
01/27/2015  11:17:00     -283.019     -123.687       -4.474      175.841      179.989       82.427    30920.075    32396.085     6794.282        8.275        3.506      308.866       90.937        0.087      337.116        8.871      864.857
01/27/2015  11:18:00     -212.363     -157.091       -3.961      168.962      129.972       85.065    28548.134    16892.719     7236.048        6.123        2.634      264.151       90.921        0.118      337.142        8.915      864.855
01/27/2015  11:19:00     -228.800     -135.827        9.388      229.904      166.621       92.939    52855.809    27762.652     8637.719        8.006        4.463      266.080      114.691        0.186      337.157        8.939      864.849
01/27/2015  11:20:00     -497.915     -113.914      -44.220      227.086      169.889       93.373    51568.231    28862.265     8718.515       17.599        4.457      510.779      103.844        0.041      337.103        8.847      864.862
01/27/2015  11:21:00     -229.169     -105.161        3.889      132.308      127.810       70.296    17505.464    16335.333     4941.459        5.118        1.939      252.146       73.781        0.086      337.169        8.959      864.875
01/27/2015  11:22:00     -322.926      -85.411       -9.033      156.022      127.456       76.709    24342.834    16245.152     5884.338        7.906        2.324      334.030       78.810        0.056      337.124        8.883      864.877
01/27/2015  11:23:00     -281.306      -25.041      -15.347      152.968      121.514       70.483    23399.152    14765.588     4967.866        6.156        2.157      282.419       68.011        0.058      337.146        8.920      864.850
01/27/2015  11:24:00     -190.951     -128.958       -0.678      239.766      150.226       81.749    57487.608    22567.892     6682.875        6.990        4.337      230.418       98.600        0.183      337.181        8.978      864.828
01/27/2015  11:25:00     -445.922       -7.731      -22.856      207.731      162.413       84.413    43152.203    26377.863     7125.541       13.803        3.833      445.989       91.133        0.042      337.141        8.912      864.806
01/27/2015  11:26:00     -320.312     -167.603      -19.307      232.787      139.138       82.416    54189.593    19359.483     6792.411       10.569        4.017      361.511       90.643        0.063      337.157        8.939      864.760
01/27/2015  11:27:00     -403.020     -256.550       -0.723      265.514      197.631      111.117    70497.880    39057.914    12346.880       17.505        6.095      477.748      133.344        0.078      337.168        8.958      864.707
01/27/2015  11:28:00     -385.707      -93.911       -7.198      187.121      208.738       88.525    35014.404    43571.496     7836.701       12.202        4.321      396.975       96.763        0.059      337.187        8.990      864.736
01/27/2015  11:29:00     -414.576     -146.755      -17.743      168.815      154.285       79.958    28498.382    23804.001     6393.231       12.620        2.935      439.784       79.213        0.032      337.184        8.984      864.757
01/27/2015  11:30:00     -314.403     -249.303        4.203      241.561      204.933      126.263    58351.649    41997.394    15942.435       13.864        5.815      401.249      132.933        0.110      337.206        9.021      864.736
01/27/2015  11:31:00     -242.921     -224.022       25.326      272.385      215.502      128.867    74193.432    46441.313    16606.690       12.352        6.862      330.449      130.055        0.155      337.183        8.984      864.686
01/27/2015  11:32:00     -439.673      -89.721      -29.885      195.954      158.026       81.264    38397.812    24972.147     6603.788       13.610        3.499      448.734       89.711        0.040      337.138        8.906      864.698
01/27/2015  11:33:00     -316.539     -119.822      -12.938      202.898      116.531       71.520    41167.598    13579.523     5115.052        8.728        2.993      338.459       70.926        0.044      337.212        9.032      864.691
01/27/2015  11:34:00     -271.905     -170.727        0.207      215.061      167.553      107.633    46251.438    28073.907    11584.873        9.448        4.296      321.060      116.932        0.133      337.166        8.953      864.671
01/27/2015  11:35:00     -438.891     -122.661      -14.579      267.707      194.228      102.263    71666.945    37724.349    10457.771       16.385        5.992      455.709      119.068        0.068      337.114        8.865      864.611
01/27/2015  11:36:00     -456.263     -228.369      -17.202      280.952      201.926      113.911    78933.821    40774.020    12975.655       19.663        6.634      510.224      131.341        0.066      337.060        8.776      864.575
01/27/2015  11:37:00     -383.730     -259.222      -14.602      246.154      194.615      105.590    60591.918    37874.830    11149.306       16.212        5.481      463.082      125.881        0.074      337.079        8.807      864.616
01/27/2015  11:38:00     -353.704     -199.282        0.429      196.319      190.235       97.243    38541.218    36189.282     9456.144       12.449        4.209      405.980      107.020        0.069      337.085        8.818      864.617
01/27/2015  11:39:00     -317.253     -165.091       -4.417      213.710      205.422       99.800    45672.034    42198.064     9960.052       11.286        4.892      357.638      113.659        0.101      337.117        8.871      864.606
01/27/2015  11:40:00     -504.207     -199.667      -14.702      250.877      167.699       91.349    62939.101    28122.979     8344.560       19.684        4.970      542.303       96.998        0.032      337.111        8.860      864.594
01/27/2015  11:41:00     -403.365     -169.807        0.842      273.053      201.097      123.603    74558.074    40440.035    15277.754       16.089        6.514      437.651      146.781        0.112      337.129        8.890      864.581
01/27/2015  11:42:00     -548.520     -275.383      -18.594      258.466      227.048      117.604    66804.640    51550.571    13830.798       25.460        6.609      613.767      115.895        0.036      337.104        8.848      864.610
01/27/2015  11:43:00     -670.284     -268.510      -42.772      299.231      228.578      116.913    89539.241    52247.907    13668.576       33.931        7.773      722.065      124.103        0.030      337.085        8.817      864.599
01/27/2015  11:44:00     -259.322     -107.882       13.401      209.539      145.663      108.996    43906.567    21217.594    11880.120        7.802        3.850      280.867      114.869        0.167      337.142        8.914      864.625
01/27/2015  11:45:00     -467.231      -79.001      -20.074      255.410      168.951       99.171    65234.453    28544.477     9834.980       16.426        5.181      473.863      126.825        0.072      337.118        8.874      864.623
01/27/2015  11:46:00     -365.440     -180.911      -24.899      213.393      237.748      118.625    45536.452    56524.156    14071.995       14.149        5.807      407.769      121.161        0.088      337.115        8.869      864.599
01/27/2015  11:47:00     -370.318      -46.415      -25.617      226.520      161.450       98.197    51311.463    26065.999     9642.558       11.347        4.351      373.215      116.247        0.097      337.138        8.907      864.643
01/27/2015  11:48:00     -299.392      -71.745      -15.060      148.873      121.297       74.176    22163.134    14712.979     5502.013        6.869        2.119      307.868       66.708        0.047      337.164        8.950      864.654
01/27/2015  11:49:00     -200.569      -99.571       -8.770      171.066      111.936       70.337    29263.407    12529.674     4947.243        4.847        2.337      223.924       91.105        0.166      337.224        9.053      864.656
01/27/2015  11:50:00     -417.286     -152.996      -19.720      156.175      138.560       64.833    24390.719    19198.766     4203.375       12.285        2.390      444.450       73.765        0.028      337.151        8.927      864.650
01/27/2015  11:51:00     -295.950      -96.803        4.998      166.059      170.281       99.398    27575.525    28995.585     9879.927        8.171        3.323      311.379       92.940        0.089      337.183        8.983      864.627
01/27/2015  11:52:00     -278.901     -136.345        8.800      236.956      183.732      109.210    56147.939    33757.420    11926.719        9.913        5.092      310.444      119.528        0.148      337.192        8.997      864.565
01/27/2015  11:53:00     -312.201      -95.303      -13.207      168.424      156.112       76.796    28366.751    24371.084     5897.655        8.267        2.932      326.423       86.007        0.069      337.191        8.996      864.587
01/27/2015  11:54:00     -193.696      -32.903       34.557      199.045      135.093       97.385    39618.825    18250.056     9483.867        5.356        3.368      196.471      110.121        0.314      337.253        9.102      864.549
01/27/2015  11:55:00     -416.128     -223.615        5.874      254.423      178.845      116.852    64731.221    31985.508    13654.442       16.677        5.519      472.405      140.755        0.089      337.139        8.907      864.503
01/27/2015  11:56:00     -323.905     -100.083       10.896      244.500      184.071       94.503    59780.424    33882.143     8930.881       10.880        5.130      339.014      120.011        0.125      337.154        8.934      864.478
01/27/2015  11:57:00     -335.903     -196.799      -12.584      193.706      150.017       87.469    37521.944    22505.092     7650.857       10.969        3.384      389.308      102.001        0.069      337.136        8.904      864.474
01/27/2015  11:58:00     -233.553     -133.023        1.249      232.362      160.040       90.100    53992.034    25612.750     8118.086        7.997        4.386      268.779       99.447        0.137      337.170        8.961      864.458
01/27/2015  11:59:00     -387.874     -235.616       -6.742      238.556      234.137      101.069    56909.139    54820.211    10214.981       16.396        6.097      453.830      114.968        0.064      337.138        8.906      864.458
01/27/2015  12:00:00     -452.067     -237.026      -11.421      254.241      186.032      103.764    64638.601    34607.849    10766.906       18.533        5.501      510.437      107.025        0.044      337.115        8.868      864.488
01/27/2015  12:01:00     -426.730     -153.945        7.417      258.458      235.194      103.839    66800.789    55316.367    10782.579       16.935        6.645      453.649      110.995        0.060      337.119        8.874      864.483
01/27/2015  12:02:00     -295.450     -135.963       -8.787      238.305      187.168       99.839    56789.208    35032.028     9967.922       10.380        5.089      325.233      108.146        0.111      337.133        8.898      864.475
01/27/2015  12:03:00     -331.691     -154.122      -17.037      307.314      182.261      106.132    94442.146    33218.990    11263.954       13.647        6.946      365.749      128.267        0.123      337.151        8.929      864.466
01/27/2015  12:04:00     -336.566     -164.440       -5.147      170.776      148.148       89.403    29164.543    21947.722     7992.969        9.971        2.955      374.589       86.769        0.054      337.184        8.985      864.478
01/27/2015  12:05:00     -253.980     -104.059        9.617      164.255      190.227       86.591    26979.757    36186.172     7498.047        7.303        3.533      274.471       75.289        0.075      337.192        8.998      864.492
01/27/2015  12:06:00     -382.138     -168.660      -10.549      220.507      169.195       82.537    48623.538    28627.083     6812.416       12.931        4.203      417.703      110.731        0.070      337.199        9.009      864.505
01/27/2015  12:07:00     -293.436     -124.034       -5.459      243.560      184.347       97.947    59321.373    33983.992     9593.520       10.219        5.145      318.574      114.131        0.128      337.238        9.075      864.506
01/27/2015  12:08:00     -209.666     -166.557       -3.972      160.192      148.978       85.312    25661.492    22194.393     7278.062        6.342        2.757      267.771       91.196        0.116      337.257        9.107      864.545
01/27/2015  12:09:00     -469.989      -90.974      -43.806      196.681      149.335       88.274    38683.538    22300.862     7792.342       14.992        3.439      478.713       95.162        0.040      337.166        8.954      864.590
01/27/2015  12:10:00     -240.631      -19.478        3.014      188.054      129.693       70.302    35364.296    16820.296     4942.364        5.770        2.856      241.418       88.973        0.136      337.242        9.083      864.592
01/27/2015  12:11:00     -475.011     -119.200      -52.807      230.579      141.340       88.006    53166.496    19977.121     7745.139       16.175        4.044      489.739       90.058        0.034      337.139        8.909      864.580
01/27/2015  12:12:00     -347.165     -233.708      -12.569      233.078      151.338       77.246    54325.287    22903.084     5966.954       12.923        4.160      418.501       87.089        0.043      337.192        8.999      864.548
01/27/2015  12:13:00     -337.785      -97.290      -10.534      175.174      145.248       74.679    30685.961    21097.056     5576.900        9.051        2.868      351.517       68.522        0.038      337.215        9.037      864.529
01/27/2015  12:14:00     -272.057     -132.965        0.048      194.214      152.665       78.891    37718.980    23306.691     6223.724        7.946        3.362      302.812       88.214        0.085      337.295        9.171      864.577
01/27/2015  12:15:00     -412.023     -172.992        2.671      211.625      167.678       86.081    44785.020    28115.820     7409.893       13.999        4.016      446.866       89.667        0.040      337.272        9.130      864.589
01/27/2015  12:16:00     -252.767     -107.250       -8.237      160.563      155.039       80.558    25780.547    24037.148     6489.632        6.587        2.815      274.579       95.360        0.121      337.355        9.271      864.640
01/27/2015  12:17:00     -363.640     -104.472      -11.495      207.626      129.981       69.294    43108.583    16895.147     4801.643       10.403        3.240      378.350       70.860        0.035      337.320        9.212      864.655
01/27/2015  12:18:00     -335.739      -82.111       -3.470      181.584      148.390       75.143    32972.683    22019.505     5646.531        9.005        3.032      345.634       78.774        0.052      337.295        9.170      864.652
01/27/2015  12:19:00     -296.954      -68.688      -17.675      219.376      166.785       89.813    48125.949    27817.135     8066.444        8.860        4.200      304.795       86.601        0.081      337.319        9.211      864.598
01/27/2015  12:20:00     -356.245     -143.001      -15.515      237.569      137.836       92.145    56439.210    18998.763     8490.662       11.575        4.196      383.875      119.636        0.097      337.313        9.199      864.616
01/27/2015  12:21:00     -478.890      -82.236      -27.214      156.747      150.373       88.472    24569.740    22612.137     7827.262       14.591        2.750      485.899       97.620        0.040      337.293        9.167      864.581
01/27/2015  12:22:00     -337.440      -24.232      -12.525      169.055      168.074       81.695    28579.453    28248.970     6673.993        8.905        3.175      338.309       71.925        0.045      337.355        9.270      864.578
01/27/2015  12:23:00     -488.539      -81.086      -25.855      176.067      203.910       84.782    30999.469    41579.345     7188.057       16.283        3.988      495.223       90.553        0.033      337.314        9.202      864.543
01/27/2015  12:24:00     -385.053     -148.930      -47.916      216.201      157.270      100.569    46742.723    24733.880    10114.167       12.715        4.080      412.851       71.186        0.030      337.360        9.279      864.498
01/27/2015  12:25:00     -340.331     -157.098       -7.316      221.309      166.940       97.441    48977.827    27868.947     9494.660       11.344        4.317      374.840      100.879        0.072      337.378        9.308      864.509
01/27/2015  12:26:00     -293.792     -175.398       16.486      241.180      186.040      105.701    58167.631    34610.993    11172.742       11.063        5.198      342.167      108.503        0.101      337.363        9.283      864.502
01/27/2015  12:27:00     -354.525     -174.622      -15.663      184.814      171.203       85.756    34156.143    29310.501     7354.141       11.361        3.541      395.197       83.071        0.044      337.350        9.263      864.535
01/27/2015  12:28:00     -123.278      -54.572        3.050      146.041      109.866       63.812    21327.951    12070.569     4071.935        2.782        1.874      134.817       63.709        0.223      337.488        9.495      864.554
01/27/2015  12:29:00     -270.845      -53.819       -2.750      160.169      130.425       65.608    25653.982    17010.608     4304.435        6.161        2.348      276.140       63.611        0.053      337.357        9.273      864.547
01/27/2015  12:30:00     -503.687     -174.868       -7.449      217.769      175.963       97.346    47423.452    30962.882     9476.161       18.608        4.393      533.179      106.437        0.040      337.284        9.152      864.498
01/27/2015  12:31:00     -276.535      -80.028       -1.797      163.583      158.938       74.053    26759.372    25261.335     5483.919        7.018        2.875      287.882       78.802        0.075      337.386        9.323      864.496
01/27/2015  12:32:00     -220.217      -19.430        3.435      188.684      123.782       71.286    35601.629    15322.050     5081.673        5.244        2.800      221.073       87.597        0.157      337.479        9.479      864.501
01/27/2015  12:33:00     -482.460      -62.787      -12.080      263.048      147.672      103.311    69194.439    21807.131    10673.166       16.925        5.084      486.528      102.476        0.044      337.406        9.356      864.500
01/27/2015  12:34:00     -355.135     -120.657      -11.015      169.920      153.442       80.523    28872.699    23544.380     6483.971        9.984        2.945      375.072       87.516        0.054      337.424        9.387      864.519
01/27/2015  12:35:00     -180.697      -74.817        6.545      167.378      160.044       69.421    28015.537    25614.095     4819.340        4.836        2.922      195.574       71.352        0.133      337.525        9.555      864.518
01/27/2015  12:36:00     -512.952       25.073      -48.171      167.611      139.342       77.484    28093.539    19416.144     6003.782       15.978        2.676      513.564       87.123        0.029      337.409        9.359      864.562
01/27/2015  12:37:00     -464.067     -131.700      -14.928      190.780      133.037       75.984    36397.181    17698.761     5773.510       14.639        2.993      482.393       80.905        0.028      337.409        9.360      864.562
01/27/2015  12:38:00     -381.442     -225.006      -20.131      203.274      138.807       88.887    41320.186    19267.311     7900.845       13.250        3.424      442.861       91.778        0.043      337.390        9.329      864.523
01/27/2015  12:39:00     -269.903     -152.277        6.325      194.358      147.544       82.597    37775.219    21769.179     6822.212        8.121        3.318      309.897       91.549        0.087      337.484        9.486      864.518
01/27/2015  12:40:00     -292.546     -237.886      -28.693      172.736      147.638       89.408    29837.612    21797.099     7993.749       10.130        2.981      377.059       90.919        0.058      337.449        9.427      864.535
01/27/2015  12:41:00     -535.072     -145.969      -37.626      270.446      229.758       95.039    73141.175    52788.894     9032.484       22.197        6.748      554.626      112.581        0.041      337.390        9.329      864.515
01/27/2015  12:42:00     -368.165      -72.185        2.236      212.455      139.451       90.819    45137.334    19446.458     8248.008       10.678        3.642      375.174      105.630        0.079      337.423        9.383      864.521
01/27/2015  12:43:00     -307.603      -46.607       -2.530      194.587      149.411       85.532    37864.019    22323.546     7315.807        8.214        3.375      311.113       93.228        0.090      337.456        9.439      864.526
01/27/2015  12:44:00     -381.726      -89.680      -22.743      214.412      201.836       89.330    45972.512    40737.731     7979.843       12.447        4.735      392.119       98.815        0.064      337.447        9.422      864.545
01/27/2015  12:45:00     -379.462     -241.670      -12.051      150.830      145.435       81.222    22749.581    21151.281     6597.087       12.651        2.525      449.885       88.728        0.039      337.445        9.421      864.548
01/27/2015  12:46:00     -215.106     -105.626       13.221      155.358      136.242       74.085    24135.955    18561.918     5488.514        5.289        2.409      239.640       78.459        0.107      337.517        9.542      864.546
01/27/2015  12:47:00     -229.063      -46.402        5.400      162.862      118.336       77.507    26524.133    14003.371     6007.378        5.059        2.327      233.716       82.419        0.124      337.543        9.585      864.548
01/27/2015  12:48:00     -235.624     -189.769       -4.505      178.565      156.867       89.343    31885.300    24607.325     7982.189        7.800        3.224      302.541       89.761        0.088      337.552        9.600      864.538
01/27/2015  12:49:00     -386.122     -279.361       -2.164      263.024      192.474      118.211    69181.752    37046.307    13973.901       17.365        6.010      476.584      138.706        0.085      337.517        9.541      864.487
01/27/2015  12:50:00     -315.995     -163.375      -14.235      185.359      168.561       91.275    34357.820    28412.754     8331.209        9.891        3.555      355.731       94.133        0.070      337.549        9.595      864.527
01/27/2015  12:51:00     -342.283     -241.817       -7.016      206.452      157.454       98.242    42622.385    24791.795     9651.541       12.636        3.853      419.086      105.832        0.064      337.521        9.548      864.511
01/27/2015  12:52:00     -206.434     -158.663        8.172      141.862      125.198       74.077    20124.743    15674.426     5487.423        5.456        2.064      260.364       68.672        0.070      337.619        9.713      864.496
01/27/2015  12:53:00     -273.386     -111.642       -9.556      186.348      129.377       60.246    34725.758    16738.482     3629.522        7.119        2.755      295.303       70.246        0.057      337.652        9.769      864.504
01/27/2015  12:54:00     -437.968     -228.711      -12.080      258.621      185.105      108.766    66884.755    34263.836    11829.960       17.861        5.649      494.090      132.771        0.072      337.613        9.701      864.495
01/27/2015  12:55:00     -455.895     -191.541      -26.272      201.178      165.804       98.378    40472.651    27490.996     9678.194       16.142        3.882      494.498       92.860        0.035      337.567        9.625      864.473
01/27/2015  12:56:00     -232.954     -100.865       -4.978      136.871      113.456       56.941    18733.784    12872.252     3242.330        4.965        1.742      253.853       52.963        0.044      337.683        9.819      864.485
01/27/2015  12:57:00     -417.343      -27.835      -25.657      279.378      145.669       96.751    78052.274    21219.322     9360.712       14.210        5.432      418.270      134.362        0.103      337.664        9.786      864.486
01/27/2015  12:58:00     -382.254     -152.297       -6.994      234.468      182.456      101.219    54975.461    33290.342    10245.222       13.392        4.926      411.476      122.649        0.089      337.585        9.654      864.460
01/27/2015  12:59:00     -348.483     -194.468      -25.942      190.052      151.620      101.271    36119.831    22988.513    10255.907       11.464        3.468      399.072      106.578        0.071      337.585        9.653      864.476
01/27/2015  13:00:00     -439.704     -250.943       -2.694      239.886      219.961      123.250    57545.333    48383.004    15190.517       18.870        6.056      506.273      126.528        0.062      337.560        9.613      864.493
01/27/2015  13:01:00     -454.027     -297.367      -24.480      251.005      207.940      118.628    63003.714    43239.017    14072.498       20.772        6.016      542.741      129.671        0.057      337.536        9.572      864.448
01/27/2015  13:02:00     -270.179     -176.098        0.928      216.856      144.173       94.530    47026.380    20785.755     8935.888        9.037        3.837      322.501       87.603        0.074      337.616        9.707      864.466
01/27/2015  13:03:00     -491.596     -175.670      -13.484      296.661      191.165      112.286    88007.505    36544.062    12608.042       20.491        6.858      522.041      152.127        0.085      337.573        9.636      864.465
01/27/2015  13:04:00     -462.874     -122.547      -18.180      249.090      208.797      105.488    62045.697    43596.180    11127.704       17.317        5.838      478.822      121.651        0.065      337.564        9.620      864.476
01/27/2015  13:05:00     -559.654     -157.268      -29.503      273.353      190.455       91.568    74721.665    36273.196     8384.670       22.908        5.969      581.331       87.004        0.022      337.546        9.589      864.452
01/27/2015  13:06:00     -453.322      -42.345      -12.563      244.443      160.923       98.332    59752.619    25896.229     9669.169       15.137        4.766      455.296      111.452        0.060      337.572        9.632      864.479
01/27/2015  13:07:00     -464.351     -133.691      -24.326      224.105      226.577       96.599    50223.265    51337.239     9331.388       17.247        5.545      483.213      112.078        0.054      337.609        9.696      864.471
01/27/2015  13:08:00     -436.591       -4.749      -19.977      203.303      195.890       96.403    41332.067    38372.998     9293.463       14.000        4.450      436.617       85.657        0.038      337.544        9.585      864.481
01/27/2015  13:09:00     -423.111      -51.294      -10.451      238.740      184.387       97.427    56996.991    33998.584     9492.037       14.111        5.024      426.209      124.315        0.085      337.589        9.662      864.455
01/27/2015  13:10:00     -292.006     -182.946      -22.031      204.074      180.090       99.133    41646.303    32432.389     9827.259       10.155        4.195      344.582       99.688        0.084      337.595        9.671      864.451
01/27/2015  13:11:00     -419.827     -237.380      -20.291      225.859      167.619      101.070    51012.076    28096.064    10215.213       16.115        4.466      482.290       96.792        0.040      337.549        9.594      864.445
01/27/2015  13:12:00     -386.945     -198.843        8.967      257.256      262.590      129.141    66180.470    68953.764    16677.435       17.055        7.591      435.046      145.742        0.112      337.543        9.586      864.414
01/27/2015  13:13:00     -522.600      -59.981      -33.219      211.129      185.486       92.118    44575.500    34405.192     8485.808       18.262        4.373      526.030       99.211        0.036      337.543        9.584      864.445
01/27/2015  13:14:00     -289.411     -141.410       -8.156      154.605      141.678       73.539    23902.625    20072.706     5407.997        7.659        2.469      322.111       81.855        0.065      337.655        9.772      864.453
01/27/2015  13:15:00     -344.265     -145.277      -12.516      239.287      175.292      102.753    57258.158    30727.122    10558.214       11.915        4.927      373.663      114.385        0.094      337.577        9.643      864.451
01/27/2015  13:16:00     -393.126     -103.569      -13.958      208.434      132.595       76.297    43444.666    17581.365     5821.265       11.615        3.342      406.539       94.854        0.054      337.602        9.683      864.451
01/27/2015  13:17:00     -257.253      -66.761       -6.891      198.206      135.155       92.281    39285.543    18266.757     8515.710        6.836        3.303      265.775       98.185        0.136      337.652        9.768      864.477
01/27/2015  13:18:00     -169.277     -145.430       18.591      206.454      169.955      102.169    42623.066    28884.823    10438.560        6.603        4.097      223.170      122.600        0.302      337.699        9.849      864.480
01/27/2015  13:19:00     -307.818     -116.666       -2.313      205.585      154.946       94.040    42265.290    24008.160     8843.458        9.173        3.756      329.185      101.036        0.094      337.610        9.698      864.507
01/27/2015  13:20:00     -355.874      -62.258       -5.103      246.449      157.210      106.375    60737.043    24714.867    11315.730       11.364        4.838      361.278      120.883        0.112      337.552        9.600      864.507
01/27/2015  13:21:00     -382.095     -133.250        3.020      229.474      181.340      110.235    52658.137    32884.125    12151.694       13.071        4.885      404.663      113.245        0.078      337.505        9.520      864.492
01/27/2015  13:22:00     -417.000     -134.639       -9.275      201.291      195.166       96.648    40517.954    38089.798     9340.923       14.001        4.397      438.197      112.437        0.066      337.503        9.518      864.510
01/27/2015  13:23:00     -438.789     -213.496      -23.130      229.911      177.931       95.675    52858.892    31659.384     9153.799       16.615        4.684      487.972      101.446        0.043      337.502        9.516      864.512
01/27/2015  13:24:00     -325.667      -54.068      -14.725      240.592      133.139       82.889    57884.393    17726.042     6870.663        9.583        4.124      330.125      106.368        0.104      337.577        9.642      864.493
01/27/2015  13:25:00     -415.321     -244.869      -21.563      236.125      191.575      101.219    55755.073    36701.031    10245.273       16.779        5.135      482.133      120.873        0.063      337.502        9.517      864.475
01/27/2015  13:26:00     -444.755     -259.849       -1.059      212.930      172.176      109.477    45339.206    29644.601    11985.171       17.613        4.348      515.101      117.860        0.052      337.525        9.554      864.478
01/27/2015  13:27:00     -441.712     -231.186      -13.623      212.539      176.387      103.366    45172.638    31112.281    10684.441       16.784        4.348      498.554      109.258        0.048      337.477        9.474      864.490
01/27/2015  13:28:00     -534.896     -348.855      -20.807      222.320      178.399      107.503    49426.246    31826.063    11556.904       25.051        4.640      638.603      115.741        0.033      337.392        9.332      864.493
01/27/2015  13:29:00     -250.684      -90.585       10.372      200.813      144.185       90.172    40325.722    20789.428     8130.992        7.019        3.462      266.549      104.495        0.154      337.480        9.479      864.502
01/27/2015  13:30:00     -282.875     -151.601       11.998      218.133      165.191      105.328    47581.792    27288.231    11094.031        9.454        4.298      320.938      115.074        0.129      337.505        9.521      864.507
01/27/2015  13:31:00     -460.031     -206.000      -31.590      238.046      163.649       91.754    56665.716    26781.145     8418.865       17.345        4.593      504.048       89.961        0.032      337.433        9.400      864.500
01/27/2015  13:32:00     -523.555     -192.355      -61.099      232.892      191.335       95.218    54238.495    36609.256     9066.447       20.736        4.996      557.772      106.529        0.036      337.439        9.410      864.499
01/27/2015  13:33:00     -531.831     -227.287      -30.337      190.310      148.499       97.423    36217.939    22052.040     9491.330       20.158        3.388      578.363       93.188        0.026      337.415        9.370      864.499
01/27/2015  13:34:00     -390.513     -128.559      -14.111      188.812      166.298       82.678    35649.853    27654.949     6835.652       11.967        3.507      411.130       77.919        0.036      337.451        9.430      864.509
01/27/2015  13:35:00     -484.461     -278.909      -20.904      232.531      175.917      115.092    54070.667    30946.681    13246.143       20.558        4.913      559.010      126.881        0.052      337.399        9.343      864.479
01/27/2015  13:36:00     -389.244     -164.378       -6.507      254.558      146.937       91.943    64799.819    21590.575     8453.434       13.669        4.742      422.530      122.429        0.084      337.433        9.401      864.502
01/27/2015  13:37:00     -342.296      -64.221       -7.760      154.555      147.126       84.851    23887.194    21646.121     7199.653        8.703        2.637      348.268       74.371        0.046      337.420        9.379      864.522
01/27/2015  13:38:00     -184.392     -126.936       11.318      145.161      108.484       68.579    21071.671    11768.805     4703.058        4.389        1.877      223.860       83.129        0.138      337.496        9.506      864.519
01/27/2015  13:39:00     -211.877     -149.299       10.321      175.717      155.866       87.149    30876.291    24294.261     7595.019        6.502        3.138      259.195       89.778        0.120      337.538        9.577      864.510
01/27/2015  13:40:00     -305.744      -19.786        6.228      154.737      119.253       82.873    23943.456    14221.164     6867.993        6.946        2.252      306.383       95.231        0.097      337.496        9.505      864.527
01/27/2015  13:41:00     -288.340      -90.419       -5.279      158.168      128.081       65.741    25017.027    16404.727     4321.911        6.854        2.287      302.185       68.102        0.051      337.505        9.521      864.540
01/27/2015  13:42:00     -245.541     -182.056       -4.944      156.838      144.245       73.462    24598.055    20806.493     5396.681        7.212        2.540      305.672       89.041        0.085      337.513        9.535      864.532
01/27/2015  13:43:00     -179.093      -44.291       19.010      141.838       79.424       57.300    20117.888     6308.118     3283.270        3.205        1.485      184.488       69.650        0.143      337.626        9.724      864.543
01/27/2015  13:44:00     -229.801      -26.641        1.709      142.128       97.857       62.661    20200.266     9576.033     3926.400        4.361        1.685      231.340       52.636        0.052      337.566        9.624      864.567
01/27/2015  13:45:00     -421.922       -5.636       -5.461      260.703      157.891       92.229    67965.917    24929.549     8506.277       13.972        5.070      421.960      119.407        0.080      337.454        9.435      864.552
01/27/2015  13:46:00     -355.412      -94.067      -26.583      208.433      120.609       90.747    43444.439    14546.550     8235.053       10.104        3.311      367.650      101.956        0.077      337.434        9.403      864.530
01/27/2015  13:47:00     -284.987     -202.407        2.300      169.787      174.447       89.331    28827.530    30431.865     7980.007        9.470        3.362      349.552       82.222        0.055      337.465        9.452      864.499
01/27/2015  13:48:00     -347.568     -159.919       -9.571      216.532      123.014       86.468    46886.219    15132.340     7476.711       10.797        3.475      382.594      103.159        0.073      337.476        9.471      864.494
01/27/2015  13:49:00     -509.571     -300.954      -36.715      220.196      199.061      110.259    48486.161    39625.275    12156.938       22.591        5.013      591.807      109.318        0.034      337.403        9.350      864.452
01/27/2015  13:50:00     -440.306     -170.337       -4.537      207.860      190.213       91.529    43205.763    36180.826     8377.470       15.532        4.388      472.106      101.830        0.047      337.398        9.342      864.456
01/27/2015  13:51:00     -216.038     -142.526       16.935      226.240      162.103       91.588    51184.541    26277.443     8388.407        7.655        4.293      258.816      116.270        0.202      337.468        9.460      864.458
01/27/2015  13:52:00     -271.919       12.778      -17.269       96.195      115.956       56.986     9253.406    13445.902     3247.370        5.017        1.297      272.219       50.714        0.035      337.487        9.491      864.465
01/27/2015  13:53:00     -326.059      -76.420      -13.360      158.926      113.068       61.640    25257.605    12784.387     3799.439        7.708        2.092      334.894       68.792        0.042      337.554        9.604      864.468
01/27/2015  13:54:00     -335.540      -29.511      -14.314      166.800      170.953       70.770    27822.354    29224.814     5008.458        8.785        3.103      336.836       67.289        0.040      337.540        9.579      864.481
01/27/2015  13:55:00     -327.583        0.046        4.274      215.554      140.207       79.042    46463.686    19657.897     6247.662        8.984        3.618      327.583       82.760        0.064      337.534        9.570      864.476
01/27/2015  13:56:00     -228.953      -51.775       -7.808      117.350      148.521       61.316    13771.114    22058.430     3759.592        4.737        1.979      234.735       56.796        0.059      337.606        9.690      864.488
01/27/2015  13:57:00     -154.164     -116.388       13.836      158.294      108.540       69.813    25057.079    11780.860     4873.841        3.960        2.086      193.165       71.982        0.139      337.602        9.685      864.496
01/27/2015  13:58:00     -347.106     -181.286      -11.574      241.873      163.454       88.557    58502.645    26717.269     7842.261       12.326        4.653      391.596       98.963        0.064      337.546        9.589      864.505
01/27/2015  13:59:00     -413.410     -198.674      -26.308      223.419      179.486       96.852    49915.992    32215.078     9380.320       15.128        4.576      458.671       78.566        0.029      337.519        9.545      864.497
01/27/2015  14:00:00     -426.431     -128.405      -12.762      271.388      170.687       88.798    73651.358    29134.183     7885.035       15.456        5.534      445.344      103.330        0.054      337.515        9.537      864.494
01/27/2015  14:01:00     -480.393     -138.060      -61.214      210.149      176.132       91.409    44162.654    31022.656     8355.679       16.855        4.177      499.838       97.567        0.038      337.499        9.510      864.516
01/27/2015  14:02:00     -316.182     -142.571      -15.979      167.463      162.145       86.239    28043.966    26291.056     7437.145        9.115        3.089      346.839       82.242        0.056      337.556        9.607      864.510
01/27/2015  14:03:00     -247.310     -147.845       19.471      223.226      164.679       94.999    49829.739    27119.108     9024.775        8.467        4.299      288.132      108.711        0.142      337.599        9.680      864.540
01/27/2015  14:04:00     -493.930     -128.270      -31.976      198.136      180.478      106.850    39257.852    32572.368    11416.882       17.233        4.162      510.314      101.985        0.040      337.545        9.586      864.554
01/27/2015  14:05:00     -341.145     -191.192        7.292      231.124      212.346      108.602    53418.489    45090.717    11794.463       13.163        5.515      391.069      107.150        0.075      337.541        9.581      864.547
01/27/2015  14:06:00     -406.225     -214.081      -30.536      237.760      191.168      100.496    56529.758    36545.138    10099.347       15.746        5.159      459.183      124.093        0.073      337.544        9.587      864.554
01/27/2015  14:07:00     -518.689      -54.463      -36.858      233.545      170.704      104.078    54543.349    29139.818    10832.205       18.392        4.726      521.540      118.705        0.052      337.515        9.539      864.583
01/27/2015  14:08:00     -355.893       24.470      -34.528      166.069      110.644       65.586    27579.027    12242.190     4301.497        8.628        2.206      356.734       61.830        0.030      337.588        9.660      864.613
01/27/2015  14:09:00     -124.465      -58.011       24.513      137.171      142.356       76.582    18815.923    20265.210     5864.779        3.219        2.247      137.320       84.983        0.383      337.714        9.873      864.610
01/27/2015  14:10:00     -178.161      -61.931        8.440      147.527      123.020       78.535    21764.108    15133.924     6167.703        3.935        2.153      188.618       86.973        0.213      337.709        9.863      864.616
01/27/2015  14:11:00     -192.785      -92.302       -0.405      131.107      126.688       62.746    17189.141    16049.910     3937.060        4.142        1.859      213.742       65.773        0.095      337.695        9.841      864.631
01/27/2015  14:12:00     -276.184      -58.070       -1.783      137.229      108.717       70.536    18831.792    11819.289     4975.287        5.763        1.781      282.223       82.723        0.086      337.672        9.801      864.644
01/27/2015  14:13:00     -280.174      -53.867        8.112      175.182      135.575       71.218    30688.651    18380.542     5072.031        6.779        2.707      285.305       76.083        0.071      337.717        9.878      864.630
01/27/2015  14:14:00     -373.185      -14.455      -33.102      196.859      153.271       77.521    38753.654    23491.956     6009.579       10.440        3.413      373.465       85.625        0.053      337.682        9.819      864.627
01/27/2015  14:15:00     -228.066     -136.482       -2.348      198.221      125.249       73.010    39291.385    15687.414     5330.450        6.547        3.015      265.785       73.581        0.077      337.681        9.817      864.639
01/27/2015  14:16:00      -75.894     -108.123       47.580      191.776      147.482      106.161    36778.091    21750.847    11270.055        4.474        3.490      132.100      118.769        0.808      337.721        9.886      864.631
01/27/2015  14:17:00     -240.390      -92.277        1.816      216.475      156.512       96.630    46861.374    24496.049     9337.385        7.349        4.035      257.492       85.693        0.111      337.712        9.869      864.656
01/27/2015  14:18:00     -399.872      -58.836      -24.027      200.965      123.069       88.344    40386.942    15146.017     7804.720       11.363        3.167      404.177      105.692        0.068      337.710        9.865      864.683
01/27/2015  14:19:00     -312.945      -37.476       -2.900      248.933      145.566       77.425    61967.692    21189.553     5994.639        9.423        4.458      315.181       95.152        0.091      337.738        9.913      864.695
01/27/2015  14:20:00     -343.854      -31.710      -17.700      163.670      110.194       76.528    26788.001    12142.618     5856.474        8.216        2.239      345.313       93.501        0.073      337.751        9.935      864.705
01/27/2015  14:21:00     -342.437     -158.955      -25.343      176.602      131.841       81.453    31188.227    17381.925     6634.662        9.918        2.760      377.531       65.764        0.030      337.745        9.924      864.718
01/27/2015  14:22:00     -461.190      -13.206      -37.741      147.786      141.079       78.067    21840.722    19903.292     6094.398       13.106        2.392      461.379       87.029        0.036      337.757        9.944      864.747
01/27/2015  14:23:00     -389.613      -46.003      -12.416      175.806      152.933       76.073    30907.750    23388.373     5787.039       10.707        3.004      392.320       82.505        0.044      337.779        9.981      864.774
01/27/2015  14:24:00     -254.217      -77.910       -6.134      137.862      145.287       75.451    19005.998    21108.221     5692.869        5.826        2.290      265.888       64.781        0.059      337.828       10.063      864.795
01/27/2015  14:25:00     -129.686      -10.866        6.692      120.366       78.521       52.635    14487.869     6165.579     2770.481        2.020        1.171      130.140       59.934        0.212      337.915       10.210      864.830
01/27/2015  14:26:00     -267.340      -87.925      -15.748      136.443       86.977       56.694    18616.627     7565.046     3214.191        5.442        1.470      281.427       65.783        0.055      337.845       10.091      864.846
01/27/2015  14:27:00     -317.974       89.490      -22.739      136.223       90.542       60.033    18556.770     8197.894     3603.924        6.999        1.518      330.327       62.628        0.036      337.843       10.087      864.851
01/27/2015  14:28:00     -361.996      -19.552      -32.676      155.067      161.675       59.374    24045.836    26138.681     3525.251        9.309        2.685      362.524       59.780        0.027      337.835       10.074      864.868
01/27/2015  14:29:00     -318.978      -51.711      -16.927      196.573       90.337       60.929    38640.940     8160.799     3712.400        7.760        2.526      323.143       78.249        0.059      337.801       10.016      864.874
01/27/2015  14:30:00     -281.635      -61.612      -19.571      113.649       84.624       46.736    12916.166     7161.277     2184.238        5.288        1.113      288.295       43.168        0.022      337.811       10.033      864.874
01/27/2015  14:31:00     -239.815      -48.481      -13.292      131.635       99.070       55.985    17327.647     9814.874     3134.283        4.515        1.514      244.666       56.246        0.053      337.834       10.073      864.880
01/27/2015  14:32:00     -365.427       12.271      -40.398      137.687       86.834       46.233    18957.584     7540.062     2137.510        8.197        1.432      365.633       45.609        0.016      337.760        9.948      864.899
01/27/2015  14:33:00     -265.441      -60.307      -16.007      119.116       73.076       42.789    14188.664     5340.055     1830.879        4.785        1.068      272.206       55.107        0.041      337.782        9.986      864.898
01/27/2015  14:34:00     -229.043     -122.859      -15.128       71.647       65.866       44.673     5133.355     4338.368     1995.661        3.962        0.573      259.913       28.773        0.012      337.829       10.064      864.889
01/27/2015  14:35:00     -325.467      -70.465      -12.251      103.117      104.515       58.646    10633.119    10923.437     3439.355        6.802        1.250      333.008       58.405        0.031      337.762        9.952      864.888
01/27/2015  14:36:00     -326.627      -43.681      -33.759      132.874      112.069       55.098    17655.496    12559.442     3035.736        7.149        1.663      329.535       50.391        0.023      337.735        9.908      864.881
01/27/2015  14:37:00     -342.065      -64.689      -23.633      137.496       94.141       52.761    18905.128     8862.521     2783.773        7.615        1.528      348.128       67.181        0.037      337.774        9.973      864.868
01/27/2015  14:38:00     -160.520      -19.554        9.283      137.891       87.096       54.314    19013.964     7585.658     2949.999        2.789        1.477      161.707       60.737        0.141      337.857       10.112      864.866
01/27/2015  14:39:00     -193.145      -57.169       -7.777       84.437       83.805       46.933     7129.585     7023.296     2202.697        2.849        0.818      201.428       40.078        0.040      337.871       10.134      864.872
01/27/2015  14:40:00     -189.094      -66.785        2.556       98.767       75.922       44.566     9754.876     5764.096     1986.120        2.886        0.875      200.541       49.945        0.062      337.869       10.132      864.859
01/27/2015  14:41:00     -219.584        6.957      -25.835      130.344       99.544       53.085    16989.559     9909.023     2818.067        3.932        1.486      219.694       53.464        0.059      337.861       10.118      864.862
01/27/2015  14:42:00     -348.457      -30.413      -25.587      100.045       86.775       47.568    10008.991     7529.821     2262.689        7.140        0.990      349.782       42.151        0.015      337.818       10.045      864.871
01/27/2015  14:43:00     -336.361      -72.700      -22.661      104.374       80.385       55.489    10893.907     6461.715     3079.005        6.968        1.022      344.128       56.894        0.027      337.829       10.064      864.853
01/27/2015  14:44:00     -267.234     -124.878      -17.187       97.798       63.568       43.667     9564.529     4040.916     1906.775        5.141        0.776      294.972       45.585        0.024      337.879       10.147      864.849
01/27/2015  14:45:00     -424.041      -10.784      -37.169      120.597       97.261       49.745    14543.651     9459.620     2474.530       10.389        1.324      424.178       56.147        0.018      337.836       10.075      864.851
01/27/2015  14:46:00     -294.693      -15.455      -17.700      146.497      105.027       59.393    21461.514    11030.630     3527.510        6.170        1.801      295.098       71.965        0.059      337.880       10.149      864.857
01/27/2015  14:47:00     -235.445      -29.602       -9.687       86.622      109.625       45.955     7503.319    12017.741     2111.853        3.902        1.082      237.299       40.489        0.029      337.953       10.271      864.855
01/27/2015  14:48:00     -254.782     -102.836       -0.631      161.677      109.547       65.555    26139.496    12000.472     4297.451        5.896        2.122      274.753       76.458        0.077      337.949       10.266      864.844
01/27/2015  14:49:00     -279.133      -55.163        2.098      175.793      113.919       82.128    30903.337    12977.582     6744.927        6.579        2.531      284.532      101.824        0.128      337.983       10.322      864.840
01/27/2015  14:50:00     -272.246       -8.814      -21.276      122.376      116.923       60.133    14975.938    13671.051     3616.035        5.345        1.613      272.389       52.667        0.037      337.989       10.335      864.861
01/27/2015  14:51:00     -235.842      -65.504       -0.032      110.545      116.887       58.750    12220.233    13662.661     3451.531        4.462        1.467      244.770       59.821        0.060      338.024       10.393      864.860
01/27/2015  14:52:00     -370.525     -109.261      -23.239      121.336      164.657       60.770    14722.528    27111.764     3693.020        9.764        2.276      386.298       52.491        0.018      337.960       10.283      864.860
01/27/2015  14:53:00     -343.884     -169.110      -13.476      179.163      122.226       84.717    32099.326    14939.304     7177.045       10.062        2.711      383.216       91.600        0.057      337.969       10.300      864.851
01/27/2015  14:54:00     -265.413        3.773       -9.408      131.861      114.664       59.635    17387.347    13147.824     3556.312        5.231        1.705      265.440       63.110        0.057      338.026       10.395      864.884
01/27/2015  14:55:00     -211.823      -77.832      -15.641      140.255       86.310       59.466    19671.327     7449.488     3536.256        4.091        1.533      225.670       67.334        0.089      338.045       10.429      864.897
01/27/2015  14:56:00     -290.981       -3.458      -14.451      120.455      109.383       53.810    14509.431    11964.630     2895.512        5.713        1.468      291.002       54.135        0.035      338.008       10.365      864.902
01/27/2015  14:57:00     -183.650     -113.833       14.150      138.875      120.776       65.763    19286.216    14586.868     4324.821        4.254        1.910      216.067       73.668        0.116      338.053       10.440      864.904
01/27/2015  14:58:00     -273.815     -131.657      -18.645      130.433      111.866       62.875    17012.790    12514.111     3953.222        6.306        1.674      303.823       56.750        0.035      338.031       10.403      864.915
01/27/2015  14:59:00     -137.001     -146.964       10.934      163.835      117.851       88.831    26841.896    13888.879     7891.016        4.455        2.431      200.917       89.433        0.198      338.075       10.477      864.890
01/27/2015  15:00:00     -247.275     -183.993        8.040      143.185      134.429       80.717    20501.926    18071.087     6515.230        7.007        2.254      308.218       91.134        0.087      338.055       10.443      864.883
01/27/2015  15:01:00     -171.864     -159.675        3.061      159.467      132.981       74.855    25429.585    17683.856     5603.323        5.187        2.436      234.592       63.486        0.073      338.037       10.414      864.889
01/27/2015  15:02:00     -369.285     -128.000      -16.951      151.069      126.541       62.007    22821.733    16012.730     3844.926        9.785        2.134      390.839       56.732        0.021      337.991       10.336      864.889
01/27/2015  15:03:00     -546.220     -171.253      -39.411      164.748      137.491       76.609    27141.962    18903.858     5868.873       19.057        2.596      572.437       72.625        0.016      337.924       10.222      864.884
01/27/2015  15:04:00     -549.451     -185.017      -21.152      208.764      135.104       76.337    43582.208    18252.996     5827.381       20.211        3.383      579.765       92.723        0.026      337.921       10.219      864.901
01/27/2015  15:05:00     -326.406      -42.537      -19.081      140.323      132.726       70.561    19690.548    17616.219     4978.822        7.549        2.114      329.166       70.271        0.046      337.984       10.325      864.909
01/27/2015  15:06:00     -212.984     -160.141       -4.986      156.660      148.585       94.293    24542.508    22077.639     8891.203        6.326        2.776      266.472       91.924        0.119      338.025       10.393      864.916
01/27/2015  15:07:00      -80.232      -42.300       26.032      179.072      134.528       71.081    32066.845    18097.772     5052.527        3.205        2.761       90.700       74.545        0.676      338.115       10.545      864.926
01/27/2015  15:08:00     -413.071     -150.897      -42.895      172.072      116.936       55.391    29608.845    13674.060     3068.110       12.079        2.318      439.770       45.554        0.011      337.999       10.351      864.968
01/27/2015  15:09:00     -451.109      -89.905      -19.318      175.534      120.145       75.683    30812.259    14434.864     5727.876       13.146        2.549      459.980       70.650        0.024      338.003       10.357      864.984
01/27/2015  15:10:00     -547.801     -188.694      -30.057      204.308      155.907       88.022    41741.943    24307.132     7747.830       20.518        3.690      579.389       99.669        0.030      337.918       10.212      864.962
01/27/2015  15:11:00     -303.463     -157.466        4.894      198.758      176.100       77.190    39504.860    31011.235     5958.233        9.668        3.824      341.885       85.862        0.063      338.008       10.364      864.982
01/27/2015  15:12:00     -294.052      -95.170      -21.768      194.146      132.733       77.249    37692.704    17618.175     5967.359        7.863        3.064      309.070       91.508        0.088      338.033       10.407      865.009
01/27/2015  15:13:00     -341.011     -132.582      -20.649      160.694      141.176       82.233    25822.546    19930.710     6762.345        9.340        2.626      365.878       81.246        0.049      338.003       10.356      865.006
01/27/2015  15:14:00     -295.218      -64.423      -20.361      164.277      140.574       67.259    26987.009    19761.144     4523.780        7.149        2.564      302.165       73.693        0.059      338.036       10.412      865.027
01/27/2015  15:15:00     -209.201     -144.703       -8.488      149.817      132.605       65.960    22445.202    17584.108     4350.740        5.457        2.219      254.370       67.176        0.070      338.047       10.430      865.036
01/27/2015  15:16:00     -388.106     -239.855      -33.828      207.904      145.143       72.179    43223.896    21066.604     5209.835       13.939        3.475      456.242       82.580        0.033      337.996       10.343      865.049
01/27/2015  15:17:00     -276.754     -131.037       -0.809      226.238      157.019       73.483    51183.628    24655.121     5399.746        8.749        4.062      306.208       89.413        0.085      338.011       10.370      865.064
01/27/2015  15:18:00     -220.247     -153.240        8.465      127.062      116.578       65.218    16144.730    13590.398     4253.376        5.302        1.699      268.312       61.754        0.053      338.054       10.443      865.076
01/27/2015  15:19:00     -283.812     -114.341        3.043      179.207      114.608       73.349    32114.989    13134.909     5380.055        7.212        2.531      305.979       67.598        0.049      338.043       10.422      865.066
01/27/2015  15:20:00     -241.935      -60.460       -8.796      158.281      108.845       58.621    25052.998    11847.170     3436.448        5.129        2.017      249.375       63.557        0.065      338.074       10.476      865.087
01/27/2015  15:21:00     -250.454      -23.795      -24.263      166.350       96.620       53.262    27672.323     9335.394     2836.789        5.186        1.992      251.582       60.443        0.058      338.080       10.485      865.096
01/27/2015  15:22:00     -267.713      -42.363      -13.909      145.219       89.326       61.917    21088.647     7979.111     3833.729        5.327        1.645      271.044       57.340        0.045      338.070       10.468      865.094
01/27/2015  15:23:00     -244.688      -53.044        0.788      118.887      109.322       58.686    14134.142    11951.316     3444.083        4.610        1.476      250.372       61.105        0.060      338.104       10.525      865.106
01/27/2015  15:24:00     -289.539     -108.957      -11.082      143.714      134.351       82.741    20653.758    18050.191     6845.995        7.068        2.277      309.361       63.770        0.042      338.076       10.480      865.111
01/27/2015  15:25:00     -162.857      -65.082       -7.591      202.518      149.858       79.606    41013.660    22457.384     6337.188        5.030        3.490      175.379       65.602        0.140      338.097       10.516      865.111
01/27/2015  15:26:00     -175.162      -47.200      -19.352       92.659      121.843       64.329     8585.672    14845.756     4138.224        3.042        1.378      181.410       44.014        0.059      338.067       10.466      865.116
01/27/2015  15:27:00     -208.323      -16.640       -0.365      167.010      110.066       70.917    27892.209    12114.473     5029.286        4.435        2.252      208.987       76.483        0.134      338.099       10.518      865.129
01/27/2015  15:28:00     -115.808      -45.451       26.345      122.153      110.636       61.978    14921.344    12240.385     3841.230        2.358        1.550      124.408       60.099        0.233      338.140       10.588      865.139
01/27/2015  15:29:00     -251.791     -185.744       -2.773      182.682      149.395       78.514    33372.639    22318.975     6164.402        7.987        3.093      312.889       78.700        0.063      338.039       10.416      865.140
01/27/2015  15:30:00     -349.284     -156.343       -5.516      174.295      123.702       82.119    30378.850    15302.262     6743.575        9.944        2.621      382.678       84.661        0.049      338.001       10.353      865.118
01/27/2015  15:31:00     -274.039     -143.397      -15.462      167.046      123.079       81.020    27904.467    15148.440     6564.227        7.275        2.481      309.290       75.415        0.059      338.039       10.417      865.140
01/27/2015  15:32:00     -194.480      -74.280        0.910      103.643       99.721       60.749    10741.779     9944.289     3690.403        3.385        1.219      208.182       56.557        0.074      338.101       10.521      865.163
01/27/2015  15:33:00     -319.321     -118.687        3.046      266.421      156.705       84.916    70980.263    24556.384     7210.700       10.939        5.137      340.665      107.306        0.099      338.044       10.425      865.131
01/27/2015  15:34:00     -457.048     -149.800       -9.925      232.156      203.956       88.189    53896.343    41598.025     7777.362       16.733        5.164      480.971       96.859        0.041      337.987       10.329      865.119
01/27/2015  15:35:00     -336.329     -116.794       -1.532      199.644      128.487       80.411    39857.592    16509.020     6465.960        9.479        3.142      356.031       90.339        0.064      338.003       10.357      865.148
01/27/2015  15:36:00     -428.227     -192.035       -8.420      231.251      198.860      114.081    53477.040    39545.300    13014.557       16.316        5.302      469.314      120.268        0.066      337.973       10.305      865.114
01/27/2015  15:37:00     -176.174      -63.566       11.495      165.209      130.752       82.331    27294.169    17096.208     6778.463        4.318        2.558      187.291       88.797        0.225      338.027       10.397      865.132
01/27/2015  15:38:00     -134.259     -100.629        5.226      130.220      129.356       82.813    16957.169    16732.871     6858.033        3.436        2.027      167.785       80.224        0.229      338.047       10.431      865.132
01/27/2015  15:39:00     -253.314     -103.473        9.251      188.562      176.491       86.417    35555.585    31149.171     7467.952        7.455        3.709      273.632       92.696        0.115      338.009       10.367      865.121
01/27/2015  15:40:00     -370.566     -209.000      -15.562      158.806      156.781       87.021    25219.322    24580.168     7572.720       11.930        2.869      425.441       72.832        0.029      337.900       10.182      865.128
01/27/2015  15:41:00     -157.320     -128.259        4.855      142.110      114.316       67.332    20195.113    13068.188     4533.619        3.950        1.890      202.978       69.829        0.118      338.013       10.374      865.163
01/27/2015  15:42:00     -293.152      -91.928        4.278      159.307      123.974       74.420    25378.877    15369.646     5538.362        7.034        2.314      307.227       83.310        0.074      337.956       10.277      865.147
01/27/2015  15:43:00     -329.499     -188.724      -15.124      220.660      179.626       83.653    48690.709    32265.560     6997.845       11.617        4.398      379.719       89.855        0.056      337.958       10.280      865.130
01/27/2015  15:44:00     -112.167      -67.035        1.257      168.103      154.301       73.053    28258.515    23808.933     5336.733        3.723        2.870      130.672       94.731        0.526      338.000       10.354      865.124
01/27/2015  15:45:00     -418.373     -175.749      -10.627      216.040      144.459       80.270    46673.316    20868.497     6443.324       14.000        3.699      453.788       77.931        0.029      337.905       10.191      865.142
01/27/2015  15:46:00     -269.467      -83.467       -5.812      161.708      168.552       86.048    26149.316    28409.631     7404.193        7.078        3.098      282.098       82.617        0.086      337.951       10.268      865.125
01/27/2015  15:47:00     -479.738      -15.368      -27.125      253.389      196.843      104.215    64206.169    38747.063    10860.701       17.245        5.691      479.984      122.807        0.065      337.914       10.206      865.115
01/27/2015  15:48:00     -269.696      -66.336       -0.637      166.158      155.042       73.507    27608.592    24038.108     5403.332        6.708        2.853      277.734       81.882        0.087      337.958       10.280      865.144
01/27/2015  15:49:00     -156.043      -27.172        3.410      138.729      112.567       72.849    19245.696    12671.429     5306.997        3.116        1.861      158.391       74.100        0.219      337.988       10.333      865.160
01/27/2015  15:50:00     -350.342     -207.665      -24.366      187.618      199.775       92.377    35200.672    39910.108     8533.584       12.504        4.182      407.264       99.995        0.060      337.906       10.192      865.128
01/27/2015  15:51:00     -316.270     -235.534      -15.825      203.220      195.389       91.640    41298.303    38176.681     8397.857       12.180        4.394      394.338       88.792        0.051      337.934       10.240      865.120
01/27/2015  15:52:00     -259.220      -83.635       -8.713      136.713      139.605       72.422    18690.473    19489.548     5244.891        5.884        2.171      272.379       75.534        0.077      337.923       10.223      865.124
01/27/2015  15:53:00     -315.584     -174.235        8.245      171.440      164.398       95.319    29391.783    27026.776     9085.714        9.775        3.275      360.487       99.170        0.076      337.904       10.188      865.113
01/27/2015  15:54:00     -248.261      -22.558       -6.056      161.937      125.210       68.842    26223.552    15677.469     4739.277        5.440        2.332      249.284       80.375        0.104      337.917       10.212      865.124
01/27/2015  15:55:00     -179.857      -93.422       -6.832      183.224      139.938       92.587    33570.967    19582.518     8572.272        5.141        3.086      202.673       80.263        0.157      337.909       10.199      865.096
01/27/2015  15:56:00     -258.368     -115.492        4.392      166.141      158.951       93.086    27602.790    25265.501     8665.092        7.081        3.077      283.006       97.706        0.119      337.896       10.176      865.111
01/27/2015  15:57:00     -356.037      -81.910       -3.957      238.849      182.959       85.102    57048.949    33474.115     7242.289       11.561        4.888      365.337      108.500        0.088      337.891       10.168      865.120
01/27/2015  15:58:00     -265.578     -181.514      -11.222      166.341      165.244       84.240    27669.488    27305.724     7096.318        8.283        3.104      321.682       87.269        0.074      337.905       10.191      865.138
01/27/2015  15:59:00     -227.788      -67.339       11.215      179.375      131.518       82.855    32175.427    17297.061     6864.950        5.643        2.817      237.533       95.266        0.161      337.929       10.232      865.137
01/27/2015  16:00:00     -330.649      -74.991       -3.234      186.310      155.080       82.795    34711.449    24049.843     6855.025        9.028        3.281      339.047       84.015        0.061      337.888       10.162      865.151
01/27/2015  16:01:00     -279.921      -50.258       -6.197      129.878      110.378       70.568    16868.270    12183.356     4979.813        5.747        1.702      284.397       71.189        0.063      337.887       10.161      865.151
01/27/2015  16:02:00     -326.481     -242.411        1.004      233.306      177.007      112.865    54431.469    31331.437    12738.461       13.191        4.925      406.636      121.260        0.089      337.859       10.113      865.144
01/27/2015  16:03:00     -334.879     -110.933       -8.401      207.790      140.076       81.892    43176.708    19621.347     6706.343        9.700        3.475      352.775       96.266        0.074      337.880       10.150      865.188
01/27/2015  16:04:00     -418.269     -162.051      -10.580      190.923      152.323       86.633    36451.439    23202.209     7505.359       13.423        3.358      448.564       84.223        0.035      337.854       10.104      865.210
01/27/2015  16:05:00     -393.018      -32.981      -20.789      185.497      150.427       78.996    34409.020    22628.360     6240.365       10.962        3.164      394.400       82.276        0.044      337.879       10.148      865.219
01/27/2015  16:06:00     -439.194      -77.417       -1.674      247.621      175.434       93.358    61316.185    30777.136     8715.634       14.983        5.040      445.965      116.154        0.068      337.852       10.102      865.252
01/27/2015  16:07:00     -427.836      -48.768        0.457      200.076      163.267       99.218    40030.397    26656.160     9844.242       13.096        3.827      430.606      114.174        0.070      337.830       10.065      865.259
01/27/2015  16:08:00     -300.308      -20.446      -16.067      166.687      147.774       59.794    27784.517    21837.166     3575.288        7.202        2.660      301.003       66.180        0.048      337.860       10.115      865.305
01/27/2015  16:09:00     -427.842     -135.773       -5.399      191.377      195.348       90.048    36625.212    38160.726     8108.592       14.219        4.145      448.868       96.875        0.047      337.809       10.030      865.318
01/27/2015  16:10:00     -351.243      -43.323        1.101      169.344      154.669       80.837    28677.435    23922.502     6534.601        9.218        2.957      353.905       92.400        0.068      337.832       10.069      865.339
01/27/2015  16:11:00     -320.855      -74.981       -4.501      100.073       84.188       52.754    10014.569     7087.696     2783.019        6.423        0.994      329.499       42.765        0.017      337.829       10.064      865.351
01/27/2015  16:12:00     -259.353      -50.631      -20.991      129.399       99.157       57.291    16744.130     9832.208     3282.212        5.006        1.493      264.249       49.244        0.035      337.843       10.089      865.379
01/27/2015  16:13:00     -439.604      -49.188      -34.374      162.512      116.506       75.493    26410.203    13573.679     5699.134       12.126        2.284      442.348       77.667        0.031      337.850       10.099      865.384
01/27/2015  16:14:00     -235.826      -55.415      -15.555      157.903      143.461       82.230    24933.277    20581.186     6761.749        5.559        2.614      242.249       87.419        0.130      337.859       10.115      865.387
01/27/2015  16:15:00     -389.624     -156.685      -22.097      148.833      157.497       74.351    22151.204    24805.444     5528.092       11.466        2.624      419.949       63.259        0.023      337.820       10.048      865.384
01/27/2015  16:16:00     -293.881      -53.732      -13.125      189.851      109.654       67.358    36043.573    12023.973     4537.094        7.101        2.630      298.753       82.455        0.076      337.846       10.093      865.425
01/27/2015  16:17:00     -434.170       20.665      -12.677      196.034      157.814       87.349    38429.461    24905.294     7629.827       13.002        3.548      434.661       79.959        0.034      337.791       10.000      865.425
01/27/2015  16:18:00     -497.541       67.172      -45.623      179.817      161.908       78.698    32334.005    26214.228     6193.367       15.943        3.237      502.054       90.591        0.033      337.752        9.935      865.427
01/27/2015  16:19:00     -491.533       26.981      -34.887      183.192      115.768       66.846    33559.353    13402.305     4468.418       14.748        2.572      492.273       82.428        0.028      337.748        9.929      865.418
01/27/2015  16:20:00     -333.361     -103.126       -0.836      143.414      123.120       74.632    20567.652    15158.595     5569.970        8.152        2.065      348.948       66.774        0.037      337.769        9.964      865.405
01/27/2015  16:21:00     -398.507      -94.092       -8.106      134.192      113.138       71.988    18007.413    12800.114     5182.256       10.185        1.799      409.465       74.039        0.033      337.755        9.939      865.399
01/27/2015  16:22:00     -441.526      -45.836      -14.547      190.336      107.326       81.849    36227.712    11518.920     6699.219       12.584        2.722      443.899       92.751        0.044      337.757        9.944      865.419
01/27/2015  16:23:00     -316.223      -78.019      -12.549      151.590       91.004       69.347    22979.419     8281.691     4809.039        7.115        1.804      325.706       75.404        0.054      337.774        9.973      865.408
01/27/2015  16:24:00     -192.495     -111.579       24.379      184.740      128.686       89.345    34128.950    16560.086     7982.605        5.438        2.934      222.495       96.471        0.188      337.771        9.967      865.416
01/27/2015  16:25:00     -333.204     -104.261       -1.882      190.381      163.771       76.226    36245.035    26821.037     5810.349        9.538        3.444      349.135       83.733        0.058      337.749        9.929      865.408
01/27/2015  16:26:00     -388.091        6.231      -15.467      140.856      127.349       67.458    19840.346    16217.699     4550.640        9.574        2.030      388.141       57.140        0.022      337.735        9.907      865.407
01/27/2015  16:27:00     -511.118      -45.647      -32.152      207.782      134.275       90.055    43173.320    18029.884     8109.961       16.682        3.466      513.152       98.012        0.036      337.717        9.877      865.426
01/27/2015  16:28:00     -439.386      -86.822      -22.585      146.959      150.895       72.862    21596.821    22769.325     5308.799       12.538        2.484      447.882       74.967        0.028      337.720        9.881      865.417
01/27/2015  16:29:00     -380.259      -62.912       -6.962      184.424      119.157       76.398    34012.216    14198.307     5836.675       10.132        2.702      385.428       88.407        0.053      337.715        9.874      865.416
01/27/2015  16:30:00     -408.988      -36.009      -24.170      224.243      174.923       86.074    50285.022    30598.215     7408.817       12.871        4.415      410.570       97.107        0.056      337.694        9.839      865.409
01/27/2015  16:31:00     -328.384       23.320      -17.437      179.578      117.240       80.443    32248.360    13745.255     6471.146        8.057        2.623      329.211       60.970        0.034      337.702        9.851      865.432
01/27/2015  16:32:00     -425.308      -67.268      -25.951      225.124      174.353       81.542    50680.734    30398.874     6649.172       13.689        4.386      430.595       99.297        0.053      337.689        9.831      865.441
01/27/2015  16:33:00     -371.744     -171.274       -8.589      192.438      180.461       85.848    37032.219    32566.248     7369.844       12.227        3.848      409.302       92.375        0.051      337.694        9.839      865.427
01/27/2015  16:34:00     -323.395     -108.120       -0.308      151.544      124.850       64.279    22965.506    15587.405     4131.765        7.947        2.134      340.991       61.386        0.032      337.698        9.844      865.443
01/27/2015  16:35:00     -218.009      -10.127       -1.278      134.119       83.327       45.562    17987.922     6943.396     2075.937        3.732        1.350      218.244       48.473        0.049      337.717        9.877      865.463
01/27/2015  16:36:00     -403.577      -86.093      -35.333      111.793       94.862       55.004    12497.617     8998.834     3025.474        9.802        1.226      412.658       47.988        0.014      337.675        9.807      865.465
01/27/2015  16:37:00     -336.376      -80.861       -2.630      205.017      135.232       70.647    42031.786    18287.620     4991.006        9.249        3.266      345.959       85.157        0.061      337.673        9.802      865.451
01/27/2015  16:38:00     -284.494       13.298      -12.753      135.373       99.719       69.641    18325.766     9943.848     4849.915        5.719        1.656      284.804       74.810        0.069      337.670        9.798      865.478
01/27/2015  16:39:00     -234.296        6.221       -2.752      181.214      113.888       68.725    32838.341    12970.451     4723.150        5.273        2.527      234.378       92.771        0.157      337.675        9.807      865.466
01/27/2015  16:40:00     -515.319      -61.173      -37.179      121.832      136.651       69.006    14842.948    18673.595     4761.775       15.447        1.914      518.937       60.127        0.013      337.648        9.760      865.488
01/27/2015  16:41:00     -283.880        4.012       -5.532      201.593      130.065       74.579    40639.577    16916.856     5562.092        7.187        3.156      283.908       96.098        0.115      337.659        9.780      865.485
01/27/2015  16:42:00     -425.439     -103.591      -23.936      144.872      137.996       76.530    20987.807    19042.975     5856.828       11.909        2.294      437.869       74.627        0.029      337.626        9.725      865.485
01/27/2015  16:43:00     -322.369      -20.827      -19.750       93.669       74.010       56.646     8773.826     5477.456     3208.739        6.110        0.873      323.041       49.299        0.023      337.626        9.724      865.498
01/27/2015  16:44:00     -277.370      -59.849      -26.070       95.113       88.991       42.054     9046.438     7919.398     1768.549        4.996        0.937      283.753       39.954        0.020      337.633        9.736      865.499
01/27/2015  16:45:00     -256.307      -47.618      -12.493       92.184       79.669       46.714     8497.876     6347.225     2182.207        4.257        0.851      260.693       47.882        0.034      337.634        9.739      865.535
01/27/2015  16:46:00     -201.019      -33.196        2.883       83.417       65.503       44.864     6958.449     4290.696     2012.819        2.739        0.663      203.742       40.829        0.040      337.645        9.756      865.538
01/27/2015  16:47:00     -193.441      -57.085      -11.546       99.435      112.148       49.967     9887.299    12577.229     2496.719        3.288        1.248      201.688       38.770        0.037      337.647        9.761      865.528
01/27/2015  16:48:00     -271.639       34.484      -12.295       90.841      114.000       44.537     8252.087    12995.901     1983.543        4.918        1.162      273.819       38.090        0.019      337.626        9.724      865.538
01/27/2015  16:49:00     -134.734        0.910       -1.558       57.846       50.854       28.973     3346.192     2586.171      839.456        1.246        0.339      134.737       24.706        0.034      337.630        9.734      865.566
01/27/2015  16:50:00     -116.563      -19.970        6.523       93.044       66.764       40.816     8657.189     4457.395     1665.980        1.440        0.739      118.261       51.355        0.189      337.646        9.759      865.576
01/27/2015  16:51:00      -90.974       16.319       11.511       97.543       94.247       53.519     9514.598     8882.452     2864.332        1.496        1.063       92.426       60.093        0.423      337.629        9.731      865.550
01/27/2015  16:52:00     -161.181        4.727      -22.204       83.989       62.067       36.843     7054.140     3852.288     1357.429        1.938        0.613      161.251       33.235        0.042      337.628        9.729      865.553
01/27/2015  16:53:00     -193.852      -35.306       -9.168       83.697       80.231       45.114     7005.247     6436.942     2035.296        2.719        0.774      197.041       39.549        0.040      337.649        9.764      865.547
01/27/2015  16:54:00     -251.129      -86.116        4.454      196.130      100.331       58.977    38467.026    10066.214     3478.301        6.125        2.601      265.484       72.705        0.075      337.647        9.762      865.553
01/27/2015  16:55:00     -334.494        2.613      -29.592      148.452      145.742       61.062    22037.984    21240.874     3728.537        7.988        2.350      334.504       62.602        0.035      337.636        9.742      865.568
01/27/2015  16:56:00     -191.679      -24.977       -8.755      117.523       74.898       52.134    13811.623     5609.744     2717.919        2.979        1.107      193.299       63.647        0.108      337.637        9.742      865.586
01/27/2015  16:57:00     -305.058      -31.034      -20.498      109.383      112.349       48.958    11964.683    12622.261     2396.881        6.071        1.349      306.632       49.023        0.026      337.622        9.717      865.572
01/27/2015  16:58:00     -188.354     -100.294        3.736      116.305      103.693       53.524    13526.911    10752.324     2864.825        3.634        1.357      213.392       46.377        0.047      337.600        9.680      865.570
01/27/2015  16:59:00     -234.515      -52.615      -17.803      168.196      139.414       78.810    28290.049    19436.153     6211.046        5.600        2.697      240.345       81.577        0.115      337.616        9.708      865.568
01/27/2015  17:00:00     -222.289       32.813      -32.674       95.271       85.154       44.830     9076.472     7251.277     2009.755        3.494        0.917      224.698       34.341        0.023      337.603        9.687      865.565
01/27/2015  17:01:00     -372.298      -67.921      -27.803      128.677      163.283       65.455    16557.742    26661.424     4284.321        9.574        2.375      378.443       68.242        0.033      337.588        9.660      865.537
01/27/2015  17:02:00     -183.371      -94.172        7.306      163.610       95.090       63.963    26768.279     9042.096     4091.280        4.122        1.995      206.140       81.101        0.155      337.597        9.676      865.518
01/27/2015  17:03:00     -351.017       -7.767      -28.841      143.251       99.283       55.666    20520.912     9857.049     3098.713        7.879        1.674      351.103       70.109        0.040      337.565        9.621      865.530
01/27/2015  17:04:00     -232.677      -69.153        5.764      153.840      126.206       67.693    23666.602    15927.870     4582.387        5.156        2.209      242.736       80.287        0.109      337.571        9.631      865.530
01/27/2015  17:05:00     -266.671      -77.684       -8.871      115.898       89.754       51.450    13432.377     8055.802     2647.151        5.068        1.207      277.755       46.045        0.027      337.561        9.613      865.546
01/27/2015  17:06:00     -165.545      -83.026       -0.150      104.001       69.686       49.335    10816.188     4856.122     2433.942        2.620        0.905      185.198       45.497        0.060      337.557        9.608      865.552
01/27/2015  17:07:00     -292.699       -5.164      -34.340      116.850      127.976       48.220    13653.849    16377.855     2325.140        5.961        1.618      292.745       42.094        0.021      337.546        9.587      865.549
01/27/2015  17:08:00     -435.442     -121.101      -22.179      178.052      110.173       65.726    31702.434    12138.072     4319.882       12.646        2.408      451.968       75.572        0.028      337.528        9.560      865.531
01/27/2015  17:09:00     -475.053     -159.358      -23.900      170.513      134.102       70.602    29074.628    17983.445     4984.576       15.183        2.602      501.069       74.128        0.022      337.529        9.561      865.534
01/27/2015  17:10:00     -479.478      -66.812      -42.551      138.719      122.456       67.867    19242.996    14995.370     4605.892       13.750        1.942      484.111       61.908        0.016      337.518        9.542      865.548
01/27/2015  17:11:00     -327.184      -53.539      -26.968      130.523      119.898       64.602    17036.290    14375.572     4173.361        7.311        1.779      331.536       53.592        0.026      337.527        9.557      865.567
01/27/2015  17:12:00     -316.760      -48.695      -17.507      108.171      159.087       63.255    11700.977    25308.548     4001.150        7.201        2.051      320.481       45.621        0.020      337.522        9.549      865.576
01/27/2015  17:13:00     -280.096      -69.782      -12.380      110.804      121.813       66.621    12277.601    14838.507     4438.359        5.751        1.578      288.657       61.937        0.046      337.514        9.536      865.588
01/27/2015  17:14:00     -117.755      -34.193       -0.402       98.810       74.590       52.644     9763.356     5563.677     2771.399        1.656        0.905      122.619       49.692        0.164      337.526        9.557      865.593
01/27/2015  17:15:00     -176.480      -86.280       -2.004       90.759       63.386       44.659     8237.186     4017.766     1994.403        2.642        0.712      196.442       44.818        0.052      337.509        9.528      865.619
01/27/2015  17:16:00     -223.406      -59.236      -19.468      123.545      105.641       48.015    15263.404    11159.986     2305.476        4.126        1.436      231.126       25.368        0.012      337.507        9.525      865.638
01/27/2015  17:17:00     -321.327      -53.475      -25.736      120.747       97.301       55.987    14579.761     9467.514     3134.508        6.697        1.359      325.746       66.535        0.042      337.510        9.528      865.679
01/27/2015  17:18:00     -283.102      -93.089      -16.387      102.603       99.522       53.511    10527.410     9904.574     2863.399        5.618        1.165      298.013       44.871        0.023      337.506        9.523      865.689
01/27/2015  17:19:00     -339.828      -66.532      -16.988      134.933      123.544       55.555    18206.806    15263.001     3086.413        7.837        1.828      346.280       41.669        0.014      337.505        9.521      865.708
01/27/2015  17:20:00     -308.565     -105.165      -19.467      112.574      105.516       52.250    12672.909    11133.662     2730.087        6.659        1.327      325.994       54.751        0.028      337.510        9.528      865.714
01/27/2015  17:21:00     -279.941       -6.070      -31.278       90.630       90.326       53.549     8213.874     8158.709     2867.466        4.931        0.962      280.007       49.159        0.031      337.506        9.522      865.703
01/27/2015  17:22:00     -184.265      -72.681       -2.758       99.908       73.848       48.978     9981.665     5453.478     2398.878        2.854        0.892      198.081       55.776        0.079      337.513        9.535      865.701
01/27/2015  17:23:00     -373.560      -38.556      -31.001      142.474       79.273       47.912    20298.728     6284.243     2295.593        8.543        1.444      375.544       59.391        0.025      337.499        9.509      865.711
01/27/2015  17:24:00     -265.572      -98.236      -10.907       93.796       66.780       47.112     8797.620     4459.554     2219.505        4.788        0.774      283.158       46.189        0.027      337.488        9.491      865.723
01/27/2015  17:25:00     -251.735       -1.884       -5.216       95.474       80.355       51.352     9115.257     6456.938     2637.004        4.080        0.910      251.742       48.793        0.038      337.485        9.487      865.722
01/27/2015  17:26:00     -204.824      -16.491       -9.755       76.008       74.692       45.238     5777.287     5578.947     2046.476        2.786        0.670      205.487       43.463        0.045      337.474        9.469      865.720
01/27/2015  17:27:00     -282.873      -84.125       -9.656      109.307       79.596       48.427    11947.950     6335.499     2345.154        5.390        1.031      295.117       50.008        0.029      337.477        9.473      865.719
01/27/2015  17:28:00     -198.934      -73.518      -12.955       83.396       52.881       39.024     6954.970     2796.383     1522.850        2.821        0.564      212.084       34.406        0.026      337.477        9.473      865.730
01/27/2015  17:29:00     -186.331     -112.981      -17.157      108.538       71.499       42.013    11780.500     5112.049     1765.057        3.321        0.933      217.908       23.676        0.012      337.475        9.470      865.725
01/27/2015  17:30:00     -134.890      -56.747      -21.926       73.723       46.935       38.321     5435.139     2202.902     1468.480        1.550        0.455      146.341       39.918        0.074      337.485        9.489      865.737
01/27/2015  17:31:00     -207.605      -35.274       -9.889       85.577       83.045       46.106     7323.444     6896.516     2125.728        3.039        0.817      210.580       35.774        0.029      337.481        9.482      865.727
01/27/2015  17:32:00     -400.678      -27.647      -22.925      107.047      101.084       61.498    11459.036    10218.033     3781.952        9.364        1.273      401.630       60.383        0.023      337.472        9.466      865.715
01/27/2015  17:33:00     -378.399     -104.463      -14.292       98.284       88.226       47.019     9659.700     7783.747     2210.802        8.698        0.983      392.553       39.401        0.010      337.477        9.473      865.702
01/27/2015  17:34:00     -210.985     -119.532        6.343      124.804       98.237       59.999    15575.981     9650.413     3599.867        4.383        1.441      242.492       64.550        0.071      337.456        9.437      865.696
01/27/2015  17:35:00     -261.621       -7.732      -10.854      118.441       74.000       48.881    14028.266     5476.060     2389.317        4.525        1.095      261.735       63.597        0.059      337.459        9.445      865.672
01/27/2015  17:36:00     -287.138      -61.608      -10.561      123.027       76.394       47.252    15135.718     5835.968     2232.742        5.478        1.160      293.673       49.863        0.029      337.435        9.403      865.639
01/27/2015  17:37:00     -355.656      -53.544       -9.447      113.097       93.624       57.238    12790.869     8765.464     3276.220        7.714        1.242      359.664       58.426        0.026      337.441        9.415      865.612
01/27/2015  17:38:00     -338.993      -60.189       -6.389      118.102       75.744       52.939    13948.056     5737.160     2802.544        7.053        1.124      344.295       57.389        0.028      337.447        9.425      865.594
01/27/2015  17:39:00     -333.784      -28.042      -30.691       78.211       80.156       51.500     6116.964     6424.975     2652.230        6.416        0.760      334.959       41.917        0.016      337.443        9.416      865.565
01/27/2015  17:40:00     -227.747      -82.722      -17.049       95.581       86.959       50.550     9135.798     7561.856     2555.299        3.912        0.963      242.305       50.655        0.044      337.449        9.429      865.575
01/27/2015  17:41:00     -253.223      -29.378      -17.486       97.664      100.558       45.120     9538.339    10111.832     2035.811        4.348        1.084      254.922       47.354        0.035      337.442        9.415      865.608
01/27/2015  17:42:00     -238.461      -30.370      -20.511      140.481       69.606       51.837    19734.854     4845.022     2687.030        4.273        1.363      240.387       64.457        0.072      337.451        9.432      865.639
01/27/2015  17:43:00     -191.910      -23.016      -12.569      103.263       76.637       43.071    10663.149     5873.270     1855.074        2.795        0.920      193.285       53.297        0.076      337.461        9.448      865.673
01/27/2015  17:44:00      -60.136       32.547       -5.627       49.548       48.487       29.691     2455.021     2351.030      881.539        0.520        0.284       68.378       19.712        0.083      337.485        9.490      865.700
01/27/2015  17:45:00      -75.826       56.219       -5.292       52.567       83.326       39.887     2763.318     6943.207     1590.997        1.012        0.565       94.393       33.333        0.125      337.464        9.457      865.708
01/27/2015  17:46:00      -88.305      129.863       -8.862       53.969      100.736       39.732     2912.677    10147.829     1578.670        1.969        0.732      157.042       29.983        0.036      337.491        9.498      865.714
01/27/2015  17:47:00     -140.964       43.576      -30.256       87.780       58.107       36.260     7705.354     3376.382     1314.795        1.754        0.620      147.545       27.980        0.036      337.476        9.476      865.713
01/27/2015  17:48:00     -117.673      134.476      -18.912       79.730       95.131       43.553     6356.805     9049.864     1896.856        2.479        0.865      178.692       36.057        0.041      337.496        9.508      865.721
01/27/2015  17:49:00     -175.204       59.070      -20.461       57.046       60.574       46.569     3254.284     3669.190     2168.697        2.185        0.455      184.894       32.277        0.030      337.461        9.449      865.749
01/27/2015  17:50:00     -132.594       18.227      -12.245       62.403       71.896       46.478     3894.162     5169.093     2160.198        1.464        0.561      133.841       41.890        0.098      337.434        9.404      865.767
01/27/2015  17:51:00     -189.075       49.355      -28.326       62.276       59.014       37.541     3878.256     3482.633     1409.338        2.388        0.439      195.411       27.187        0.019      337.452        9.432      865.783
01/27/2015  17:52:00     -108.462       38.544      -20.395       58.947       51.210       34.376     3474.779     2622.485     1181.686        1.047        0.364      115.108       18.166        0.025      337.470        9.466      865.787
01/27/2015  17:53:00      -96.087       -2.032      -18.191       61.027       40.199       32.930     3724.352     1615.991     1084.358        0.800        0.321       96.109       29.250        0.093      337.469        9.464      865.775
01/27/2015  17:54:00     -190.849      -67.185       -8.899       71.718       67.262       35.368     5143.449     4524.147     1250.877        2.597        0.546      202.329       14.827        0.005      337.448        9.426      865.776
01/27/2015  17:55:00     -212.339      -55.326      -11.828       72.139       76.766       43.525     5204.006     5893.092     1894.416        3.064        0.650      219.429       39.289        0.032      337.436        9.406      865.779
01/27/2015  17:56:00     -244.433      -74.721      -13.686       78.043       71.115       41.258     6090.694     5057.412     1702.189        3.918        0.643      255.598       44.957        0.031      337.433        9.400      865.771
01/27/2015  17:57:00     -202.558      -48.401        4.515      107.048      111.545       54.538    11459.329    12442.264     2974.355        3.513        1.344      208.261       60.625        0.085      337.440        9.413      865.778
01/27/2015  17:58:00     -297.447      -94.753      -31.363       94.417       79.356       51.815     8914.501     6297.313     2684.842        5.816        0.895      312.175       55.335        0.031      337.450        9.428      865.793
01/27/2015  17:59:00     -127.136      -33.408       -4.307      103.808       70.741       52.277    10776.160     5004.325     2732.865        1.790        0.926      131.452       60.073        0.209      337.432        9.399      865.801
01/27/2015  18:00:00     -277.041      -36.222      -21.158      142.553       70.034       46.638    20321.317     4904.816     2175.120        5.295        1.370      279.399       54.669        0.038      337.515        9.537      865.813
01/27/2015  18:01:00     -240.819       43.671      -15.316       75.441       94.152       48.709     5691.385     8864.685     2372.558        3.853        0.846      244.747       46.713        0.036      337.566        9.623      865.813
01/27/2015  18:02:00     -167.444      -94.473      -11.311      130.228       84.353       53.898    16959.315     7115.429     2905.003        3.203        1.349      192.257       52.962        0.076      337.581        9.648      865.794
01/27/2015  18:03:00     -163.478      -51.463       -7.603      117.160       64.293       50.648    13726.461     4133.613     2565.189        2.492        1.021      171.387       54.563        0.101      337.545        9.590      865.804
01/27/2015  18:04:00     -149.754      103.941      -27.376       80.254      172.797       59.228     6440.742    29858.916     3507.997        3.689        1.990      182.291       54.541        0.090      337.525        9.555      865.834
01/27/2015  18:05:00     -162.750      224.308      -37.279       82.139      100.977       45.450     6746.853    10196.362     2065.731        4.860        0.950      277.131       49.578        0.032      337.656        9.773      865.839
01/27/2015  18:06:00      -83.090      178.037       -9.293       64.764       88.071       45.833     4194.385     7756.490     2100.676        2.637        0.703      196.472       48.474        0.061      337.591        9.667      865.841
01/27/2015  18:07:00      -74.023      167.131      -19.909       67.509       51.234       41.632     4557.477     2624.886     1733.206        2.136        0.446      182.790       36.754        0.040      337.558        9.612      865.838
01/27/2015  18:08:00     -104.161      105.451      -23.569       53.220       67.452       36.963     2832.399     4549.790     1366.227        1.564        0.437      148.221       29.954        0.041      337.550        9.599      865.856
01/27/2015  18:09:00     -138.978      104.653      -17.457       49.783       68.022       30.606     2478.364     4626.997      936.753        1.931        0.402      173.974       28.338        0.027      337.600        9.681      865.866
01/27/2015  18:10:00     -130.078       -1.578      -34.683       71.121       61.313       43.457     5058.185     3759.250     1888.549        1.441        0.535      130.087       31.975        0.060      337.537        9.576      865.864
01/27/2015  18:11:00     -142.828      -17.428      -21.591       66.710       58.948       35.428     4450.200     3474.905     1255.139        1.517        0.459      143.887       31.703        0.049      337.496        9.508      865.853
01/27/2015  18:12:00     -176.929      -23.185      -17.850       69.639       47.696       32.213     4849.579     2274.885     1037.661        2.016        0.408      178.442       26.990        0.023      337.458        9.446      865.850
01/27/2015  18:13:00      -53.105       53.626      -31.461       55.993       55.795       28.519     3135.236     3113.045      813.312        0.687        0.353       75.471       19.644        0.068      337.507        9.528      865.827
01/27/2015  18:14:00     -144.159       78.926      -20.414       40.934       64.450       29.956     1675.601     4153.762      897.372        1.708        0.336      164.350       20.171        0.015      337.503        9.520      865.845
01/27/2015  18:15:00      -90.355      141.799      -13.658       56.102       76.236       38.656     3147.415     5811.994     1494.267        1.945        0.523      168.140       35.912        0.046      337.462        9.450      865.878
01/27/2015  18:16:00     -139.725      128.203      -22.122       49.788       60.405       29.851     2478.863     3648.763      891.095        2.173        0.351      189.629       20.868        0.012      337.464        9.454      865.889
01/27/2015  18:17:00     -125.412      269.257      -26.255       58.878       77.796       43.550     3466.642     6052.261     1896.566        5.016        0.571      297.031       39.432        0.018      337.426        9.388      865.907
01/27/2015  18:18:00     -137.230      203.988      -34.756       66.037       69.768       34.479     4360.913     4867.579     1188.793        3.603        0.521      245.852       31.607        0.017      337.466        9.455      865.914
01/27/2015  18:19:00      -74.521       49.387      -17.803       58.386       52.804       29.477     3408.911     2788.217      868.918        0.769        0.353       89.401       35.499        0.158      337.397        9.341      865.935
01/27/2015  18:20:00     -131.282        9.012      -13.991       49.097       47.593       33.137     2410.469     2265.089     1098.084        1.164        0.289      131.591       27.907        0.045      337.385        9.323      865.928
01/27/2015  18:21:00      -85.878       37.150      -21.976       40.808       37.626       22.547     1665.285     1415.690      508.364        0.641        0.179       93.569       22.499        0.058      337.342        9.251      865.946
01/27/2015  18:22:00      -90.697       -7.764      -15.193       47.406       39.317       17.561     2247.289     1545.803      308.381        0.631        0.205       91.028        5.761        0.004      337.331        9.233      865.967
01/27/2015  18:23:00     -145.681      -77.609      -14.085       62.318       45.607       31.075     3883.507     2080.023      965.665        1.719        0.346      165.064       27.985        0.029      337.316        9.206      865.985
01/27/2015  18:24:00     -145.289      -70.422        1.681      107.359       76.749       46.200    11525.924     5890.468     2134.422        2.281        0.978      161.456       47.127        0.085      337.213        9.034      865.991
01/27/2015  18:25:00     -219.193      -67.955       -7.632       89.142       77.799       41.223     7946.222     6052.704     1699.347        3.421        0.785      229.485       34.346        0.022      337.172        8.964      866.008
01/27/2015  18:26:00     -182.612       27.062      -18.898       85.303       57.242       39.769     7276.613     3276.665     1581.569        2.328        0.607      184.606       46.867        0.064      337.187        8.991      866.030
01/27/2015  18:27:00     -142.191      110.915      -25.453       70.152       72.564       44.280     4921.241     5265.485     1960.729        2.266        0.607      180.335       43.028        0.057      337.246        9.090      866.037
01/27/2015  18:28:00     -107.971      171.195      -26.598       39.105       55.454       35.738     1529.211     3075.123     1277.175        2.378        0.294      202.399       22.178        0.012      337.226        9.055      866.051
01/27/2015  18:29:00     -171.097       74.827      -29.983       71.416       82.497       40.538     5100.247     6805.769     1643.356        2.466        0.677      186.744       44.474        0.057      337.186        8.990      866.085
01/27/2015  18:30:00     -166.618       71.266      -30.632       64.310       55.249       35.710     4135.715     3052.474     1275.195        2.112        0.423      181.219       38.071        0.044      337.161        8.947      866.123
01/27/2015  18:31:00     -217.380       56.867      -30.736       51.228       74.967       31.892     2624.263     5620.085     1017.095        3.035        0.463      224.695       24.085        0.011      337.125        8.885      866.135
01/27/2015  18:32:00     -233.098        1.138      -23.963       64.506       82.845       34.585     4161.053     6863.275     1196.129        3.356        0.611      233.101       29.762        0.016      337.079        8.808      866.143
01/27/2015  18:33:00     -185.615      -47.025      -13.027       63.900       74.255       39.165     4083.215     5513.785     1533.902        2.398        0.557      191.480       35.359        0.034      337.054        8.766      866.150
01/27/2015  18:34:00      -69.833       76.409       -1.091       48.349       57.511       37.722     2337.637     3307.539     1422.919        0.889        0.353      103.513       19.205        0.034      337.009        8.692      866.159
01/27/2015  18:35:00      -58.101      190.685      -11.031       62.478       72.990       44.394     3903.505     5327.577     1970.855        2.553        0.560      199.340       38.805        0.038      337.071        8.794      866.142
01/27/2015  18:36:00      -90.082      311.159      -40.099       42.569       90.241       30.643     1812.123     8143.412      938.972        5.872        0.545      323.936       35.637        0.012      337.160        8.944      866.118
01/27/2015  18:37:00     -110.334      203.245      -27.214       51.970       51.524       36.584     2700.883     2654.739     1338.382        3.046        0.335      231.262       22.140        0.009      337.146        8.918      866.135
01/27/2015  18:38:00     -136.582      147.781      -38.616       60.877       60.161       30.244     3706.053     3619.360      914.710        2.511        0.412      201.231       36.697        0.033      337.114        8.866      866.149
01/27/2015  18:39:00     -165.020        3.587      -17.435       57.042       67.086       33.636     3253.741     4500.594     1131.351        1.822        0.444      165.059       29.082        0.031      337.074        8.801      866.193
01/27/2015  18:40:00     -197.040      -39.812       -8.352       64.406       47.929       31.997     4148.140     2297.202     1023.833        2.397        0.373      201.022       29.785        0.022      337.048        8.758      866.233
01/27/2015  18:41:00     -128.806      -20.438      -10.470       60.431       43.435       32.229     3651.916     1886.573     1038.679        1.185        0.329      130.417       32.342        0.061      337.034        8.734      866.254
01/27/2015  18:42:00     -121.524       13.840       -7.817       37.456       22.128       21.870     1402.925      489.628      478.311        0.870        0.119      122.310       19.169        0.025      337.005        8.687      866.278
01/27/2015  18:43:00     -162.590      -38.819       -6.538       61.295       44.315       34.116     3757.101     1963.854     1163.932        1.743        0.344      167.160       29.705        0.032      336.969        8.625      866.296
01/27/2015  18:44:00     -232.622      -27.721      -39.806       57.146       53.087       29.855     3265.722     2818.279      891.300        3.172        0.349      234.268       25.853        0.012      336.983        8.647      866.309
01/27/2015  18:45:00     -152.876      -36.529      -11.286       58.014       50.750       29.957     3365.677     2575.538      897.446        1.583        0.342      157.180       18.530        0.014      336.958        8.607      866.315
01/27/2015  18:46:00     -156.367       20.542      -24.350       56.555       41.844       30.782     3198.509     1750.923      947.504        1.568        0.295      157.710       20.242        0.016      336.965        8.618      866.338
01/27/2015  18:47:00     -142.127        7.631      -22.914       67.642       66.238       31.660     4575.441     4387.463     1002.363        1.537        0.498      142.331       38.867        0.075      336.963        8.616      866.341
01/27/2015  18:48:00      -94.751      -16.172       -9.271       51.974       37.312       21.363     2701.299     1392.214      456.383        0.694        0.227       96.121       21.053        0.048      336.950        8.594      866.336
01/27/2015  18:49:00      -49.767       30.968       -7.153       40.128       61.153       30.077     1610.224     3739.644      904.615        0.487        0.313       58.616       30.121        0.264      336.970        8.627      866.331
01/27/2015  18:50:00      -96.470      144.836      -20.068       54.849       75.739       38.063     3008.467     5736.437     1448.773        2.044        0.510      174.023       37.671        0.047      337.018        8.705      866.342
01/27/2015  18:51:00     -163.680      152.721      -43.740       63.739       70.738       34.505     4062.684     5003.881     1190.597        3.114        0.513      223.863       36.781        0.027      337.122        8.879      866.345
01/27/2015  18:52:00     -160.425       70.889      -24.343       40.518       62.934       30.326     1641.744     3960.750      919.662        1.894        0.326      175.389       27.792        0.025      337.102        8.848      866.379
01/27/2015  18:53:00     -204.248     -101.501      -12.862       72.108       62.532       42.156     5199.520     3910.203     1777.131        3.153        0.544      228.079       30.673        0.018      336.992        8.663      866.397
01/27/2015  18:54:00     -113.622      -53.566       -1.124       78.427       56.919       34.538     6150.755     3239.752     1192.853        1.318        0.529      125.616       44.903        0.128      336.815        8.369      866.411
01/27/2015  18:55:00      -92.451       68.151       -8.822       66.923       70.531       35.470     4478.642     4974.620     1258.094        1.199        0.536      114.855       44.775        0.152      336.946        8.587      866.403
01/27/2015  18:56:00      -99.336      117.305      -19.139       42.892       52.768       31.371     1839.746     2784.473      984.130        1.480        0.280      153.714       28.694        0.035      336.932        8.563      866.387
01/27/2015  18:57:00     -161.653      108.792      -23.605       34.618       76.169       32.304     1198.420     5801.727     1043.526        2.328        0.402      194.852       36.945        0.036      336.950        8.592      866.418
01/27/2015  18:58:00     -133.471       84.409      -21.328       57.041       80.172       34.335     3253.728     6427.524     1178.896        1.813        0.543      157.922       25.056        0.025      336.894        8.501      866.459
01/27/2015  18:59:00     -114.061      213.502      -27.814       47.816       73.125       39.027     2286.323     5347.196     1523.077        3.426        0.458      242.060       34.161        0.020      337.037        8.737      866.433
01/27/2015  19:00:00     -102.253      245.693      -28.714       46.599       59.493       36.838     2171.494     3539.362     1357.032        3.936        0.353      266.122       30.144        0.013      337.089        8.824      866.397
01/27/2015  19:01:00      -46.475      246.907      -32.857       27.892       58.071       19.894      777.942     3372.298      395.760        3.437        0.227      251.243       17.731        0.005      337.088        8.822      866.374
01/27/2015  19:02:00     -102.920       41.815      -12.527       44.020       63.379       29.242     1937.727     4016.843      855.090        0.965        0.340      111.090       18.068        0.026      337.110        8.861      866.387
01/27/2015  19:03:00      -84.204      107.371      -21.213       50.454       58.414       35.098     2545.589     3412.244     1231.847        1.313        0.359      136.451       36.668        0.072      337.061        8.780      866.396
01/27/2015  19:04:00     -109.170       41.535       -8.959       47.776       60.034       32.764     2282.578     3604.039     1073.490        1.034        0.348      116.805       29.928        0.066      337.043        8.750      866.416
01/27/2015  19:05:00      -92.298      150.797      -24.092       46.371       49.093       31.541     2150.274     2410.155      994.858        1.870        0.278      176.801       28.399        0.026      337.054        8.766      866.416
01/27/2015  19:06:00     -138.900       77.533      -17.780       52.035       63.571       36.772     2707.647     4041.332     1352.158        1.686        0.405      159.074       30.422        0.037      337.044        8.750      866.406
01/27/2015  19:07:00      -89.114       73.647      -17.846       46.102       62.217       27.517     2125.364     3870.925      757.176        1.022        0.338      115.608       30.440        0.069      337.028        8.724      866.411
01/27/2015  19:08:00      -63.375       31.848       -5.165       38.292       53.627       24.172     1466.257     2875.825      584.301        0.499        0.246       70.927       21.963        0.096      337.017        8.708      866.393
01/27/2015  19:09:00      -83.970       -8.627       -0.421       40.568       48.522       32.801     1645.758     2354.367     1075.912        0.610        0.254       84.412       29.460        0.122      337.046        8.754      866.382
01/27/2015  19:10:00     -275.468      -22.696      -25.042      112.464       71.826       40.998    12648.056     5158.950     1680.876        4.825        0.974      276.401       50.317        0.033      337.100        8.842      866.389
01/27/2015  19:11:00     -196.265      -36.053      -14.938      115.040       65.718       44.419    13234.119     4318.806     1973.084        2.978        0.976      199.549       44.905        0.051      337.053        8.764      866.387
01/27/2015  19:12:00     -181.742      -54.257      -21.179       60.013       48.258       36.574     3601.573     2328.849     1337.668        2.184        0.363      189.668       23.323        0.015      337.019        8.707      866.385
01/27/2015  19:13:00     -114.202       -5.675       -7.351       86.285       59.994       43.736     7445.015     3599.307     1912.859        1.304        0.648      114.343       40.987        0.128      337.043        8.748      866.367
01/27/2015  19:14:00     -125.509      -43.782      -12.169       84.534       56.701       31.855     7146.043     3215.058     1014.746        1.459        0.569      132.926       35.684        0.072      336.990        8.660      866.368
01/27/2015  19:15:00     -149.070      -28.940       -9.946       51.444       68.567       33.486     2646.476     4701.398     1121.336        1.581        0.423      151.853       22.625        0.022      336.967        8.623      866.370
01/27/2015  19:16:00     -160.532      -83.111      -11.350       75.523       52.994       44.153     5703.779     2808.368     1949.478        2.163        0.523      180.770       42.486        0.055      337.005        8.686      866.372
01/27/2015  19:17:00     -170.232      -40.318       -4.375       99.765       67.775       47.045     9953.100     4593.516     2213.255        2.369        0.838      174.941       46.760        0.071      337.039        8.741      866.378
01/27/2015  19:18:00     -202.249      -74.505      -12.657       78.339       58.477       39.363     6136.951     3419.561     1549.476        2.886        0.555      215.535       37.133        0.030      337.063        8.780      866.386
01/27/2015  19:19:00     -150.443      -64.019        0.543       72.633       54.310       41.887     5275.576     2949.563     1754.500        1.835        0.499      163.497       32.824        0.040      337.102        8.846      866.396
01/27/2015  19:20:00      -53.939       -4.440        4.249       90.351       52.646       31.381     8163.270     2771.611      984.792        0.743        0.596       54.122       31.700        0.343      337.089        8.828      866.396
01/27/2015  19:21:00     -133.613      -50.257      -19.497       68.108       45.939       35.065     4638.672     2110.362     1229.583        1.437        0.399      142.753       30.021        0.044      337.130        8.894      866.403
01/27/2015  19:22:00     -179.805      -48.334      -19.336       89.269       55.774       39.672     7968.996     3110.778     1573.835        2.384        0.633      186.188       40.056        0.046      337.146        8.919      866.419
01/27/2015  19:23:00     -197.941      -51.616      -24.467       70.028       60.025       38.070     4903.921     3603.059     1449.351        2.620        0.498      204.561       24.516        0.014      337.167        8.956      866.428
01/27/2015  19:24:00     -164.791      -52.529      -20.863       76.250       56.625       42.729     5814.003     3206.378     1825.782        2.060        0.542      172.961       38.810        0.050      337.191        8.998      866.427
01/27/2015  19:25:00     -210.170      -54.571       -3.739       73.879       72.457       40.053     5458.037     5250.015     1604.253        2.974        0.616      217.139       42.080        0.038      337.210        9.027      866.428
01/27/2015  19:26:00     -204.724      -25.153      -12.700       70.948       65.008       38.265     5033.603     4226.035     1464.242        2.671        0.536      206.263       34.197        0.027      337.226        9.055      866.430
01/27/2015  19:27:00     -173.201      -43.385      -12.051       65.336       64.774       38.865     4268.769     4195.649     1510.471        2.100        0.499      178.552       37.953        0.045      337.234        9.070      866.426
01/27/2015  19:28:00     -282.216      -25.304      -19.141       79.651       78.637       52.088     6344.223     6183.711     2713.160        4.794        0.762      283.348       42.016        0.022      337.303        9.181      866.430
01/27/2015  19:29:00     -252.000      -29.308      -25.760       72.573       49.299       37.025     5266.836     2430.396     1370.822        3.705        0.453      253.699       31.491        0.015      337.288        9.156      866.439
01/27/2015  19:30:00     -353.795      -33.230      -34.170       72.655       78.649       46.115     5278.678     6185.732     2126.633        7.051        0.680      355.352       38.728        0.012      337.363        9.284      866.446
01/27/2015  19:31:00     -243.670      -35.924      -26.084       92.796       83.698       47.601     8611.141     7005.430     2265.856        3.961        0.894      246.304       45.139        0.034      337.314        9.200      866.452
01/27/2015  19:32:00     -303.081      -88.774      -14.576      149.587       81.707       53.865    22376.203     6676.108     2901.417        6.595        1.598      315.815       66.461        0.044      337.387        9.324      866.449
01/27/2015  19:33:00     -254.995      -72.826       -8.145      103.872       87.568       47.357    10789.402     7668.128     2242.689        4.554        1.035      265.190       47.204        0.032      337.362        9.282      866.464
01/27/2015  19:34:00     -271.629      -20.386      -20.574       79.206       61.523       41.309     6273.538     3785.097     1706.419        4.319        0.588      272.393       40.024        0.022      337.363        9.283      866.475
01/27/2015  19:35:00     -334.568       23.619      -17.986      119.382       99.169       43.151    14252.077     9834.464     1862.044        6.938        1.297      335.401       50.558        0.023      337.382        9.315      866.492
01/27/2015  19:36:00     -353.674      -88.146      -21.637      145.778      110.740       64.009    21251.106    12263.321     4097.143        8.546        1.881      364.492       75.724        0.043      337.414        9.368      866.506
01/27/2015  19:37:00     -255.988      -48.222      -15.228      109.567       73.319       42.474    12005.005     5375.725     1804.026        4.363        0.959      260.490       48.402        0.035      337.396        9.340      866.513
01/27/2015  19:38:00     -159.904      -41.937       -8.148       56.231       48.697       37.497     3161.925     2371.421     1406.041        1.717        0.347      165.312       25.995        0.025      337.411        9.364      866.520
01/27/2015  19:39:00     -210.010      -17.530      -17.827       69.445       61.995       41.982     4822.582     3843.368     1762.529        2.758        0.521      210.740       38.350        0.033      337.380        9.312      866.548
01/27/2015  19:40:00     -197.983      -10.234      -17.325       92.984       51.549       34.626     8646.050     2657.340     1198.970        2.605        0.625      198.247       37.179        0.035      337.392        9.333      866.568
01/27/2015  19:41:00     -110.218        0.714       -4.297       68.615       60.084       42.588     4708.077     3610.145     1813.699        1.115        0.507      110.220       28.962        0.069      337.386        9.324      866.582
01/27/2015  19:42:00      -72.685      -10.145        0.174       57.357       38.232       24.523     3289.799     1461.709      601.368        0.537        0.268       73.389       31.226        0.181      337.379        9.313      866.598
01/27/2015  19:43:00     -117.968      -29.088       -0.234       75.079       74.855       41.965     5636.871     5603.206     1761.047        1.388        0.650      121.502       40.912        0.113      337.387        9.325      866.607
01/27/2015  19:44:00      -96.957      -36.885       -2.955       49.198       44.435       21.293     2420.446     1974.433      453.400        0.781        0.242      103.737       18.532        0.032      337.366        9.292      866.641
01/27/2015  19:45:00      -73.106        6.953        3.460       65.655       42.817       28.306     4310.644     1833.255      801.203        0.617        0.347       73.436       27.935        0.145      337.393        9.337      866.666
01/27/2015  19:46:00      -85.858      -13.660      -16.927       69.343       59.681       21.824     4808.482     3561.768      476.295        0.834        0.442       86.938       24.283        0.078      337.410        9.362      866.693
01/27/2015  19:47:00       -6.119      -26.484       10.920       44.407       41.688       31.509     1972.018     1737.858      992.811        0.278        0.235       27.182       34.572        1.618      337.430        9.399      866.708
01/27/2015  19:48:00       57.574       28.421       12.332       30.596       22.337       20.390      936.087      498.956      415.747        0.306        0.093       64.207       13.271        0.043      337.429        9.396      866.722
01/27/2015  19:49:00       65.352       46.258       27.100       30.862       31.854       27.088      952.461     1014.677      733.771        0.492        0.135       80.067       21.135        0.070      337.414        9.371      866.755
01/27/2015  19:50:00       23.482       20.387       43.747       34.962       56.781       31.115     1222.375     3224.095      968.142        0.415        0.271       31.097       39.937        1.649      337.414        9.371      866.787
01/27/2015  19:51:00       47.154       -7.371       28.559       43.527       44.869       31.797     1894.585     2013.247     1011.044        0.401        0.246       47.726       30.935        0.420      337.277        9.143      866.791
01/27/2015  19:52:00       76.251       65.052       71.980       45.477       36.504       28.536     2068.121     1332.547      814.294        0.972        0.211      100.229       23.991        0.057      337.085        8.820      866.814
01/27/2015  19:53:00      127.017       33.603       40.851       47.435       35.140       41.346     2250.105     1234.849     1709.479        1.206        0.260      131.387       31.886        0.059      337.011        8.694      866.811
01/27/2015  19:54:00       85.572       67.725       74.706       54.909       40.288       45.574     3014.955     1623.125     2077.007        1.210        0.336      109.129       33.946        0.097      337.012        8.696      866.804
01/27/2015  19:55:00       78.046       43.024       60.107       61.092       46.474       35.700     3732.252     2159.845     1274.501        0.936        0.358       89.120       33.348        0.140      337.014        8.701      866.808
01/27/2015  19:56:00       72.834       44.233       35.323       50.096       40.707       32.847     2509.585     1657.057     1078.898        0.688        0.262       85.213       29.156        0.117      337.007        8.688      866.825
01/27/2015  19:57:00       52.410       18.126       28.749       36.619       21.331       21.197     1340.949      455.006      449.327        0.307        0.112       55.456       17.809        0.103      336.994        8.669      866.829
01/27/2015  19:58:00      102.215       57.166       22.903       41.271       30.611       31.216     1703.277      937.063      974.428        0.893        0.181      117.114       21.159        0.033      337.003        8.684      866.824
01/27/2015  19:59:00       92.496        0.730       25.224       53.961       61.152       30.430     2911.790     3739.589      925.986        0.838        0.379       92.499       30.787        0.111      337.076        8.805      866.823
01/27/2015  20:00:00       68.321       61.631       53.425       42.255       36.183       35.503     1785.495     1309.210     1260.477        0.784        0.218       92.011       26.703        0.084      337.033        8.733      866.825
01/27/2015  20:01:00       93.042       18.678        0.066       42.621       23.888       27.884     1816.546      570.633      777.517        0.608        0.158       94.899       17.005        0.032      337.052        8.767      866.838
01/27/2015  20:02:00       18.217       -3.479       10.178       14.373       14.244       14.482      206.578      202.896      209.732        0.053        0.031       18.546        8.680        0.219      337.048        8.759      866.841
01/27/2015  20:03:00       72.172       60.684        5.159       21.017       25.436       18.918      441.721      647.003      357.874        0.518        0.072       94.294        4.860        0.003      337.028        8.725      866.817
01/27/2015  20:04:00       49.723      103.426       84.769       48.492       36.280       45.317     2351.452     1316.253     2053.609        1.304        0.286      114.758       39.787        0.120      337.039        8.745      866.799
01/27/2015  20:05:00       37.705       82.230       75.476       41.357       29.987       23.489     1710.405      899.208      551.713        0.852        0.158       90.462       21.809        0.058      337.012        8.696      866.817
01/27/2015  20:06:00       -1.516       -3.185       48.109       14.951       28.763       12.564      223.535      827.303      157.863        0.177        0.060        3.527       11.722       11.043      337.086        8.821      866.842
01/27/2015  20:07:00       19.450        5.474       48.056       43.675       35.677       34.823     1907.470     1272.820     1212.617        0.355        0.220       20.206       27.847        1.899      337.091        8.831      866.855
01/27/2015  20:08:00       80.866      -30.159       13.714       64.683       58.309       36.042     4183.954     3399.987     1299.047        0.826        0.444       86.307       34.790        0.162      337.079        8.809      866.849
01/27/2015  20:09:00       88.316       52.658       56.650       41.342       39.885       29.257     1709.136     1590.844      855.947        0.897        0.208      102.823       22.607        0.048      337.024        8.717      866.854
01/27/2015  20:10:00       58.126       57.481       49.302       55.270       36.021       29.354     3054.828     1297.525      861.629        0.716        0.261       81.748       26.827        0.108      337.002        8.681      866.851
01/27/2015  20:11:00        7.806        0.570       29.301       27.301       56.799       28.607      745.321     3226.126      818.355        0.285        0.239        7.827       31.423       16.119      337.031        8.729      866.861
01/27/2015  20:12:00        6.888       41.614       64.706       31.201       30.383       15.592      973.506      923.138      243.100        0.405        0.107       42.180       13.972        0.110      337.011        8.696      866.880
01/27/2015  20:13:00       31.289       18.137       29.558       26.874       22.201       17.103      722.187      492.880      292.512        0.184        0.075       36.166        8.858        0.060      336.975        8.636      866.881
01/27/2015  20:14:00       14.314        5.903       22.400       14.493       15.548       18.906      210.053      241.737      357.444        0.078        0.040       15.483       13.516        0.762      336.996        8.672      866.886
01/27/2015  20:15:00       42.811       46.467       55.544       34.504       30.198       26.765     1190.544      911.937      716.342        0.495        0.141       63.182       22.253        0.124      336.950        8.594      866.892
01/27/2015  20:16:00       46.514       33.729       17.934       25.921       17.861       24.265      671.898      319.018      588.772        0.260        0.079       57.456       14.190        0.061      336.925        8.554      866.900
01/27/2015  20:17:00       26.588       23.993       24.939       36.722       16.283       15.708     1348.499      265.152      246.751        0.188        0.093       35.813       15.219        0.181      336.914        8.535      866.908
01/27/2015  20:18:00       58.651       32.742        6.726       25.290       18.299       18.520      639.588      334.842      343.004        0.294        0.066       67.171        9.294        0.019      336.893        8.501      866.919
01/27/2015  20:19:00       84.110       39.282        6.779       17.818       13.853       13.434      317.484      191.913      180.481        0.468        0.034       92.830        7.594        0.007      336.910        8.530      866.929
01/27/2015  20:20:00       54.253       23.116       -2.963       16.604       15.645       13.908      275.700      244.760      193.439        0.210        0.036       58.972       10.643        0.033      336.907        8.526      866.928
01/27/2015  20:21:00       68.102       27.725        5.628       26.483       15.866       13.850      701.360      251.719      191.828        0.329        0.057       73.529       11.417        0.024      336.900        8.514      866.925
01/27/2015  20:22:00       55.288       20.351        1.488       22.260       18.521       15.120      495.505      343.009      228.604        0.227        0.053       58.915        6.211        0.011      336.906        8.521      866.931
01/27/2015  20:23:00       39.344       18.686        1.739       21.863       15.718       14.743      477.971      247.057      217.345        0.142        0.047       43.556       11.518        0.070      336.889        8.493      866.941
01/27/2015  20:24:00       15.649       29.473       -1.081       17.477       16.499       15.607      305.460      272.233      243.591        0.097        0.041       33.370        9.754        0.085      336.884        8.483      866.947
01/27/2015  20:25:00       -9.283       22.522       -7.428       11.052       10.805        7.254      122.146      116.753       52.628        0.047        0.015       24.361        6.214        0.065      336.925        8.555      866.954
01/27/2015  20:26:00       -9.724       -1.033        1.505       20.464        7.383       10.249      418.796       54.513      105.046        0.034        0.029        9.779       12.840        1.724      336.864        8.450      866.951
01/27/2015  20:27:00       70.911       26.155       20.872       29.064       21.524       20.570      844.738      463.296      423.138        0.394        0.087       75.581       15.699        0.043      336.909        8.528      866.920
01/27/2015  20:28:00      100.488       96.898       40.514       50.661       27.573       39.233     2566.530      760.249     1539.202        1.300        0.243      139.596       41.657        0.089      336.906        8.520      866.878
01/27/2015  20:29:00       94.153       95.649       66.428       54.773       28.941       30.825     3000.097      837.564      950.158        1.361        0.239      134.214       28.598        0.045      336.883        8.482      866.852
01/27/2015  20:30:00        1.910       75.393       91.713       30.246       38.956       22.332      914.794     1517.559      498.735        0.851        0.147       75.417       18.003        0.057      336.867        8.456      866.832
01/27/2015  20:31:00       13.910       45.317       63.303       22.224       37.012       20.468      493.894     1369.924      418.921        0.427        0.114       47.404       20.587        0.189      336.870        8.461      866.833
01/27/2015  20:32:00       19.048      -34.994       24.831       27.393       56.300       26.251      750.379     3169.663      689.129        0.341        0.230       39.842       35.149        0.778      336.986        8.655      866.853
01/27/2015  20:33:00        6.749      -64.954        0.442       39.812       35.928       22.728     1584.986     1290.812      516.553        0.383        0.170       65.303       14.833        0.052      336.999        8.677      866.885
01/27/2015  20:34:00      -49.421      -39.146        2.838       53.531       27.070       18.448     2865.546      732.785      340.321        0.396        0.197       63.047       12.365        0.038      336.989        8.659      866.909
01/27/2015  20:35:00       17.492      -33.929       10.539       13.497       25.917       19.009      182.160      671.692      361.356        0.139        0.061       38.172       17.474        0.210      336.997        8.673      866.917
01/27/2015  20:36:00        3.596       18.650       23.307       16.236       20.323       19.904      263.597      413.025      396.167        0.099        0.054       18.994       14.231        0.561      336.976        8.637      866.911
01/27/2015  20:37:00      -25.121       -5.999       25.087       16.890       22.553       13.722      285.276      508.630      188.296        0.114        0.049       25.828       14.607        0.320      337.011        8.695      866.899
01/27/2015  20:38:00      -23.516      -48.712       13.814       38.568       51.710       31.174     1487.520     2673.898      971.823        0.412        0.257       54.091       19.371        0.128      337.061        8.780      866.889
01/27/2015  20:39:00       -6.683      -51.120       -5.631       31.046       31.004       22.274      963.834      961.255      496.124        0.255        0.121       51.555       13.446        0.068      337.087        8.824      866.895
01/27/2015  20:40:00      -39.229      -15.023       -7.464       19.700       19.553       18.401      388.095      382.325      338.586        0.146        0.055       42.007       12.894        0.094      337.091        8.830      866.903
01/27/2015  20:41:00      -20.365       -9.453        5.256       29.697       30.572       19.508      881.929      934.648      380.574        0.136        0.110       22.452       19.710        0.771      337.106        8.856      866.911
01/27/2015  20:42:00       -3.517      -12.313        4.992       32.040       18.859       16.435     1026.547      355.654      270.114        0.092        0.083       12.805       10.574        0.682      337.071        8.797      866.918
01/27/2015  20:43:00      -65.853      -36.527       12.435       30.735       39.194       21.784      944.610     1536.183      474.526        0.439        0.148       75.305       13.724        0.033      337.065        8.786      866.927
01/27/2015  20:44:00     -111.240      -63.469       -0.030       49.569       41.319       30.444     2457.066     1707.287      926.820        1.075        0.255      128.073       29.067        0.052      337.106        8.855      866.933
01/27/2015  20:45:00      -91.474      -79.823       -4.110       40.887       50.955       21.282     1671.723     2596.396      452.904        0.974        0.236      121.405       23.406        0.037      337.128        8.891      866.943
01/27/2015  20:46:00      -80.337      -36.404       10.626       53.085       43.390       31.029     2817.979     1882.661      962.806        0.678        0.283       88.200       28.217        0.102      337.119        8.877      866.958
01/27/2015  20:47:00      -76.933     -104.439       -0.647       38.909       68.332       27.575     1513.875     4669.290      760.395        1.188        0.347      129.715       28.723        0.049      337.157        8.942      866.970
01/27/2015  20:48:00      -78.209      -51.487        2.628       53.304       35.654       25.567     2841.308     1271.172      653.690        0.677        0.238       93.635       28.470        0.092      337.157        8.942      866.971
01/27/2015  20:49:00      -89.886      -59.860        5.020       60.893       47.204       28.118     3707.975     2228.210      790.627        0.921        0.336      107.994       26.499        0.060      337.109        8.861      866.976
01/27/2015  20:50:00      -60.033      -24.119       -1.205       65.056       36.059       28.071     4232.262     1300.234      787.973        0.525        0.316       64.697       23.933        0.137      337.131        8.897      866.997
01/27/2015  20:51:00      -70.811      -22.655        9.138       56.462       43.939       23.750     3187.997     1930.676      564.077        0.565        0.284       74.347       23.276        0.098      337.116        8.873      867.013
01/27/2015  20:52:00     -110.173      -63.692       -6.821       48.155       44.731       26.655     2318.860     2000.842      710.489        1.063        0.252      127.258       23.974        0.035      337.150        8.929      867.023
01/27/2015  20:53:00     -137.481      -53.892       -1.342       93.015       60.956       32.419     8651.850     3715.626     1051.009        1.761        0.671      147.667       28.616        0.038      337.157        8.940      867.028
01/27/2015  20:54:00      -56.558      -64.822       -3.576       44.960       42.335       21.354     2021.410     1792.211      456.012        0.584        0.213       86.028       11.724        0.019      337.158        8.944      867.037
01/27/2015  20:55:00      -24.362      -71.313        1.978       37.347       29.953       16.814     1394.822      897.172      282.701        0.413        0.129       75.359       10.363        0.019      337.173        8.967      867.045
01/27/2015  20:56:00      -17.307      -72.409        0.961       66.099       50.613       34.458     4369.043     2561.690     1187.365        0.683        0.406       74.448       32.101        0.186      337.242        9.083      867.049
01/27/2015  20:57:00      -60.765      -61.176       -5.546       41.001       25.150       15.551     1681.110      632.525      241.834        0.501        0.128       86.226       10.512        0.015      337.191        8.998      867.059
01/27/2015  20:58:00      -55.987      -11.449       11.428       58.474       63.982       37.169     3419.196     4093.658     1381.568        0.614        0.445       57.146       30.117        0.278      337.214        9.038      867.056
01/27/2015  20:59:00      -57.071      -75.137       -6.319       50.611       39.040       23.654     2561.466     1524.092      559.526        0.679        0.232       94.354       17.723        0.035      337.249        9.096      867.062
01/27/2015  21:00:00      -88.341     -111.764       -4.283       64.482       56.751       32.261     4157.981     3220.703     1040.762        1.437        0.421      142.462       29.151        0.042      337.315        9.206      867.076
01/27/2015  21:01:00     -130.850      -31.897       -7.967       64.865       33.700       29.059     4207.485     1135.706      844.454        1.219        0.309      134.681       33.397        0.061      337.217        9.041      867.073
01/27/2015  21:02:00      -40.702      -74.970        4.506       43.215       53.603       24.264     1867.560     2873.233      588.719        0.631        0.266       85.306       26.432        0.096      337.236        9.074      867.092
01/27/2015  21:03:00      -92.476      -48.415        0.836       55.718       45.572       32.516     3104.451     2076.801     1057.306        0.857        0.312      104.384       23.883        0.052      337.229        9.063      867.104
01/27/2015  21:04:00     -144.525      -49.374        4.070       82.707       65.687       37.182     6840.473     4314.734     1382.494        1.794        0.627      152.726       39.252        0.066      337.218        9.042      867.107
01/27/2015  21:05:00     -138.027     -123.315       -6.130       63.802       57.206       38.405     4070.677     3272.483     1474.963        2.156        0.441      185.090       33.609        0.033      337.224        9.052      867.106
01/27/2015  21:06:00     -169.739     -108.073        6.088       91.454       62.932       38.927     8363.909     3960.436     1515.347        2.718        0.692      201.224       23.374        0.013      337.238        9.077      867.095
01/27/2015  21:07:00     -111.422     -108.290       11.739      153.886       89.349       70.740    23680.890     7983.226     5004.131        3.047        1.833      155.375       58.214        0.140      337.329        9.229      867.087
01/27/2015  21:08:00     -128.782      -94.951       -4.257      178.414       89.518       56.694    31831.448     8013.387     3214.170        3.433        2.153      160.002       84.179        0.277      337.337        9.241      867.074
01/27/2015  21:09:00      -59.208     -174.654       -3.106      102.603      102.278       52.420    10527.456    10460.880     2747.860        2.887        1.187      184.416       35.600        0.037      337.386        9.322      867.104
01/27/2015  21:10:00     -107.676     -123.708       16.628      107.417       78.999       54.343    11538.450     6240.787     2953.118        2.395        1.037      164.005       44.225        0.073      337.292        9.166      867.116
01/27/2015  21:11:00     -139.220     -104.158       11.104      153.123      106.540       61.878    23446.558    11350.873     3828.945        3.448        1.931      173.871       64.122        0.136      337.258        9.109      867.113
01/27/2015  21:12:00      -40.498      -82.578       -2.961       90.196       91.033       58.836     8135.356     8287.094     3461.652        1.417        0.994       91.974       52.192        0.322      337.301        9.182      867.100
01/27/2015  21:13:00      -82.438     -171.745       -3.550       85.857       92.121       61.369     7371.400     8486.217     3766.202        2.796        0.981      190.505       43.363        0.052      337.387        9.325      867.121
01/27/2015  21:14:00      -31.898     -126.936        9.344       70.057       63.632       51.853     4907.962     4049.083     2688.777        1.443        0.582      130.882       16.107        0.015      337.447        9.426      867.133
01/27/2015  21:15:00      -52.666     -139.473       -1.464       76.698       58.454       42.944     5882.528     3416.870     1844.171        1.668        0.557      149.085       27.487        0.034      337.508        9.527      867.136
01/27/2015  21:16:00      -26.362     -178.048      -16.338      126.663       82.057       52.569    16043.480     6733.391     2763.543        2.910        1.277      179.989       61.477        0.117      337.424        9.386      867.150
01/27/2015  21:17:00      -71.681     -198.375      -12.883      113.898       98.526       54.785    12972.642     9707.302     3001.413        3.516        1.284      210.929       47.122        0.050      337.353        9.266      867.156
01/27/2015  21:18:00     -114.803     -124.923       17.597      123.983       91.332       63.128    15371.735     8341.473     3985.185        2.839        1.385      169.663       49.383        0.085      337.245        9.087      867.166
01/27/2015  21:19:00     -230.757     -221.961       -4.747      130.876      109.304       59.005    17128.505    11947.321     3481.575        6.754        1.628      320.180       53.406        0.028      337.274        9.135      867.164
01/27/2015  21:20:00     -238.503     -153.092       -3.095      111.002       73.904       54.754    12321.350     5461.853     2998.049        5.055        1.039      283.409       41.893        0.022      337.250        9.094      867.143
01/27/2015  21:21:00     -159.024     -178.760        4.311      113.872       80.950       58.680    12966.734     6552.867     3443.360        4.011        1.148      239.257       52.151        0.048      337.252        9.097      867.118
01/27/2015  21:22:00     -137.785     -155.196       -8.730       94.538       79.481       35.668     8937.423     6317.284     1272.173        2.983        0.826      207.534       47.307        0.052      337.216        9.040      867.095
01/27/2015  21:23:00     -164.518     -271.950      -13.988       97.154       79.377       48.819     9438.981     6300.691     2383.263        5.967        0.906      317.841       24.137        0.006      337.249        9.092      867.088
01/27/2015  21:24:00     -185.383     -124.570        2.556      134.202       58.784       45.144    18010.301     3455.547     2038.017        3.669        1.175      223.348       50.957        0.052      337.211        9.029      867.071
01/27/2015  21:25:00     -214.204     -155.202       -3.950      123.664       75.124       44.564    15292.719     5643.554     1985.985        4.645        1.146      264.520       51.781        0.038      337.252        9.099      867.053
01/27/2015  21:26:00     -244.504     -132.477       -8.394      102.274       69.156       59.284    10460.045     4782.559     3514.575        4.808        0.938      278.086       62.753        0.051      337.238        9.075      867.040
01/27/2015  21:27:00     -241.991      -96.728      -17.580       99.733       72.698       47.546     9946.642     5284.985     2260.634        4.286        0.875      260.607       42.611        0.027      337.186        8.987      867.049
01/27/2015  21:28:00     -208.615     -155.602       -2.311      106.315       71.220       43.996    11302.874     5072.342     1935.670        4.302        0.916      260.254       42.987        0.027      337.196        9.005      867.052
01/27/2015  21:29:00      -44.009     -210.797       -4.794       62.508       59.771       33.630     3907.281     3572.607     1130.961        2.750        0.431      215.342       25.938        0.015      337.340        9.246      867.038
01/27/2015  21:30:00     -186.395     -149.540       -3.738       92.174       76.163       52.286     8496.021     5800.776     2733.832        3.707        0.852      238.967       57.033        0.057      337.239        9.076      867.014
01/27/2015  21:31:00     -237.960     -145.276       -1.890      102.822       69.958       47.771    10572.397     4894.181     2282.083        4.774        0.887      278.801       44.713        0.026      337.158        8.941      867.014
01/27/2015  21:32:00     -206.581     -151.083        3.701      110.199       73.592       59.193    12143.873     5415.799     3503.787        4.329        1.053      255.933       60.520        0.056      337.159        8.942      867.027
01/27/2015  21:33:00     -236.783     -114.474        3.126       72.186       55.908       28.822     5210.785     3125.705      830.718        3.917        0.458      263.003       28.541        0.012      337.190        8.993      867.036
01/27/2015  21:34:00     -149.206     -102.361       -1.727       60.044       53.243       32.622     3605.273     2834.816     1064.165        2.012        0.375      180.943       29.609        0.027      337.198        9.009      867.041
01/27/2015  21:35:00     -159.979     -151.035       -5.737       84.288       56.791       45.837     7104.490     3225.227     2101.056        3.043        0.622      220.011       33.413        0.023      337.166        8.952      867.048
01/27/2015  21:36:00     -186.033     -136.240       -2.321       73.304       58.046       39.545     5373.411     3369.317     1563.814        3.174        0.515      230.586       32.537        0.020      337.228        9.057      867.058
01/27/2015  21:37:00     -176.408     -146.061        1.985      105.404       62.726       46.947    11109.990     3934.518     2204.045        3.485        0.862      229.028       56.605        0.061      337.212        9.030      867.072
01/27/2015  21:38:00     -152.362     -116.042       -6.872       75.249       64.725       27.597     5662.359     4189.345      761.604        2.367        0.531      191.520       32.153        0.028      337.222        9.049      867.090
01/27/2015  21:39:00     -150.220     -100.849       -0.842       62.719       53.552       35.333     3933.670     2867.779     1248.415        2.039        0.402      180.933       32.992        0.033      337.152        8.932      867.091
01/27/2015  21:40:00     -150.315     -137.041      -17.416       44.926       68.657       38.783     2018.364     4713.813     1504.098        2.496        0.412      203.408       20.584        0.010      337.176        8.972      867.098
01/27/2015  21:41:00      -77.195      -80.513        5.427       61.635       48.983       27.625     3798.874     2399.364      763.122        0.971        0.348      111.541       25.658        0.053      337.163        8.951      867.104
01/27/2015  21:42:00     -133.532      -60.744        2.114       53.113       44.237       24.133     2821.019     1956.951      582.416        1.344        0.268      146.699       19.759        0.018      337.102        8.849      867.117
01/27/2015  21:43:00     -143.126      -45.973       -6.027       63.640       54.211       35.943     4050.015     2938.828     1291.867        1.546        0.414      150.328       36.145        0.058      337.088        8.823      867.124
01/27/2015  21:44:00     -101.496      -40.409       -1.826       36.880       31.073       19.781     1360.112      965.521      391.297        0.733        0.136      109.245       16.808        0.024      337.040        8.744      867.134
01/27/2015  21:45:00      -74.482      -22.541        4.934       36.155       26.967       20.719     1307.157      727.224      429.288        0.427        0.123       77.818       18.708        0.058      337.078        8.809      867.141
01/27/2015  21:46:00      -92.422       25.658       -6.012       26.900       27.106       14.704      723.619      734.719      216.200        0.546        0.084       95.918       11.882        0.015      337.062        8.781      867.149
01/27/2015  21:47:00      -62.981       36.136      -17.681       33.183       25.652       16.932     1101.120      658.009      286.706        0.382        0.102       72.611       15.563        0.046      336.973        8.633      867.177
01/27/2015  21:48:00       16.958       36.794        2.486       27.525       18.587       10.896      757.606      345.474      118.730        0.143        0.061       40.514       10.064        0.062      336.881        8.480      867.197
01/27/2015  21:49:00        5.503       16.839       25.212       17.488       23.640       18.818      305.829      558.847      354.114        0.108        0.061       17.715       16.859        0.906      336.828        8.392      867.212
01/27/2015  21:50:00        4.773       16.582       37.663       33.243       39.604       25.260     1105.116     1568.503      638.069        0.251        0.166       17.255       21.429        1.542      336.787        8.323      867.228
01/27/2015  21:51:00       66.728      -59.244       24.545       54.324       72.014       50.384     2951.050     5185.966     2538.520        0.962        0.534       89.233       47.925        0.288      336.726        8.222      867.230
01/27/2015  21:52:00       85.893       29.420       46.604       67.216       70.514       48.303     4518.032     4972.180     2333.154        1.112        0.591       90.792       35.507        0.153      336.539        7.908      867.236
01/27/2015  21:53:00      172.645       94.525       10.676       36.297       39.843       31.309     1317.438     1587.484      980.271        2.137        0.194      196.828       22.153        0.013      336.297        7.502      867.243
01/27/2015  21:54:00      123.026      108.330        4.181       49.317       37.728       36.549     2432.148     1423.389     1335.855        1.604        0.260      163.923       17.054        0.011      336.238        7.404      867.244
01/27/2015  21:55:00      125.608       66.261       19.349       42.362       29.528       30.993     1794.518      871.894      960.590        1.208        0.181      142.014       14.650        0.011      336.238        7.406      867.250
01/27/2015  21:56:00      125.991       65.344       18.568       26.244       26.646       22.116      688.751      709.986      489.130        1.119        0.094      141.928       10.619        0.006      336.222        7.378      867.266
01/27/2015  21:57:00       62.854       23.564        4.421       34.248       24.006       22.373     1172.936      576.299      500.535        0.339        0.112       67.126       11.684        0.030      336.146        7.251      867.266
01/27/2015  21:58:00       67.747       21.771        4.724       21.622       26.283       18.406      467.531      690.786      338.764        0.329        0.075       71.159        8.213        0.013      336.139        7.240      867.270
01/27/2015  21:59:00       23.954       29.075       28.621       21.850       23.671       16.770      477.404      560.329      281.241        0.178        0.066       37.671       13.324        0.125      336.111        7.193      867.277
01/27/2015  22:00:00       27.930        7.163       19.640       30.678       10.537       12.661      941.162      111.033      160.289        0.121        0.061       28.834       11.769        0.167      336.085        7.149      867.295
01/27/2015  22:01:00       80.611       55.936       40.084       18.494       15.944       21.773      342.017      254.227      474.043        0.615        0.054       98.117        9.990        0.010      336.282        7.479      867.297
01/27/2015  22:02:00       20.049       38.283       15.162       59.752       21.293       23.923     3570.330      453.400      572.300        0.335        0.230       43.215       27.970        0.419      336.386        7.653      867.306
01/27/2015  22:03:00      -63.188       30.868      -17.278       22.906       24.254       14.717      524.666      588.272      216.602        0.329        0.066       70.325        8.411        0.014      336.163        7.279      867.320
01/27/2015  22:04:00      -80.622       61.452      -21.640       23.374       26.751       14.469      546.334      715.615      209.362        0.611        0.074      101.371       11.222        0.012      335.971        6.959      867.338
01/27/2015  22:05:00      -79.152       78.561      -16.482       23.400       34.449       16.642      547.566     1186.727      276.958        0.736        0.101      111.521       13.777        0.015      336.052        7.095      867.346
01/27/2015  22:06:00      -77.839       89.789      -19.841       31.597       19.926       18.516      998.401      397.051      342.858        0.813        0.087      118.832       16.660        0.020      336.212        7.362      867.360
01/27/2015  22:07:00      -90.111      128.487      -24.914       19.918       21.690       16.937      396.710      470.437      286.869        1.320        0.058      156.936       10.355        0.004      336.299        7.508      867.373
01/27/2015  22:08:00      -47.170      134.184      -16.378       32.003       30.142       13.929     1024.212      908.513      194.003        1.131        0.106      142.234       13.141        0.009      336.474        7.800      867.390
01/27/2015  22:09:00      -15.489      143.662      -16.308       15.708       19.013        7.672      246.728      361.485       58.866        1.091        0.033      144.494        6.391        0.002      336.444        7.749      867.395
01/27/2015  22:10:00        7.752      108.659      -17.319       10.802       19.439       12.420      116.673      377.886      154.267        0.641        0.032      108.935        9.253        0.007      336.349        7.591      867.390
01/27/2015  22:11:00       34.574       50.955       -3.986       22.912       29.669       19.561      524.953      880.263      382.627        0.280        0.089       61.578       17.429        0.080      336.205        7.350      867.387
01/27/2015  22:12:00       -5.844       56.399      -11.480       23.116       46.357       12.644      534.372     2149.007      159.880        0.309        0.142       56.701       18.101        0.102      336.231        7.394      867.395
01/27/2015  22:13:00      -28.581       87.276      -12.458       24.138       34.492       12.529      582.629     1189.732      156.986        0.526        0.096       91.837       14.475        0.025      336.298        7.506      867.410
01/27/2015  22:14:00      -22.376        4.248        2.904       16.481       24.008       12.220      271.634      576.383      149.321        0.076        0.050       22.776       10.009        0.193      336.074        7.130      867.421
01/27/2015  22:15:00      -56.015      -18.222       -2.914       31.189       24.731       11.995      972.771      611.629      143.892        0.260        0.086       58.904       11.766        0.040      335.852        6.762      867.432
01/27/2015  22:16:00        1.564      -27.554        1.384       33.112       19.331       18.808     1096.374      373.705      353.748        0.129        0.091       27.599        7.085        0.066      335.800        6.675      867.437
01/27/2015  22:17:00       -7.230      -12.106        7.530       18.835       10.240       11.099      354.774      104.864      123.197        0.042        0.029       14.101       11.394        0.653      335.733        6.564      867.451
01/27/2015  22:18:00      -21.386      -38.996       -9.147       14.530       21.341        9.164      211.113      455.439       83.986        0.141        0.038       44.475        4.599        0.011      335.790        6.659      867.478
01/27/2015  22:19:00      -21.671      -21.902       -0.946       12.190       10.389        8.867      148.600      107.928       78.621        0.064        0.017       30.811        6.765        0.048      335.845        6.751      867.482
01/27/2015  22:20:00       -8.321      -12.630        3.768       13.071       13.549        6.601      170.850      183.581       43.574        0.032        0.020       15.125        1.976        0.017      335.855        6.766      867.487
01/27/2015  22:21:00       13.734       31.653       -5.874       11.815       15.777       10.393      139.584      248.913      108.011        0.086        0.025       34.504        4.887        0.020      335.983        6.980      867.499
01/27/2015  22:22:00       20.034       81.311       -8.731       21.762       30.224       13.820      473.587      913.509      190.996        0.433        0.079       83.743       12.969        0.024      336.126        7.220      867.521
01/27/2015  22:23:00        8.612       74.109       -4.951       13.338       31.297       19.878      177.915      979.496      395.116        0.357        0.078       74.607       21.261        0.081      336.029        7.056      867.530
01/27/2015  22:24:00      -39.667       57.385       -6.265       29.749       40.135       14.530      885.024     1610.783      211.123        0.381        0.135       69.761       11.666        0.028      335.933        6.897      867.546
01/27/2015  22:25:00      -62.573        2.416      -13.409       20.925       25.666       12.747      437.838      658.758      162.497        0.268        0.063       62.620       10.760        0.030      335.420        6.042      867.554
01/27/2015  22:26:00      -62.841       20.137      -13.197       28.431       28.885       19.204      808.339      834.362      368.812        0.327        0.101       65.989       12.919        0.038      335.433        6.062      867.555
01/27/2015  22:27:00      -74.624       11.192      -21.900       21.118       19.501       17.037      445.960      380.278      290.264        0.364        0.056       75.459       15.544        0.042      335.556        6.267      867.565
01/27/2015  22:28:00      -56.227       -6.818       -1.996       15.516       18.443       14.596      240.756      340.155      213.054        0.200        0.040       56.639       15.094        0.071      335.621        6.376      867.574
01/27/2015  22:29:00      -68.294       -6.334      -10.943       17.942       24.174       11.740      321.899      584.360      137.829        0.293        0.052       68.587        8.444        0.015      335.368        5.954      867.580
01/27/2015  22:30:00     -129.103       13.720       -5.447       69.338       42.822       26.001     4807.726     1833.746      676.066        1.210        0.366      129.830       29.402        0.051      335.146        5.585      867.573
01/27/2015  22:31:00     -164.716       31.350      -13.892       53.106       37.189       26.654     2820.275     1383.029      710.447        1.661        0.246      167.672       23.667        0.020      335.083        5.480      867.564
01/27/2015  22:32:00     -129.546       47.998      -15.693       38.307       22.599       16.994     1467.419      510.719      288.807        1.080        0.113      138.152       13.199        0.009      335.189        5.657      867.552
01/27/2015  22:33:00      -78.399       27.692      -14.965       29.199       30.397       15.894      852.589      923.990      252.610        0.458        0.101       83.146       11.815        0.020      335.398        6.005      867.544
01/27/2015  22:34:00      -61.289       -5.693       -4.900       30.715       25.523       14.394      943.405      651.403      207.173        0.281        0.090       61.553        7.733        0.016      335.247        5.753      867.539
01/27/2015  22:35:00      -55.374      -27.435       -6.934       34.607       21.332       12.209     1197.644      455.034      149.058        0.283        0.090       61.798       13.820        0.050      335.127        5.555      867.547
01/27/2015  22:36:00      -54.107      -23.937       -7.437       22.870       14.346       12.714      523.014      205.814      161.642        0.222        0.045       59.166        4.302        0.005      335.074        5.467      867.571
01/27/2015  22:37:00      -67.029       -3.751      -13.724       16.362       21.555       13.120      267.726      464.611      172.126        0.280        0.045       67.134        6.511        0.009      335.168        5.623      867.591
01/27/2015  22:38:00      -53.084        4.755      -15.169       17.979       16.248       13.705      323.248      264.008      187.821        0.192        0.039       53.297       12.590        0.056      335.339        5.907      867.611
01/27/2015  22:39:00      -69.004       75.504      -16.309       19.673       33.642       15.013      387.025     1131.777      225.385        0.624        0.087      102.286       12.481        0.015      335.959        6.940      867.616
01/27/2015  22:40:00      -46.742       39.193       -4.098       33.397       35.059       13.890     1115.384     1229.161      192.924        0.314        0.127       60.999       16.121        0.070      335.708        6.522      867.635
01/27/2015  22:41:00      -73.857      -18.832        0.721       23.848       36.480       29.200      568.707     1330.785      852.611        0.428        0.138       76.220       15.829        0.043      334.975        5.302      867.653
01/27/2015  22:42:00     -122.267        9.117       -8.529       37.132       34.301       24.417     1378.799     1176.541      596.189        0.913        0.158      122.606       19.033        0.024      334.884        5.150      867.675
01/27/2015  22:43:00      -93.139       18.203      -13.403       44.149       39.499       18.684     1949.133     1560.158      349.111        0.652        0.193       94.901        9.043        0.009      335.071        5.461      867.680
01/27/2015  22:44:00      -75.145       13.095      -13.254       20.478       24.969       14.442      419.329      623.451      208.563        0.362        0.063       76.277        8.596        0.013      335.380        5.975      867.690
01/27/2015  22:45:00      -51.063       24.760       -9.124       20.800       23.006       14.078      432.624      529.291      198.177        0.223        0.058       56.750        7.302        0.017      335.440        6.074      867.705
01/27/2015  22:46:00      -44.045      -18.821       -9.147       16.031       21.639       12.410      256.999      468.259      154.003        0.163        0.044       47.898        7.376        0.024      335.161        5.611      867.722
01/27/2015  22:47:00     -129.270      -39.821      -13.099       38.008       19.628       14.030     1444.584      385.249      196.847        1.025        0.101      135.264       17.883        0.017      334.952        5.265      867.742
01/27/2015  22:48:00     -118.645      -60.305       -8.701       30.314       36.265       23.450      918.965     1315.117      549.887        1.029        0.139      133.092       20.032        0.023      334.836        5.072      867.749
01/27/2015  22:49:00     -106.352       -1.467       -3.965       43.124       37.668       22.582     1859.671     1418.913      509.946        0.756        0.189      106.362       26.052        0.060      334.858        5.107      867.749
01/27/2015  22:50:00     -103.615      -15.254       -6.562       39.302       24.214       19.646     1544.620      586.338      385.960        0.676        0.126      104.731       20.133        0.037      334.765        4.954      867.753
01/27/2015  22:51:00     -117.084      -13.166       -5.558       46.600       37.273       25.759     2171.604     1389.261      663.509        0.907        0.211      117.822       23.552        0.040      334.751        4.931      867.758
01/27/2015  22:52:00      -79.560       -2.887       -3.307       40.371       38.232       28.137     1629.797     1461.669      791.707        0.512        0.194       79.612       21.200        0.071      334.653        4.768      867.761
01/27/2015  22:53:00     -122.540       15.787       -9.409       46.918       37.741       26.106     2201.281     1424.399      681.538        0.983        0.215      123.553       24.206        0.038      334.750        4.928      867.760
01/27/2015  22:54:00     -101.209       22.527      -12.385       46.400       33.082       16.802     2152.929     1094.420      282.298        0.722        0.176      103.686       15.638        0.023      334.808        5.024      867.762
01/27/2015  22:55:00      -87.173       18.410       -6.412       38.358       32.966       26.479     1471.324     1086.759      701.160        0.562        0.163       89.096       18.144        0.041      334.782        4.982      867.768
01/27/2015  22:56:00     -122.137       20.346      -12.095       51.288       35.444       26.590     2630.412     1256.253      707.014        1.003        0.230      123.820       20.440        0.027      334.700        4.845      867.773
01/27/2015  22:57:00     -194.780       31.933      -26.454       59.087       46.376       28.278     3491.233     2150.749      799.628        2.305        0.322      197.380       25.215        0.016      334.615        4.701      867.782
01/27/2015  22:58:00     -145.059       12.225      -16.015       41.724       52.559       25.071     1740.909     2762.494      628.565        1.329        0.257      145.573       19.400        0.018      334.607        4.691      867.794
01/27/2015  22:59:00     -170.049       59.233      -16.476       60.502       39.467       31.984     3660.472     1557.659     1022.953        1.947        0.312      180.070       26.370        0.021      334.602        4.679      867.804
01/27/2015  23:00:00     -170.683       54.645       -8.937       67.339       40.713       32.242     4534.607     1657.520     1039.521        1.971        0.362      179.217       27.833        0.024      334.561        4.612      867.805
01/27/2015  23:01:00     -193.508       40.849      -14.172       62.931       42.835       29.884     3960.341     1834.843      893.064        2.300        0.334      197.772       26.242        0.018      334.578        4.638      867.816
01/27/2015  23:02:00     -167.361       23.771      -19.102       46.117       43.885       31.905     2126.737     1925.893     1017.920        1.700        0.254      169.041       19.585        0.013      334.615        4.703      867.833
01/27/2015  23:03:00     -152.754       31.028      -13.884       43.388       34.037       24.970     1882.550     1158.515      623.497        1.408        0.183      155.874       15.127        0.009      334.705        4.853      867.839
01/27/2015  23:04:00     -121.453       14.056      -14.954       41.433       36.705       27.268     1716.657     1347.240      743.547        0.949        0.190      122.264       16.264        0.018      334.808        5.024      867.854
01/27/2015  23:05:00     -150.352      -28.305      -16.974       45.804       53.084       25.978     2098.046     2817.963      674.873        1.464        0.280      152.993       16.782        0.012      334.609        4.693      867.869
01/27/2015  23:06:00      -95.666      -13.669       -7.553       43.201       41.151       27.948     1866.337     1693.381      781.111        0.687        0.217       96.638       24.827        0.066      334.610        4.697      867.869
01/27/2015  23:07:00     -117.254        0.728      -16.479       33.019       30.526       20.828     1090.286      931.817      433.820        0.824        0.123      117.256       18.038        0.024      334.647        4.757      867.880
01/27/2015  23:08:00      -81.945      -40.249       -9.666       46.323       37.013       18.137     2145.849     1369.939      328.942        0.614        0.192       91.296       13.657        0.022      334.585        4.655      867.884
01/27/2015  23:09:00     -110.962      -58.320       -7.432       50.278       47.057       23.012     2527.858     2214.407      529.566        1.052        0.264      125.354       27.307        0.047      334.549        4.594      867.876
01/27/2015  23:10:00      -88.272      -55.141       -2.641       67.147       37.371       33.348     4508.673     1396.558     1112.118        0.893        0.351      104.079       36.208        0.121      334.573        4.633      867.889
01/27/2015  23:11:00     -185.941       -5.923      -26.179       35.035       38.723       22.867     1227.433     1499.497      522.886        1.927        0.162      186.036       19.859        0.011      334.538        4.575      867.889
01/27/2015  23:12:00     -152.801      -27.407      -12.716       38.960       37.270       28.210     1517.907     1389.071      795.829        1.398        0.185      155.239       26.879        0.030      334.542        4.582      867.890
01/27/2015  23:13:00     -115.304      -18.143       -7.367       32.034       36.064       21.719     1026.173     1300.586      471.727        0.824        0.140      116.723       14.373        0.015      334.553        4.601      867.898
01/27/2015  23:14:00     -141.055      -41.407      -11.474       41.713       41.094       26.989     1739.956     1688.696      728.391        1.295        0.208      147.006       24.173        0.027      334.608        4.692      867.894
01/27/2015  23:15:00     -165.568      -14.105      -12.712       56.956       42.489       29.863     3243.958     1805.284      891.778        1.686        0.297      166.168       29.406        0.031      334.580        4.643      867.894
01/27/2015  23:16:00     -202.510       14.846      -17.171       60.953       33.757       31.866     3715.315     1139.502     1015.433        2.370        0.294      203.053       33.932        0.028      334.551        4.595      867.897
01/27/2015  23:17:00     -168.873       -0.983      -16.101       47.633       47.288       26.159     2268.893     2236.150      684.270        1.698        0.259      168.876       22.269        0.017      334.557        4.606      867.886
01/27/2015  23:18:00     -153.997        9.651      -21.495       43.866       31.253       22.391     1924.227      976.719      501.349        1.384        0.170      154.299       20.902        0.018      334.657        4.772      867.888
01/27/2015  23:19:00     -132.172      -26.199      -19.470       47.855       43.063       25.515     2290.108     1854.463      651.033        1.166        0.240      134.744       27.855        0.043      334.633        4.732      867.903
01/27/2015  23:20:00     -124.591       -9.691      -10.506       34.281       43.313       19.474     1175.191     1875.979      379.256        0.958        0.172      124.967       14.772        0.014      334.558        4.609      867.911
01/27/2015  23:21:00     -132.823      -12.682      -12.725       43.001       33.450       22.171     1849.093     1118.931      491.540        1.071        0.173      133.427       21.257        0.025      334.522        4.548      867.922
01/27/2015  23:22:00      -86.327        2.139      -10.622       27.417       25.775       20.949      751.710      664.325      438.877        0.471        0.093       86.354       15.694        0.033      334.464        4.454      867.945
01/27/2015  23:23:00     -107.379        5.751       -6.996       44.137       37.866       23.854     1948.065     1433.859      569.024        0.778        0.198      107.533       21.831        0.041      334.432        4.401      867.951
01/27/2015  23:24:00     -109.094       14.536      -14.103       37.290       32.681       17.888     1390.566     1068.016      319.992        0.754        0.139      110.058       15.037        0.019      334.429        4.396      867.948
01/27/2015  23:25:00     -170.017        1.934      -23.542       25.372       26.169       21.288      643.758      684.840      453.175        1.562        0.089      170.028       13.948        0.007      334.503        4.518      867.961
01/27/2015  23:26:00     -143.175        0.972      -17.178       33.457       33.821       21.463     1119.392     1143.833      460.669        1.176        0.136      143.179       18.425        0.017      334.513        4.535      867.964
01/27/2015  23:27:00     -110.132      -10.090      -14.981       26.105       28.051       22.285      681.489      786.831      496.639        0.721        0.098      110.593       18.807        0.029      334.447        4.428      867.957
01/27/2015  23:28:00      -93.488       -4.194       -4.187       41.244       39.321       19.198     1701.065     1546.117      368.551        0.619        0.181       93.582       20.061        0.046      334.622        4.716      867.970
01/27/2015  23:29:00      -68.268       -3.848       -6.909       26.485       24.449       18.589      701.447      597.746      345.538        0.318        0.082       68.377       10.231        0.022      334.599        4.678      867.962
01/27/2015  23:30:00      -92.367      -15.572       -8.373       47.417       24.684       20.301     2248.377      609.305      412.145        0.606        0.163       93.670       24.881        0.071      334.506        4.524      867.956
01/27/2015  23:31:00     -131.540      -29.834       -8.218       25.774       21.307       20.912      664.311      453.975      437.312        0.991        0.078      134.881       17.441        0.017      334.455        4.439      867.970
01/27/2015  23:32:00     -149.948      -24.762      -15.546       28.744       26.791       18.061      826.196      717.767      326.183        1.260        0.094      151.979       15.853        0.011      334.498        4.511      867.978
01/27/2015  23:33:00     -145.087       -3.423      -15.522       44.712       32.824       24.817     1999.153     1077.431      615.908        1.250        0.185      145.127       24.666        0.029      334.540        4.580      867.972
01/27/2015  23:34:00     -141.150        7.912      -27.890       33.865       26.227       16.646     1146.829      687.877      277.082        1.144        0.106      141.372       10.735        0.006      334.505        4.521      867.967
01/27/2015  23:35:00     -139.884       29.070      -13.421       33.887       31.560       19.770     1148.348      996.041      390.871        1.156        0.127      142.873       17.067        0.014      334.658        4.774      867.965
01/27/2015  23:36:00     -172.892        4.934      -21.761       28.187       27.289       16.319      794.502      744.672      266.323        1.610        0.090      172.963       11.449        0.004      334.563        4.617      867.957
01/27/2015  23:37:00     -149.869       -8.504      -15.526       32.839       25.441       14.600     1078.425      647.260      213.148        1.236        0.097      150.110       10.291        0.005      334.521        4.548      867.960
01/27/2015  23:38:00     -139.973      -21.263      -20.395       24.355       26.468       17.263      593.148      700.556      298.001        1.103        0.080      141.579       11.495        0.007      334.554        4.603      867.976
01/27/2015  23:39:00     -108.566      -24.203       -9.121       33.042       37.167       19.512     1091.759     1381.388      380.736        0.765        0.143      111.231       19.670        0.031      334.465        4.456      867.990
01/27/2015  23:40:00     -111.436      -25.922      -14.040       32.831       25.017       15.930     1077.867      625.863      253.776        0.762        0.098      114.412       10.610        0.009      334.500        4.514      867.994
01/27/2015  23:41:00     -136.880      -27.176       -5.888       25.181       22.313       20.055      634.106      497.864      402.189        1.052        0.077      139.551       14.104        0.010      334.501        4.514      867.994
01/27/2015  23:42:00     -130.786      -27.148      -11.459       24.800       19.466       15.759      615.060      378.941      248.341        0.961        0.062      133.574       12.420        0.009      334.558        4.609      867.988
01/27/2015  23:43:00     -141.948      -24.391      -13.280       31.597       18.408       17.933      998.399      338.849      321.583        1.129        0.083      144.028       17.562        0.015      334.549        4.594      867.974
01/27/2015  23:44:00     -140.601      -27.019       -7.009       32.846       19.171       15.293     1078.892      367.512      233.875        1.111        0.084      143.174       14.974        0.011      334.537        4.573      867.957
01/27/2015  23:45:00     -170.467      -26.938      -16.891       22.918       21.450       16.216      525.249      460.084      262.967        1.566        0.062      172.583        9.793        0.003      334.531        4.565      867.943
01/27/2015  23:46:00     -151.701      -16.803      -14.703       40.733       37.079       22.614     1659.195     1374.824      511.382        1.353        0.177      152.628       22.342        0.021      334.417        4.376      867.934
01/27/2015  23:47:00     -189.467       16.872      -16.590       24.175       24.458       18.270      584.452      598.178      333.788        1.899        0.076      190.217       14.657        0.006      334.331        4.234      867.924
01/27/2015  23:48:00     -170.045       20.070      -17.464       26.405       22.089       15.897      697.242      487.903      252.722        1.553        0.072      171.225       10.833        0.004      334.308        4.194      867.907
01/27/2015  23:49:00     -155.998        3.685      -17.744       31.083       36.344       19.028      966.178     1320.892      362.064        1.366        0.132      156.042       14.908        0.009      334.335        4.238      867.899
01/27/2015  23:50:00     -162.824       10.278      -17.394       34.632       28.523       27.075     1199.385      813.541      733.034        1.483        0.137      163.148       21.072        0.017      334.406        4.358      867.905
01/27/2015  23:51:00     -142.158      -28.913      -15.207       39.443       32.990       25.848     1555.713     1088.363      668.130        1.229        0.166      145.068       24.601        0.029      334.347        4.258      867.903
01/27/2015  23:52:00     -170.730      -22.766      -16.313       28.626       25.786       22.363      819.427      664.895      500.113        1.596        0.099      172.241       15.880        0.009      334.361        4.282      867.896
01/27/2015  23:53:00     -148.067       -9.230      -10.700       52.983       33.369       26.994     2807.210     1113.515      728.688        1.339        0.232      148.355       24.513        0.027      334.322        4.218      867.890
01/27/2015  23:54:00     -115.916      -16.553       -3.573       28.496       38.154       22.155      812.009     1455.728      490.834        0.824        0.138      117.092       14.740        0.016      334.314        4.207      867.891
01/27/2015  23:55:00     -129.165      -35.256      -10.751       30.673       37.701       24.017      940.856     1421.356      576.796        1.049        0.147      133.890       20.763        0.024      334.341        4.250      867.897
01/27/2015  23:56:00     -128.163      -43.822       -6.497       29.523       24.617       18.724      871.608      605.972      350.578        1.011        0.091      135.448       18.959        0.020      334.292        4.169      867.903
01/27/2015  23:57:00     -118.591      -43.155       -8.567       39.572       25.387       14.336     1565.966      644.522      205.520        0.921        0.121      126.199       12.214        0.009      334.286        4.158      867.922
01/27/2015  23:58:00      -97.054      -63.397        1.544       39.472       30.687       20.999     1558.015      941.720      440.965        0.819        0.147      115.925       20.921        0.033      334.279        4.147      867.941
01/27/2015  23:59:00     -120.982      -54.898      -10.234       36.242       28.374       22.901     1313.470      805.094      524.443        1.020        0.132      132.855       24.875        0.035      334.348        4.262      867.961
